GFSCGP_250_spd_000.txt.gz
Wind_Speed
24 26 28 28 28 31 32 38 41 42 44 42 41 45 42 42 42 40 39 41 41 40 39 41 43 45 47 44 41 40 46 47 48 52 56 58 61 63 67 68 63 65 68 72
18 18 21 23 23 25 27 31 33 30 33 31 30 35 33 32 34 35 35 38 40 41 42 41 43 46 47 45 44 45 46 50 53 54 57 60 65 68 69 65 67 70 74 77
14 14 15 15 19 20 18 24 29 27 31 28 30 33 34 33 30 32 36 40 42 41 41 41 42 42 42 42 42 43 48 52 53 57 61 65 68 67 68 71 75 79 82 84
14 15 15 17 20 20 22 26 26 27 26 24 24 21 23 22 26 31 33 36 36 38 39 39 38 39 42 42 45 48 52 55 58 61 64 64 65 68 70 74 79 83 86 90
12 13 13 18 20 16 16 17 18 20 22 25 22 19 20 25 28 29 32 37 40 40 45 44 43 41 43 46 50 53 55 57 59 60 61 62 65 69 74 79 85 91 94 98
11 11 11 13 14 14 16 18 20 22 24 23 20 18 19 27 29 31 36 37 37 39 42 43 45 46 48 50 52 55 57 57 58 62 64 68 73 76 80 86 91 96 100 105
7 6 6 7 8 10 13 15 16 18 20 15 15 13 15 17 22 24 26 26 28 30 33 37 40 44 48 54 57 56 56 58 62 65 69 73 77 82 87 92 97 102 106 109
9 9 7 5 4 2 2 3 4 5 6 7 11 14 16 17 18 16 21 26 31 34 39 39 41 46 48 53 56 59 62 66 70 72 75 79 82 86 90 95 102 107 113 118
16 13 10 8 5 3 3 5 8 10 11 12 14 17 18 21 23 25 29 33 35 37 42 43 46 49 52 55 58 61 64 66 69 73 77 82 87 92 96 103 109 115 121 126
10 7 5 4 3 4 6 8 10 12 13 14 15 18 20 23 26 28 31 35 38 39 43 47 47 49 52 56 59 63 65 68 73 78 82 88 94 99 105 112 116 121 127 132
7 4 2 2 5 8 9 11 14 18 22 24 23 24 25 27 30 34 36 39 43 42 44 47 50 54 57 60 62 64 68 74 77 82 88 94 102 110 114 117 123 128 131 130
8 7 6 7 9 12 15 17 19 21 25 29 29 30 34 36 38 41 44 44 45 46 48 50 52 54 56 60 63 67 72 78 83 88 96 101 108 114 119 123 127 130 128 127
10 10 10 11 12 13 16 20 24 26 27 30 34 34 38 40 42 46 48 49 50 51 52 54 55 57 59 62 68 74 79 84 90 96 101 106 112 117 121 126 129 129 126 124
13 13 13 14 16 17 21 24 27 30 34 36 38 45 44 45 47 48 52 54 57 59 61 60 61 61 62 67 71 77 83 90 96 103 108 112 117 123 128 129 126 125 124 122
15 16 16 18 20 22 26 30 30 33 36 40 44 47 49 51 53 54 55 55 56 58 61 61 61 61 65 71 77 83 88 95 103 108 113 116 122 127 127 126 124 123 120 115
18 18 20 22 23 27 31 34 35 38 43 47 50 56 55 55 55 57 58 59 59 59 59 58 60 64 70 76 83 89 96 104 108 115 119 123 126 126 126 124 123 118 111 102
22 24 25 26 29 33 35 36 39 43 50 53 57 60 58 55 57 60 60 60 59 58 59 62 67 72 78 85 91 97 102 108 115 121 124 128 129 127 123 121 116 107 99 92
27 28 28 31 34 34 35 42 45 49 54 57 59 59 57 57 58 58 57 58 59 60 63 69 75 80 87 92 97 103 109 114 118 123 127 129 127 126 122 116 106 96 90 83
30 32 34 35 34 38 41 47 51 55 59 59 61 61 60 59 58 57 57 59 62 65 70 76 81 87 92 98 102 107 113 117 124 126 127 129 126 123 115 105 97 89 81 77
35 35 35 37 42 44 48 53 56 61 64 62 65 63 62 62 59 60 60 62 67 72 77 83 88 94 98 103 107 112 117 124 127 126 125 124 123 114 106 96 88 81 77 74
35 38 42 47 49 52 53 56 61 65 63 62 65 64 61 61 63 64 66 70 75 80 85 90 95 100 104 108 113 120 125 126 128 124 122 121 115 105 97 89 82 77 73 70
39 42 48 52 56 56 61 64 67 66 65 66 69 66 64 65 66 68 72 76 80 86 91 95 100 104 109 114 120 126 127 128 128 123 122 117 108 98 90 84 79 74 69 66
46 51 55 56 59 64 66 69 70 69 70 72 74 70 68 70 71 74 78 81 86 90 95 98 104 110 116 121 129 130 130 126 124 124 118 109 100 92 86 80 75 70 66 63
54 57 59 62 66 69 70 72 72 71 73 76 75 72 72 73 75 78 82 86 91 96 99 104 109 116 122 126 133 132 127 124 124 118 109 100 93 87 80 75 70 66 64 60
63 64 66 67 72 70 70 73 73 75 77 79 74 72 75 78 81 85 87 91 96 99 104 110 116 120 124 132 132 127 125 124 118 111 100 94 87 81 76 70 66 63 60 58
68 70 72 71 74 73 75 76 77 80 82 80 78 78 81 83 86 88 92 95 101 105 111 115 121 125 130 133 127 122 121 116 108 100 93 88 82 76 71 67 63 60 58 57

GFSCGP_250_spd_003.txt.gz
Wind_Speed
24 25 26 25 27 32 35 36 36 35 33 37 38 39 38 41 42 41 42 42 42 40 41 43 44 44 46 47 47 41 42 48 53 61 67 70 74 77 77 74 74 75 77 78
23 24 25 25 26 29 31 30 28 25 27 30 34 33 31 32 33 34 36 37 40 41 43 45 45 46 48 47 48 52 54 54 56 63 69 73 75 74 76 77 77 78 77 77
24 23 22 20 20 21 23 23 21 20 22 25 24 26 26 29 32 36 36 37 38 40 40 43 46 49 51 49 50 52 53 53 55 58 62 65 69 73 75 75 76 78 79 80
18 17 16 16 17 19 20 21 18 18 19 20 22 23 24 28 31 32 32 31 31 33 35 41 44 46 46 46 46 50 50 49 53 57 61 65 70 72 73 75 79 81 82 85
16 17 14 16 17 17 19 20 20 17 17 15 15 16 20 23 26 28 32 35 36 38 42 43 44 43 44 45 49 47 49 53 58 61 65 67 69 72 75 78 80 83 86 90
15 15 13 13 12 14 16 16 17 17 15 11 12 12 17 21 25 30 33 36 37 36 36 38 39 37 37 44 49 50 53 57 61 63 66 69 71 73 76 78 83 89 96 101
14 12 13 13 14 14 12 10 9 6 3 6 9 11 12 14 17 20 23 26 28 31 33 37 40 40 45 49 52 55 57 59 62 66 69 71 74 77 81 85 89 94 99 103
13 13 11 9 6 4 2 3 3 3 1 2 4 8 11 13 16 18 21 24 27 31 35 39 44 46 48 52 54 56 58 61 65 68 71 72 75 78 83 87 92 99 103 109
12 12 11 10 9 6 5 2 2 3 4 7 10 13 15 17 21 24 27 28 30 34 37 41 44 47 49 52 57 60 63 65 67 69 71 75 78 81 86 93 98 104 110 116
16 13 10 7 4 3 2 4 5 8 11 14 16 17 20 23 25 27 30 34 36 39 42 44 47 50 52 54 58 60 62 64 66 68 72 77 81 86 92 99 105 109 116 121
11 9 7 3 1 3 5 8 10 12 14 17 19 21 22 24 29 33 36 39 41 44 45 47 48 51 54 56 59 61 63 65 67 71 74 79 85 93 100 105 111 118 120 124
9 6 4 4 5 7 8 11 14 16 17 20 22 25 27 29 33 38 41 45 47 49 51 52 53 54 56 59 61 62 64 66 70 74 80 86 94 100 108 115 121 123 127 126
9 8 8 9 10 11 11 14 17 20 23 24 26 31 35 39 43 47 51 53 54 55 56 57 57 57 58 59 61 62 65 71 76 82 90 96 102 107 113 122 127 127 126 123
11 13 13 13 13 14 16 18 23 26 28 28 32 37 42 46 50 54 57 57 56 56 56 58 58 56 58 60 62 67 73 79 86 92 98 104 107 112 118 128 128 124 122 119
16 16 16 17 18 18 20 23 27 28 28 32 37 44 48 52 54 57 58 58 57 56 57 57 58 58 60 64 69 75 81 87 94 99 104 108 114 120 127 132 128 124 120 118
19 19 20 22 23 24 26 28 31 29 32 38 44 47 51 56 57 60 60 58 57 56 56 58 61 63 66 70 76 81 87 94 101 105 109 115 121 127 135 131 126 124 118 113
23 24 24 27 26 26 32 35 32 34 40 44 49 51 57 58 57 60 62 62 60 60 60 60 62 65 70 76 81 87 93 101 105 111 116 121 126 134 132 128 126 122 114 102
27 28 28 30 30 31 37 39 34 40 47 49 52 57 60 60 59 62 63 63 62 61 62 64 66 70 76 80 85 92 98 104 110 115 120 127 133 132 127 125 122 116 105 94
29 31 33 34 36 35 38 39 43 48 52 54 58 63 64 67 64 65 67 66 64 67 69 70 73 78 82 85 91 97 105 110 115 121 128 132 129 125 125 123 116 104 96 90
34 36 37 37 35 37 41 46 49 52 56 59 64 66 67 70 69 72 73 70 71 71 72 75 79 83 86 91 97 104 111 116 121 128 132 129 125 126 124 116 106 97 90 83
36 35 36 39 39 37 45 50 55 58 59 64 69 69 69 73 75 77 78 77 76 75 76 81 85 88 92 98 105 110 116 121 127 135 130 124 126 126 118 107 99 92 84 78
39 40 42 43 45 44 52 54 59 63 64 68 69 69 73 77 79 81 82 82 80 79 84 88 91 94 100 105 110 115 122 128 134 133 126 126 126 120 111 101 95 86 79 72
41 44 45 49 52 54 58 61 64 65 67 71 72 73 77 81 83 84 85 84 84 87 90 92 95 100 106 111 116 121 130 133 135 128 126 126 120 114 102 96 87 80 74 69
46 52 54 57 60 64 65 66 68 69 74 75 74 77 83 86 85 85 84 85 87 91 93 96 100 106 111 116 121 131 131 134 127 126 126 120 116 105 98 89 81 74 68 64
57 61 62 61 66 66 69 73 74 76 78 77 78 83 86 85 82 83 85 88 91 95 98 102 107 111 115 120 131 134 133 127 125 124 120 116 106 99 90 82 75 69 65 61
66 66 66 65 70 71 73 74 76 77 78 80 84 86 82 82 84 87 90 93 96 99 103 108 113 116 121 130 135 130 126 123 120 118 114 106 98 91 83 75 70 66 62 59

GFSCGP_250_spd_006.txt.gz
Wind_Speed
23 23 24 24 26 25 26 26 28 31 31 33 35 36 38 39 40 41 44 43 43 42 41 41 42 42 45 45 46 44 34 45 52 54 59 62 67 73 77 81 85 87 87 85
23 25 26 27 26 25 22 21 25 30 32 32 33 36 35 34 33 34 35 35 34 34 37 39 39 42 44 44 43 44 49 54 58 60 65 69 71 72 74 77 80 80 81 82
21 21 21 22 22 19 19 22 26 26 25 23 23 24 25 27 28 29 28 30 32 33 35 37 38 39 40 42 46 51 54 56 58 60 62 65 67 69 72 74 76 79 81 84
17 20 22 22 21 18 15 17 17 19 17 18 18 19 23 25 28 27 26 27 26 30 32 35 39 40 43 45 47 49 51 53 56 56 58 60 63 67 71 74 77 80 84 87
17 19 20 19 15 16 17 14 11 10 11 13 14 16 19 23 25 23 25 27 28 29 28 28 34 35 36 38 41 45 47 50 53 56 60 62 65 70 73 76 78 80 83 84
15 17 14 13 11 9 9 8 8 7 8 12 16 17 23 22 23 24 24 22 21 22 25 28 32 33 36 40 43 47 50 53 56 59 62 65 67 69 72 75 76 78 82 86
14 12 14 14 10 8 7 8 9 10 13 18 21 23 22 19 17 18 21 23 24 25 29 31 33 38 41 46 49 51 54 56 58 60 62 64 67 69 71 75 79 82 85 91
11 12 13 9 7 7 7 7 8 8 7 6 6 8 12 16 19 22 24 26 28 31 34 39 42 45 48 50 52 53 55 57 59 62 63 66 69 71 74 78 82 86 91 97
15 12 10 10 11 12 10 8 6 6 7 7 7 10 13 17 21 24 27 30 33 37 41 44 47 50 53 56 59 61 62 63 63 65 67 68 69 71 75 81 87 93 100 105
13 14 16 14 11 9 5 3 2 3 6 8 11 14 17 21 23 26 29 33 37 40 44 49 52 55 57 59 62 63 63 63 63 64 64 65 69 75 81 88 94 100 104 106
16 14 13 11 6 3 2 3 4 7 9 12 14 14 16 20 23 28 33 39 43 47 50 52 52 54 57 60 62 62 61 60 61 63 64 69 76 82 88 93 100 106 109 116
15 12 9 6 2 3 6 6 8 10 12 15 17 18 22 25 30 35 40 43 47 49 51 51 52 53 55 56 57 57 58 60 62 65 70 76 81 87 93 99 108 114 118 120
14 11 7 5 6 9 10 11 12 15 18 20 20 23 27 30 37 41 46 50 51 51 53 53 52 53 54 54 56 60 62 64 67 71 77 82 88 96 101 106 114 121 122 123
12 9 8 8 11 13 15 15 17 19 22 26 25 28 30 37 42 45 50 49 52 55 57 59 60 58 57 58 61 64 66 69 73 77 83 88 95 101 107 114 123 122 126 122
13 12 12 14 16 17 20 22 24 27 29 31 32 34 36 42 45 51 55 55 55 55 58 62 61 63 63 62 63 65 69 74 79 84 89 96 103 108 114 125 128 129 124 124
16 17 18 17 18 20 24 28 29 31 34 36 35 39 43 47 49 53 59 60 60 60 63 66 69 68 65 64 66 70 75 81 86 92 96 104 110 115 121 129 131 124 123 121
21 20 20 23 24 24 30 31 32 35 39 38 38 44 49 51 55 60 65 65 67 69 72 74 76 74 68 68 71 77 84 89 93 97 103 110 114 119 128 131 125 122 121 116
26 26 27 28 29 26 35 38 37 38 38 39 45 48 50 56 61 65 67 69 70 71 76 79 79 76 73 76 79 85 90 93 98 103 109 114 118 125 130 126 123 121 117 110
30 31 30 29 32 32 36 41 42 38 39 47 49 54 57 61 64 69 70 73 74 75 80 83 81 79 80 82 86 91 94 99 103 110 114 121 125 127 126 124 122 117 111 102
32 33 34 36 36 36 39 44 44 43 42 52 56 60 63 65 67 71 76 77 77 79 85 85 81 82 84 87 91 96 99 104 109 113 123 125 127 123 122 122 118 112 105 98
35 37 39 41 40 38 43 45 46 48 51 56 61 67 69 71 73 76 80 79 80 84 86 82 83 86 89 93 97 100 104 109 114 121 124 124 121 120 121 118 114 106 100 93
40 41 43 44 45 42 44 46 50 56 59 61 66 70 72 75 78 78 79 82 85 88 85 85 89 91 94 97 100 105 109 115 120 123 124 121 119 120 119 114 110 102 96 88
44 47 48 49 49 49 48 53 58 63 65 69 71 74 76 80 81 80 83 86 87 86 87 90 92 96 99 103 105 109 114 119 121 123 121 118 117 117 114 111 104 97 91 82
49 48 50 50 53 56 58 61 66 66 69 73 76 78 80 82 81 85 86 87 87 89 91 93 97 100 104 108 111 114 118 121 120 119 116 114 114 114 112 107 98 91 84 76
51 56 57 56 60 60 65 69 69 71 75 79 81 81 83 83 87 87 89 89 89 92 95 98 101 105 109 113 117 117 120 119 116 116 115 113 113 111 108 101 93 85 77 72
63 63 61 61 65 66 70 72 75 78 82 84 84 83 85 87 88 89 89 91 94 97 99 103 108 111 115 117 117 118 117 113 113 114 113 112 109 105 101 95 88 79 73 71

GFSCGP_250_spd_009.txt.gz
Wind_Speed
24 23 24 21 20 21 21 23 24 26 27 25 26 28 31 32 34 34 34 35 38 39 39 40 39 38 40 40 41 43 43 46 43 48 53 56 59 62 66 71 76 79 82 85
22 23 23 22 21 21 24 24 24 26 26 25 26 29 31 32 34 36 37 36 33 34 35 34 32 34 37 40 39 42 43 45 47 50 54 59 64 68 71 74 77 79 80 81
22 22 21 22 22 22 22 22 21 21 21 22 25 27 27 28 29 28 25 26 27 27 27 28 29 31 33 36 39 41 45 49 52 56 59 62 64 66 67 69 71 73 77 79
21 22 20 19 19 20 20 19 20 21 20 20 20 20 19 20 20 19 18 19 19 19 22 24 27 31 35 38 41 43 45 46 47 49 53 57 60 63 65 68 71 73 75 77
19 19 19 19 19 19 19 19 16 14 12 15 16 20 23 22 19 17 16 16 16 21 23 23 25 28 32 35 38 41 43 45 47 51 54 58 62 64 67 69 71 73 74 76
17 17 15 15 19 20 17 12 12 13 16 17 16 16 19 15 14 14 13 15 18 21 25 28 30 32 35 39 42 46 49 52 54 57 60 62 65 66 68 69 70 72 73 72
15 14 16 18 18 17 14 16 15 12 12 15 15 16 16 14 10 10 14 18 22 25 29 32 35 39 42 46 49 53 56 58 60 61 63 65 67 68 69 69 69 69 72 78
15 15 13 12 11 10 9 8 7 6 4 5 3 4 5 8 11 13 16 20 24 28 31 34 39 42 44 47 50 53 55 58 60 61 63 64 63 64 65 68 71 75 80 85
13 12 11 10 11 12 12 12 10 7 3 1 3 6 8 11 13 16 19 22 24 28 33 37 41 43 46 49 51 53 54 56 57 57 60 62 65 67 70 73 76 81 86 89
9 10 12 16 18 17 14 11 7 6 6 6 8 10 12 13 15 17 20 25 29 34 40 42 43 45 48 50 52 54 55 56 58 59 60 63 65 67 71 76 80 85 89 94
14 18 21 20 17 13 9 7 6 6 6 6 8 12 14 17 20 22 24 30 34 39 42 45 47 50 51 53 56 59 59 60 61 62 62 64 66 70 75 80 84 89 93 99
22 21 19 16 12 9 6 4 6 7 7 9 13 15 18 20 23 26 30 34 37 41 46 49 47 47 49 53 57 61 59 59 61 62 64 67 70 75 81 83 87 93 99 107
20 18 15 12 8 6 5 6 9 11 12 14 17 21 22 25 27 30 34 37 39 45 49 52 54 55 56 59 63 66 65 62 61 62 66 71 76 81 84 90 94 100 107 110
16 15 11 9 8 7 8 10 13 15 18 21 22 27 28 30 33 35 40 42 44 50 53 56 61 64 66 67 69 72 71 67 68 71 72 76 81 86 93 97 102 108 112 117
15 14 12 12 11 11 12 15 18 21 25 26 28 32 31 34 36 41 45 45 49 55 60 62 66 70 71 71 72 77 75 72 74 77 80 85 88 95 98 103 110 115 116 117
14 15 16 16 15 16 19 23 25 27 30 30 32 38 36 35 40 46 49 52 56 61 64 66 69 74 74 75 77 80 79 78 81 83 86 91 96 101 105 110 114 117 118 118
19 21 19 18 18 19 24 31 30 32 33 35 38 41 38 39 44 51 54 58 63 66 69 72 74 77 77 79 81 82 82 83 85 89 93 98 102 107 111 113 117 118 116 115
23 24 22 23 25 23 32 36 36 34 38 40 43 40 40 45 50 56 60 64 69 71 73 77 79 79 81 83 84 85 84 86 89 95 99 104 108 111 113 115 116 113 112 111
26 26 26 26 29 29 34 38 41 42 42 45 42 44 45 50 55 61 63 69 72 75 78 80 83 82 85 87 87 87 88 91 95 100 105 109 111 112 113 115 111 111 111 108
28 29 29 32 31 32 37 42 43 44 43 47 49 49 53 57 61 66 68 72 76 79 82 85 85 86 89 89 88 91 93 96 100 105 110 113 112 113 113 109 108 110 108 105
33 33 35 36 35 36 41 43 45 47 48 49 51 55 60 63 68 71 73 77 82 85 86 85 88 90 90 89 91 93 97 101 106 110 112 112 112 110 109 108 108 108 105 103
36 36 38 39 41 42 45 46 48 50 51 54 57 60 63 68 72 73 77 83 86 86 86 90 90 90 91 92 95 98 102 107 110 111 111 112 108 107 107 108 107 105 105 100
40 42 43 47 49 49 49 49 52 55 58 61 64 67 71 73 75 78 83 87 86 87 90 87 90 92 93 95 99 103 107 110 111 112 110 104 104 105 106 106 105 104 102 96
43 46 48 49 53 53 54 56 60 61 64 68 71 73 76 79 82 85 87 86 88 87 88 91 92 95 99 102 105 108 110 112 112 108 102 101 105 107 105 105 103 102 97 90
45 47 48 49 54 57 62 65 66 68 72 74 76 80 84 85 85 84 85 86 87 89 93 95 98 102 106 109 110 110 110 107 104 102 101 104 105 105 105 103 101 97 91 83
55 55 54 56 61 61 65 68 71 74 78 82 84 84 83 83 84 86 87 89 93 95 98 101 105 109 111 112 110 108 104 104 103 104 105 104 104 103 102 100 98 91 83 78

GFSCGP_250_spd_012.txt.gz
Wind_Speed
35 35 32 29 28 26 24 25 26 27 26 25 27 28 28 27 28 29 30 30 31 33 35 36 39 41 42 42 42 43 43 42 42 43 48 52 55 56 60 65 67 71 74 78
33 32 28 26 27 28 27 25 24 24 24 24 25 27 27 28 29 29 30 31 32 34 35 36 35 34 35 36 36 37 39 41 43 46 48 52 56 59 62 63 64 67 70 73
27 26 24 26 26 26 24 23 23 23 25 26 27 27 26 25 24 25 28 29 29 29 27 27 28 29 30 32 34 37 39 41 44 46 48 51 54 57 60 64 67 71 73 76
25 24 26 26 26 25 25 23 23 23 22 22 22 23 23 23 21 22 21 19 21 20 22 22 23 26 29 31 32 35 38 41 44 47 51 55 58 61 65 68 71 73 76 78
23 24 24 24 24 24 23 22 21 19 18 22 23 21 21 18 15 13 13 16 17 16 16 17 19 22 25 29 33 37 42 46 50 53 57 60 64 67 70 72 74 75 75 74
20 21 22 23 21 21 22 21 20 21 21 22 20 19 17 11 12 12 13 11 9 10 13 18 23 27 31 35 37 41 45 49 53 56 60 62 65 66 67 68 68 67 66 67
21 20 20 20 21 19 18 19 19 18 17 16 14 14 11 10 8 4 6 8 12 16 20 23 25 29 32 35 38 41 44 46 47 49 51 55 58 61 63 65 66 68 69 72
21 20 17 14 15 18 20 18 16 15 15 10 7 6 3 1 3 7 10 13 16 17 20 22 27 31 34 37 40 43 44 47 48 51 56 59 61 63 65 68 69 71 72 75
18 17 16 19 21 20 19 16 15 14 12 8 5 3 3 6 8 11 13 14 16 19 24 28 30 34 37 38 41 46 49 52 54 55 59 61 62 63 64 66 68 70 73 77
17 19 20 20 19 16 13 13 12 9 7 5 5 5 7 10 12 14 15 17 21 25 29 32 34 38 40 43 46 50 53 57 59 61 64 66 67 66 65 67 69 72 77 83
16 17 17 18 17 17 16 13 10 9 8 7 7 9 11 14 17 18 21 24 27 30 33 34 39 43 47 50 54 58 61 63 64 66 68 71 72 70 69 72 75 79 84 90
18 19 22 22 21 19 15 12 10 9 9 10 12 12 13 16 20 24 28 30 32 34 37 38 43 48 52 55 60 64 68 71 70 70 71 73 74 72 74 78 81 85 92 97
23 25 24 21 19 15 13 13 13 13 13 16 18 20 20 24 26 28 32 35 38 40 43 45 48 53 57 61 65 68 71 74 74 74 75 75 75 76 79 83 87 93 98 101
24 23 22 19 17 16 14 14 14 14 16 20 22 24 26 30 33 35 36 37 40 43 48 50 53 58 62 65 69 73 75 78 78 79 79 80 79 82 85 89 94 99 103 104
23 23 21 19 16 15 15 14 17 19 21 25 27 31 28 31 36 39 41 41 43 47 52 56 59 62 65 69 74 78 80 81 81 84 84 82 85 87 91 96 101 105 107 110
22 23 22 21 20 17 17 20 22 23 26 30 31 37 35 37 40 43 44 44 46 52 57 60 64 67 70 74 79 83 82 83 86 86 85 87 88 93 98 103 107 108 111 111
25 26 26 26 22 20 23 26 26 29 32 33 35 37 39 42 44 45 46 47 52 59 61 66 71 74 76 80 84 85 84 87 86 87 88 90 95 100 105 108 109 111 110 107
27 27 27 27 25 23 29 32 33 33 36 36 37 40 43 44 45 48 49 52 59 63 67 73 77 78 80 84 87 85 87 87 88 89 93 97 101 106 110 111 110 106 106 106
29 29 29 29 30 30 33 36 38 38 39 39 41 43 45 47 49 52 54 59 64 67 72 76 79 81 84 87 86 88 88 90 91 95 99 103 107 110 112 110 105 105 105 106
29 30 31 32 32 33 38 39 40 41 41 44 47 48 50 53 56 59 61 65 68 73 76 79 83 85 86 85 88 89 92 94 97 101 104 108 109 110 106 104 102 103 104 104
31 31 33 34 35 38 40 41 43 44 46 48 51 51 55 59 60 63 67 71 75 78 82 84 83 82 84 87 89 93 97 100 103 106 109 110 109 105 104 101 103 104 105 103
33 34 37 38 40 41 43 44 47 50 53 55 55 57 59 62 66 69 74 78 81 84 82 80 81 84 86 90 93 97 101 105 107 108 108 104 103 103 105 106 105 104 103 100
38 39 41 44 45 45 45 47 49 51 53 55 59 60 63 68 70 74 78 83 82 80 81 82 83 86 91 95 99 102 105 108 107 103 100 103 106 106 107 106 102 101 100 98
44 46 47 46 47 46 47 48 50 54 58 62 63 65 69 72 76 80 82 79 79 81 81 85 90 94 97 99 103 105 105 101 97 101 104 106 107 108 106 101 100 102 100 97
47 46 46 46 49 50 54 56 58 62 66 66 69 72 74 78 80 79 79 80 82 85 88 92 95 98 103 106 104 104 103 102 103 106 110 111 110 108 104 102 101 100 98 94
47 48 51 52 54 57 61 63 68 70 71 73 74 76 79 81 83 82 83 84 88 91 94 98 101 105 106 104 102 102 105 109 113 116 113 113 109 102 101 101 100 97 93 89

GFSCGP_250_spd_015.txt.gz
Wind_Speed
26 34 38 38 37 31 29 29 30 27 27 28 32 32 31 28 28 28 27 29 30 33 34 33 35 37 40 42 43 47 48 50 52 54 53 54 53 55 56 58 60 63 64 67
30 33 36 33 31 29 27 27 26 26 27 28 31 32 31 30 29 29 29 32 33 34 35 36 38 39 40 42 43 44 46 44 43 43 44 46 47 49 51 55 59 63 67 70
33 35 34 33 31 28 27 27 26 25 25 26 28 27 26 29 30 31 32 32 33 33 33 35 37 37 37 37 35 33 33 33 35 39 43 46 50 55 58 63 67 70 75 78
35 34 33 32 28 27 28 27 27 27 26 25 26 27 29 30 28 28 28 29 29 30 30 31 30 28 24 23 25 28 31 35 39 43 47 50 54 56 59 61 63 67 69 73
25 30 31 30 29 27 28 26 26 26 23 28 23 23 25 25 22 24 26 27 27 24 21 20 18 17 20 23 26 31 34 38 42 46 48 49 49 51 52 54 58 60 64 66
31 27 25 25 25 26 26 27 28 27 24 23 23 22 22 18 17 23 22 20 18 15 15 15 15 17 21 25 29 33 36 39 41 44 46 49 53 56 58 60 62 64 66 67
24 25 25 26 27 28 29 27 23 24 23 19 18 19 17 15 20 21 18 15 15 15 15 14 15 19 23 27 31 33 35 38 41 45 49 51 55 58 59 62 64 68 69 70
24 25 26 26 25 25 23 21 22 20 19 17 16 19 14 19 20 17 16 14 13 14 14 15 19 23 28 30 34 37 41 45 48 52 56 59 63 66 68 69 71 73 74 74
27 26 24 23 21 20 19 18 19 19 16 14 13 11 11 12 13 12 12 13 14 16 17 21 24 28 33 35 38 43 46 49 52 56 62 67 71 73 75 75 76 77 77 76
22 21 21 21 21 20 19 17 16 16 14 14 14 14 12 11 11 12 15 17 19 22 25 28 31 33 37 39 43 48 51 54 58 62 65 69 73 75 77 76 78 78 78 80
22 22 21 21 20 19 19 19 18 17 17 17 15 12 10 11 14 17 20 23 26 29 34 37 38 41 43 43 48 53 56 60 63 65 69 74 78 76 78 80 80 82 83 86
21 22 23 22 21 21 20 18 17 16 15 13 12 12 14 16 18 19 22 27 31 34 37 42 44 45 47 50 54 58 62 66 70 73 75 78 81 80 83 82 83 86 88 93
21 22 22 23 24 23 20 20 19 18 17 16 18 18 21 22 25 27 30 34 36 40 43 44 44 47 51 57 59 62 67 73 77 78 79 82 84 84 85 85 88 91 96 100
23 24 25 25 22 23 22 21 21 19 19 20 22 23 25 27 30 31 35 37 40 45 47 47 47 49 55 63 64 68 74 78 80 81 84 86 85 86 87 90 94 98 102 106
25 27 27 25 25 22 21 22 23 23 23 24 27 28 28 30 34 37 39 42 46 48 50 49 50 54 62 66 70 74 78 81 83 85 87 86 88 88 92 96 100 103 106 109
27 28 27 27 26 24 24 26 25 26 26 28 29 32 33 37 38 40 40 44 46 48 51 53 56 62 66 70 73 77 81 84 85 85 86 88 90 94 98 102 105 109 109 109
28 28 29 30 28 27 28 29 27 29 32 32 33 37 39 43 43 42 45 46 48 51 55 59 61 64 68 73 78 82 84 84 84 85 86 89 94 98 102 105 108 108 103 100
31 29 31 33 31 30 34 33 32 33 35 37 39 43 43 44 44 46 48 49 53 58 62 61 65 71 75 80 82 84 81 82 84 88 91 95 99 103 108 107 104 100 101 104
33 32 33 34 36 36 36 37 38 38 41 41 45 46 47 47 50 53 52 56 61 64 63 68 72 76 80 84 82 82 84 85 88 92 98 99 104 106 103 101 101 103 106 109
33 33 34 36 37 38 39 39 40 43 43 45 49 49 52 54 56 59 61 63 65 66 69 73 77 80 83 83 83 83 86 90 94 98 101 105 108 105 102 100 105 108 106 104
34 35 37 37 38 39 40 42 42 44 47 48 51 53 55 57 59 59 64 67 68 70 74 78 82 85 86 83 85 87 91 95 98 102 105 105 103 104 103 107 108 108 104 102
36 37 39 40 41 41 41 43 46 47 50 53 54 54 54 56 61 66 69 72 74 77 79 83 86 87 87 89 89 92 98 101 106 109 108 105 104 105 106 107 108 108 103 100
37 39 40 42 42 42 43 47 49 52 54 54 54 56 58 63 67 69 71 75 80 80 83 87 88 89 91 90 93 98 102 104 107 105 105 104 107 111 114 112 108 107 107 107
41 42 42 43 45 47 49 52 53 53 54 56 59 63 66 70 73 76 77 81 82 84 89 91 91 92 93 94 99 101 107 108 105 107 105 107 112 116 115 112 112 111 107 103
43 44 46 48 50 50 52 51 55 56 58 60 67 70 73 76 78 80 84 84 86 92 93 92 94 95 97 100 104 108 108 104 105 105 108 110 113 115 114 111 107 105 101 96
48 47 47 46 47 52 55 55 59 60 64 70 74 77 78 82 86 87 87 89 95 93 93 95 96 99 102 106 108 108 106 107 106 109 112 113 115 114 110 108 104 99 94 91

GFSCGP_250_spd_018.txt.gz
Wind_Speed
21 25 28 33 36 39 40 37 36 29 28 26 29 32 30 28 27 30 31 35 33 33 33 34 39 43 47 49 45 47 48 46 51 54 55 57 58 59 58 56 56 57 58 63
24 25 27 34 36 33 32 28 25 24 24 29 27 25 27 32 34 35 32 32 33 32 34 36 39 40 42 40 44 41 46 46 49 50 48 47 46 45 47 50 54 58 61 63
23 26 27 31 31 28 28 28 25 26 23 23 26 27 30 33 33 34 36 34 34 34 36 39 41 41 41 41 40 38 39 39 39 38 38 38 41 45 48 50 53 56 61 63
23 26 30 30 28 29 27 24 22 20 23 24 24 27 28 26 29 31 33 36 37 36 37 38 37 36 34 33 33 32 31 30 31 33 37 40 41 41 44 46 50 53 56 62
21 24 29 33 27 28 27 23 23 20 23 25 28 24 26 28 30 20 29 29 32 34 33 32 32 30 27 26 25 25 26 29 31 33 34 38 42 43 48 52 57 60 62 66
17 26 26 28 27 24 24 23 23 23 24 27 30 25 27 25 18 15 27 32 32 32 29 28 25 23 24 24 23 25 27 29 32 36 40 45 49 51 55 60 64 68 72 70
18 21 25 26 27 28 25 24 26 27 27 29 28 22 27 17 11 13 38 51 31 27 25 22 24 24 22 23 25 28 32 36 38 43 47 50 54 57 62 65 69 72 76 75
23 26 26 27 27 29 26 29 27 26 24 24 21 25 24 19 27 34 46 35 29 26 24 26 22 23 25 28 31 34 37 43 47 50 53 56 60 64 68 73 75 76 80 79
26 27 30 30 30 29 28 29 26 25 25 21 22 23 23 24 25 27 32 26 27 27 23 22 24 27 31 33 38 41 45 49 54 56 57 61 65 70 74 76 79 81 84 83
34 33 31 28 29 28 26 24 23 23 23 22 21 26 21 20 20 21 22 24 24 23 24 25 28 32 36 41 46 49 50 52 58 61 63 66 70 76 80 81 84 85 85 84
27 23 25 26 26 24 22 24 23 21 21 20 22 21 19 21 21 22 23 23 23 24 26 30 35 38 41 46 49 50 50 52 60 67 68 72 77 80 83 86 86 85 85 86
23 23 26 25 27 26 25 24 22 21 20 22 20 21 22 23 23 22 23 24 27 31 33 36 41 44 47 50 50 51 53 58 66 70 74 75 79 84 86 85 85 84 86 92
28 28 27 28 29 25 22 21 22 24 24 22 22 21 22 21 22 25 28 31 34 36 37 39 41 47 49 50 51 52 59 65 68 71 75 80 83 86 85 85 87 88 92 97
26 27 28 27 25 22 23 24 25 24 23 21 23 21 23 25 27 30 34 36 36 40 44 44 46 48 51 53 56 61 61 65 71 77 82 85 85 84 85 85 90 93 95 101
27 29 28 28 25 26 25 25 23 24 23 23 23 25 29 29 30 34 37 38 46 45 44 50 52 51 52 59 63 61 65 71 78 82 86 89 86 86 87 90 96 99 102 107
25 26 26 28 26 27 25 26 27 26 24 25 29 30 33 33 37 39 43 41 45 48 51 52 54 58 63 66 65 67 73 77 81 87 90 91 90 90 91 96 102 105 109 111
27 27 26 28 29 27 28 30 27 26 27 29 31 35 39 39 39 46 47 47 48 53 54 56 60 64 67 67 68 73 78 82 84 90 92 92 92 94 97 102 106 112 113 109
27 27 29 31 30 30 32 31 31 31 33 34 36 39 43 42 46 49 47 50 54 53 57 60 63 67 70 73 76 81 84 86 90 93 93 94 95 96 101 105 109 113 109 106
28 30 32 31 31 34 35 36 37 37 39 39 43 46 47 47 49 51 52 55 57 58 58 63 69 71 75 78 83 86 88 92 97 94 96 97 98 102 106 111 115 110 107 105
31 34 34 34 33 34 36 40 41 43 42 45 47 47 50 51 53 55 58 59 60 62 68 69 74 77 81 83 88 91 91 98 98 98 99 101 105 109 112 111 108 108 110 112
30 34 37 37 36 36 38 42 43 45 48 47 50 51 52 55 57 60 60 61 66 69 69 74 79 83 86 88 91 93 99 98 98 99 102 107 111 112 111 110 108 108 109 110
31 33 36 38 38 38 41 43 47 48 49 50 51 54 55 58 63 64 63 64 73 76 77 80 86 89 91 92 94 99 96 98 100 104 108 111 113 112 113 111 112 113 112 109
34 36 37 38 38 40 42 46 47 49 51 53 54 56 60 63 65 65 67 70 78 80 83 87 90 94 96 96 100 97 99 101 105 110 113 114 113 111 108 110 113 110 108 103
38 39 39 42 44 42 43 47 47 50 51 53 57 58 60 67 67 69 72 78 81 84 87 93 95 97 98 98 97 99 102 107 111 114 113 113 111 110 112 112 114 110 105 103
40 42 43 46 47 47 48 45 47 54 50 52 59 63 67 70 72 76 80 84 86 90 92 93 97 97 95 98 100 104 109 112 114 114 113 112 112 111 110 108 106 106 105 99
44 44 47 49 47 52 52 49 50 50 56 62 67 69 72 75 78 84 86 89 91 93 95 100 95 95 97 101 107 111 113 114 114 114 111 109 108 107 107 108 106 103 99 96

GFSCGP_250_spd_021.txt.gz
Wind_Speed
11 19 26 29 32 39 43 45 41 32 30 24 23 26 28 25 27 21 21 18 22 33 36 36 38 37 44 44 42 45 50 55 57 59 60 62 65 68 67 68 68 67 66 64
12 19 24 28 33 39 37 35 29 27 25 23 24 29 28 27 28 31 34 31 32 28 25 32 35 36 40 43 38 47 48 52 51 51 55 55 57 58 58 56 55 54 56 55
13 15 18 24 28 38 33 32 28 26 25 26 28 32 28 28 32 37 38 37 36 37 42 43 38 37 39 42 42 43 48 51 52 51 51 51 47 45 48 50 50 50 50 53
19 17 19 22 25 29 27 27 24 26 25 26 27 24 29 30 30 33 35 33 37 41 40 38 41 39 38 40 37 39 43 43 44 45 40 41 42 43 42 44 48 52 56 60
14 15 16 18 17 24 25 21 22 21 25 27 29 29 28 28 31 31 30 34 33 31 31 33 33 33 32 31 33 34 35 35 36 39 41 40 39 41 44 46 51 55 58 62
13 13 17 20 22 20 22 24 24 24 27 28 28 24 26 27 28 26 29 31 34 26 25 26 29 26 27 27 28 29 33 36 38 38 41 42 44 49 51 54 58 62 66 70
18 13 17 18 22 26 22 25 25 25 27 29 27 28 25 28 23 21 24 32 28 25 24 30 31 24 25 27 28 31 34 37 42 44 45 45 49 54 58 60 64 69 73 77
17 17 18 20 25 26 31 27 25 27 28 30 29 30 30 23 21 22 27 29 28 30 35 34 25 25 28 29 28 31 35 41 46 50 51 51 54 57 61 65 69 73 78 82
25 23 26 27 27 30 28 27 27 28 29 30 30 25 21 22 25 23 29 30 34 32 35 35 29 29 28 30 33 35 40 46 51 55 55 55 58 62 67 69 72 77 83 87
23 33 28 28 25 27 26 28 26 26 28 28 25 27 21 28 23 22 28 34 36 39 40 30 27 29 32 35 38 39 42 48 53 56 56 58 62 67 67 71 77 83 88 89
26 30 33 32 31 29 29 28 26 24 24 24 26 24 28 27 24 19 21 24 28 29 29 29 28 32 37 41 44 46 46 48 53 58 60 63 61 66 71 77 81 86 90 90
22 23 26 25 24 27 26 23 22 24 23 24 28 27 27 23 20 21 22 25 29 31 30 30 33 37 40 44 46 51 50 50 55 64 67 63 66 72 77 82 86 89 92 92
21 24 25 23 26 24 23 21 25 25 26 28 26 24 22 22 22 26 29 30 30 31 31 34 36 40 44 47 50 52 54 58 62 67 68 66 73 78 84 87 89 95 93 93
25 27 27 27 28 23 24 25 27 27 30 27 27 20 25 23 25 28 32 33 33 33 34 35 38 41 44 48 52 56 60 64 65 66 70 74 77 84 87 92 95 98 95 96
27 29 28 27 28 25 26 27 28 29 31 25 27 26 25 26 28 31 33 37 40 45 45 42 44 47 48 50 55 59 62 65 69 73 77 80 84 90 91 94 98 97 98 98
27 28 28 29 28 26 28 30 31 31 28 28 26 26 29 28 32 35 37 36 38 44 53 53 51 52 56 57 58 61 66 68 74 80 84 87 91 92 96 99 98 99 101 106
28 30 29 29 29 30 30 33 28 28 27 27 29 29 32 33 35 38 42 46 48 49 53 58 60 60 60 60 64 69 71 75 80 85 89 93 95 97 100 100 101 103 109 111
31 28 27 28 28 28 32 30 29 30 29 29 31 33 37 40 41 44 46 49 51 52 54 57 63 66 67 69 72 74 76 81 86 90 93 95 97 99 99 102 106 110 112 111
31 26 28 29 29 30 31 32 31 33 32 35 38 39 41 47 47 49 52 52 54 56 57 60 64 67 71 75 78 81 84 89 92 94 97 98 97 98 101 108 111 113 113 112
29 26 28 30 30 31 31 35 36 35 35 41 43 46 47 50 53 54 55 55 57 62 65 67 70 70 74 77 82 87 91 94 95 99 100 97 99 103 110 113 115 114 113 111
31 30 30 29 33 35 33 37 36 38 40 44 47 47 50 53 56 58 58 59 61 67 68 68 72 74 77 82 86 90 94 95 98 102 99 100 104 110 114 116 115 113 113 112
35 33 30 31 33 38 39 40 41 41 42 46 47 49 53 56 59 59 59 60 61 66 73 75 77 80 85 89 93 95 95 98 104 100 102 106 112 116 118 117 115 113 112 110
38 36 33 33 34 37 37 38 41 42 47 47 49 52 54 57 57 58 60 61 65 72 76 80 83 86 91 94 95 95 99 104 102 103 107 111 117 119 119 114 113 113 112 109
40 39 37 37 38 38 37 41 43 47 51 52 52 55 56 57 58 61 64 68 73 77 81 84 89 92 94 96 97 100 104 101 103 107 111 117 120 120 115 113 112 111 111 108
43 43 40 43 42 40 41 43 46 49 53 53 55 57 59 60 63 67 72 77 80 83 86 89 91 95 97 98 100 104 100 104 107 112 116 120 121 115 114 113 112 110 107 105
44 43 46 42 44 43 44 47 50 52 55 55 58 60 61 65 70 74 78 82 86 89 90 92 94 96 98 101 103 101 104 109 113 117 120 123 117 116 112 111 108 106 104 101

GFSCGP_250_spd_024.txt.gz
Wind_Speed
12 6 17 25 26 30 36 34 41 39 38 33 28 29 25 23 27 30 30 38 52 57 44 45 53 54 48 46 49 53 57 64 65 62 59 59 61 63 67 70 69 71 72 72
13 11 14 21 26 29 31 34 37 37 35 33 31 26 27 28 30 33 31 40 49 45 45 42 46 49 51 50 54 55 53 51 51 52 53 59 61 61 62 64 66 67 66 65
13 11 11 18 20 23 24 27 38 31 32 32 28 30 29 33 34 29 27 30 28 31 28 29 34 37 37 39 40 42 45 46 49 51 53 56 57 59 59 60 60 60 61 62
12 16 17 13 18 24 24 25 34 30 27 30 30 28 30 29 31 34 33 36 40 41 41 38 36 42 44 43 36 40 41 41 43 47 49 49 51 50 52 54 58 60 62 60
9 10 13 16 21 23 27 30 31 30 27 30 28 29 28 27 31 33 34 35 39 41 43 41 41 41 40 31 30 37 37 38 44 43 42 43 45 48 53 56 59 60 62 66
13 11 11 14 17 20 26 34 31 30 28 25 27 28 27 30 30 32 34 37 37 40 40 41 35 32 28 28 31 32 36 35 34 38 41 44 47 52 55 59 61 62 64 65
14 10 11 12 12 16 18 24 26 26 27 28 29 27 28 31 31 32 32 30 35 33 38 38 38 29 23 23 27 32 34 36 36 40 44 45 48 51 53 56 59 63 65 65
16 12 14 15 16 17 26 23 27 29 29 27 28 28 28 28 31 33 33 27 28 30 34 31 25 23 26 25 30 35 39 40 43 44 46 49 51 53 56 60 61 63 63 64
19 25 16 18 18 23 24 26 29 28 30 29 28 26 27 29 31 29 28 25 26 25 29 27 30 30 25 31 33 36 40 44 46 47 49 53 56 59 62 64 66 65 68 72
20 26 26 21 21 22 25 28 28 29 32 32 29 29 29 30 26 23 29 26 24 25 28 34 37 33 34 34 33 37 42 46 49 52 55 58 59 62 64 66 66 70 74 78
23 22 25 26 21 25 25 30 27 29 33 33 30 28 28 27 26 22 24 23 22 22 24 27 28 34 36 36 37 40 43 48 52 55 59 62 64 65 65 68 73 78 82 85
23 21 22 22 20 23 26 26 30 29 30 34 30 27 27 26 22 22 22 25 25 24 26 29 34 36 37 39 40 43 47 49 53 58 64 66 66 68 70 74 79 83 86 89
24 22 22 20 20 22 23 21 21 26 28 30 29 28 23 24 20 20 24 24 25 27 30 33 34 35 37 42 47 49 51 53 57 61 63 65 69 70 73 78 84 87 90 95
24 25 20 21 20 20 21 22 24 27 29 29 31 29 24 22 19 21 24 26 28 30 32 33 34 35 39 45 49 52 53 56 59 61 63 67 69 72 78 84 88 90 95 95
23 27 23 23 22 22 24 27 28 29 30 32 29 31 23 21 22 23 27 30 31 33 34 34 38 42 45 49 50 52 56 61 62 64 67 70 74 80 85 88 92 94 97 93
24 25 24 25 25 23 26 28 30 30 30 32 31 27 21 19 24 30 33 32 35 38 41 43 46 47 49 50 53 57 62 63 64 68 72 77 82 86 90 91 92 99 96 96
27 27 25 26 26 26 27 34 30 31 31 27 26 25 27 29 30 32 35 38 42 44 47 50 52 52 54 57 59 65 66 67 70 73 78 82 87 91 90 92 98 96 98 103
30 30 29 27 26 27 32 30 32 31 29 24 27 29 32 32 33 36 40 44 47 51 54 56 56 58 60 64 67 69 70 72 76 80 84 89 92 93 94 99 97 98 103 106
34 31 25 24 26 29 31 31 29 28 26 27 30 32 35 37 40 42 44 48 52 55 58 58 59 61 64 67 70 73 77 80 83 87 91 94 95 96 101 99 95 102 106 110
37 33 33 28 29 28 31 31 28 27 28 31 34 37 39 42 45 47 48 52 55 58 59 60 60 62 67 70 73 78 83 85 89 92 94 97 98 102 100 102 109 111 113 115
39 38 38 37 32 30 33 30 30 30 32 36 39 40 43 45 47 49 51 55 59 60 61 62 64 67 70 73 78 83 87 91 93 95 96 96 102 102 101 105 110 114 117 117
41 41 40 40 36 34 33 32 33 36 38 40 42 44 46 47 49 52 55 58 60 63 64 66 69 73 76 80 84 89 93 94 96 96 98 101 102 102 106 110 114 119 119 119
43 43 42 41 38 36 35 36 37 40 43 44 45 46 48 50 53 56 59 60 63 63 67 69 73 78 83 87 90 93 94 97 98 99 102 102 102 106 108 112 118 121 120 116
43 44 43 43 42 40 40 40 42 44 45 47 48 50 53 55 57 58 61 64 65 68 70 74 79 83 87 91 93 95 97 98 99 101 101 101 105 108 112 116 119 119 117 117
46 45 47 45 46 46 45 45 46 47 48 50 51 53 55 58 60 63 66 67 69 71 76 80 84 88 91 93 96 97 98 99 102 100 101 105 108 111 115 117 120 118 117 114
49 48 49 48 48 49 50 51 51 51 51 51 53 56 60 63 65 68 69 71 74 78 82 85 89 92 94 96 96 97 100 101 99 102 105 108 110 115 116 118 117 117 112 109

GFSCGP_250_spd_027.txt.gz
Wind_Speed
26 19 15 8 12 15 20 20 25 29 29 35 42 35 30 38 43 39 36 33 40 50 52 55 53 53 53 49 49 53 57 57 60 62 64 69 73 70 69 71 65 70 71 73
28 16 12 10 14 15 22 24 27 33 29 24 31 37 29 35 31 30 34 32 36 41 49 60 58 52 59 56 51 54 55 62 64 61 61 64 67 67 64 61 63 66 67 66
26 17 12 11 11 17 22 26 30 30 34 29 28 28 31 32 32 33 33 36 38 38 41 47 51 58 50 54 53 55 59 59 60 62 60 56 54 54 57 59 61 61 59 60
21 19 12 10 10 14 18 25 31 31 36 27 28 33 31 29 29 29 33 34 34 32 35 38 49 58 57 58 55 52 51 53 50 49 48 49 52 50 54 55 54 55 59 64
19 17 10 9 12 12 18 19 24 27 36 35 33 34 29 29 29 31 32 34 38 33 36 38 39 43 43 45 47 47 45 42 42 40 41 42 44 46 47 48 53 57 61 62
20 17 12 9 10 15 17 21 22 25 31 30 28 28 30 30 31 32 33 37 37 37 38 38 40 45 45 46 47 37 34 34 37 38 34 40 45 47 49 53 56 60 62 65
21 17 14 13 10 13 16 18 25 27 32 30 34 33 33 34 33 34 34 35 35 36 38 36 36 38 41 43 41 33 31 31 37 37 40 45 48 50 54 57 59 63 66 67
25 18 15 17 15 13 15 19 25 29 31 29 28 28 26 29 30 31 34 36 37 39 39 38 34 34 33 31 25 29 29 32 38 42 46 48 51 54 56 59 63 65 68 70
29 22 19 20 17 15 17 19 21 27 29 29 29 29 27 29 33 33 31 34 38 40 35 34 30 30 28 26 28 32 34 39 44 45 47 50 53 55 58 60 64 68 69 68
35 25 21 20 24 21 15 18 22 26 26 28 29 31 31 30 31 31 28 32 29 28 29 28 29 29 32 33 33 33 39 42 45 47 51 52 53 55 59 64 67 66 68 70
38 26 22 22 24 21 21 20 21 22 26 26 27 31 34 32 31 35 32 30 26 28 29 25 23 24 28 30 33 38 42 46 47 48 50 51 54 58 63 64 65 69 72 75
38 26 23 24 20 22 24 25 23 25 30 31 31 34 34 31 31 30 25 26 25 26 24 25 27 29 30 34 39 44 46 46 47 50 52 55 60 63 66 68 70 72 76 81
36 29 23 22 23 22 26 25 27 25 25 27 27 30 22 26 27 24 25 28 27 25 26 30 30 32 34 37 40 43 47 51 54 55 58 60 65 69 68 69 74 79 84 87
33 31 27 23 20 19 25 25 22 23 23 24 24 22 22 24 26 25 27 26 27 28 29 28 30 34 37 38 41 43 52 55 58 60 62 65 70 70 71 74 80 85 87 89
34 29 30 26 20 20 22 23 24 23 24 23 25 23 24 20 27 28 28 29 31 28 27 31 34 38 38 42 47 52 55 58 61 63 66 70 71 72 74 79 84 87 89 90
35 31 28 27 26 23 22 25 26 22 22 22 24 25 24 25 30 30 33 30 29 30 34 36 38 40 43 48 51 54 58 59 62 66 70 72 74 77 81 85 87 89 90 92
36 33 28 28 27 25 23 29 22 21 22 25 28 32 29 29 29 30 29 29 32 35 37 39 43 45 49 52 54 57 59 62 65 69 72 75 78 82 87 89 90 93 93 96
37 32 30 30 26 25 31 25 25 26 26 27 29 30 28 27 28 30 31 34 36 38 41 44 48 51 53 55 58 60 63 66 70 73 75 79 84 89 91 93 94 96 97 98
39 38 33 31 27 26 29 26 27 26 26 28 30 29 29 27 29 33 36 37 40 43 46 49 52 54 56 59 62 63 66 71 74 77 80 84 89 92 94 96 97 98 99 98
43 40 37 31 29 28 34 27 29 26 26 30 29 29 29 31 32 36 39 42 45 47 49 52 54 57 60 63 65 67 71 75 79 82 86 90 93 96 97 97 99 99 98 104
46 39 35 34 30 32 37 32 31 31 34 30 31 31 31 32 36 39 42 45 48 51 54 55 57 60 63 66 68 71 75 79 83 87 91 94 96 97 99 101 99 100 104 107
45 40 37 36 33 37 38 36 35 37 37 35 34 35 36 38 41 45 48 50 53 55 57 60 64 66 69 72 74 78 81 85 88 92 95 97 99 100 101 100 101 105 108 109
45 45 40 37 37 39 42 41 40 41 41 41 39 39 41 44 47 49 51 53 56 58 61 64 67 70 73 75 78 82 86 90 94 97 98 98 99 100 99 101 106 109 110 110
46 44 41 39 39 40 45 45 43 44 45 46 46 46 47 49 51 53 55 58 59 62 65 68 71 75 78 79 82 85 88 92 95 97 97 97 100 100 102 105 110 109 110 112
46 41 38 40 43 41 44 46 45 46 48 50 51 52 53 54 55 58 60 62 64 68 70 73 76 79 81 83 85 88 92 94 95 96 97 99 100 102 107 111 110 109 112 114
45 42 41 44 45 44 47 47 47 48 50 52 54 56 58 59 60 61 65 68 70 73 76 79 81 82 83 85 88 92 92 94 96 99 100 101 103 108 110 110 109 113 115 116

GFSCGP_250_spd_030.txt.gz
Wind_Speed
61 39 29 18 8 13 9 12 12 15 14 21 26 32 32 29 30 28 36 43 44 44 43 41 44 39 48 52 56 57 59 62 60 62 60 65 68 69 72 75 76 76 73 73
54 37 25 21 12 10 13 14 16 16 19 14 29 32 37 31 27 32 26 35 44 46 44 41 39 42 43 48 47 52 54 56 55 58 61 67 72 78 81 79 78 75 68 66
50 41 25 23 12 13 15 16 15 16 20 17 23 31 33 33 35 28 32 35 40 34 43 46 49 49 47 50 55 58 58 60 65 66 63 59 65 70 72 68 62 56 57 57
49 49 26 23 15 10 11 14 18 20 21 25 21 19 31 34 29 33 31 31 33 37 34 36 38 42 42 44 47 51 48 45 48 51 56 58 58 56 55 54 54 52 54 56
50 50 26 21 19 11 11 11 17 20 23 26 29 26 25 25 31 34 32 33 34 36 39 40 37 36 32 34 35 41 45 49 54 51 55 55 52 51 52 50 50 54 56 58
50 45 35 23 21 15 14 14 16 21 24 26 25 34 31 27 29 30 31 31 33 36 37 36 38 37 37 37 37 39 29 39 47 50 49 45 47 48 49 50 53 57 59 63
49 48 44 25 23 19 16 17 20 21 23 25 28 29 30 25 25 28 32 34 36 38 39 38 37 38 40 41 40 37 37 44 44 41 42 45 44 46 50 53 56 59 63 65
48 47 44 33 25 23 17 16 20 23 24 25 27 28 27 27 28 32 33 32 30 33 36 38 38 37 39 37 39 41 36 37 40 38 40 44 45 48 53 56 58 62 64 64
44 44 48 41 25 24 21 14 15 18 21 24 25 28 26 26 28 30 30 30 33 35 35 37 38 37 40 37 35 36 29 34 38 38 43 45 47 51 55 59 61 64 64 67
45 46 50 43 28 24 20 19 16 19 22 22 25 28 29 26 29 31 33 36 37 37 38 39 38 36 35 34 35 32 34 37 36 40 42 45 51 55 56 60 62 64 65 69
45 45 45 42 29 21 18 23 22 17 22 26 26 30 32 32 32 33 36 38 38 38 37 36 33 31 32 33 28 28 31 34 39 42 48 50 52 55 60 62 63 65 68 72
43 47 44 42 30 23 20 23 25 26 28 28 30 37 35 36 35 36 38 39 39 37 33 34 30 29 25 25 27 30 34 39 42 43 46 48 54 58 61 64 66 69 72 73
43 45 43 40 31 25 20 19 22 31 32 30 30 35 32 38 38 39 38 36 32 32 33 31 29 25 26 29 30 33 36 41 43 44 50 55 57 59 63 67 69 73 76 78
42 43 42 40 33 21 21 22 23 22 26 27 29 27 23 26 28 29 30 31 30 31 32 31 26 26 30 32 31 37 41 45 47 52 57 60 62 65 68 70 74 79 79 82
43 45 44 39 34 24 19 23 23 22 24 24 25 27 26 25 24 30 33 33 33 33 32 28 26 30 33 35 35 40 44 50 53 58 62 65 67 69 71 75 79 80 82 86
45 42 44 42 38 34 20 21 25 28 26 25 27 29 29 26 24 27 31 35 38 38 32 29 32 33 36 39 42 46 50 54 59 63 65 67 71 73 75 79 80 83 86 91
42 46 51 47 38 33 23 30 23 25 23 24 27 30 29 27 27 30 34 38 37 37 35 34 35 37 41 43 47 51 55 59 62 65 67 70 75 76 79 81 83 86 91 94
44 50 49 46 41 34 33 29 25 23 27 24 26 28 29 29 31 32 34 35 36 36 36 38 40 42 45 48 52 56 60 62 64 66 71 74 77 79 82 84 88 92 96 97
44 47 49 48 42 37 31 34 26 20 23 24 26 27 29 30 30 30 32 33 35 38 40 42 44 46 50 53 57 60 62 64 67 71 74 77 79 82 85 88 91 96 98 101
45 49 50 50 43 39 36 34 31 26 24 32 28 27 28 30 31 29 31 35 38 40 43 45 47 50 54 57 60 62 65 68 72 73 76 79 81 84 88 91 95 97 98 100
49 48 50 49 43 38 37 39 32 28 40 34 32 32 32 31 32 34 35 36 39 42 45 47 51 54 57 59 62 66 69 71 74 76 79 82 85 88 90 94 96 97 99 102
51 52 50 52 45 43 42 37 38 39 38 35 33 35 37 38 38 38 39 41 44 47 50 52 54 57 60 63 66 69 73 75 78 80 83 86 87 90 94 96 97 100 104 104
52 55 54 54 52 49 48 43 40 41 40 38 37 38 40 42 43 44 45 47 49 51 54 57 60 62 65 68 69 72 75 79 83 86 88 90 92 95 96 98 100 105 106 108
56 56 54 53 54 52 49 44 39 40 42 42 42 42 43 45 46 49 51 53 55 57 60 62 65 67 70 71 73 77 80 84 86 88 91 93 95 96 98 101 104 107 109 111
57 56 54 52 51 51 47 41 40 41 42 43 45 45 46 47 48 51 54 56 59 61 64 67 70 72 74 76 79 82 84 87 89 91 92 94 97 99 102 105 107 108 113 116
57 56 58 54 55 51 48 42 42 42 43 45 48 50 52 53 54 56 58 60 63 66 69 71 73 76 78 81 83 85 88 90 91 93 96 97 99 102 104 104 107 114 116 117

GFSCGP_250_spd_033.txt.gz
Wind_Speed
48 51 55 54 36 31 17 10 9 8 6 7 11 19 19 16 21 16 19 30 33 31 29 30 32 31 36 37 40 43 49 42 46 55 57 55 58 62 60 66 68 68 73 75
43 48 52 50 38 32 16 13 13 13 10 9 12 16 20 20 21 18 17 19 34 37 29 29 31 37 33 41 38 44 50 51 52 55 60 58 60 64 67 69 70 74 72 75
41 46 50 46 46 30 24 8 12 12 13 12 10 21 22 24 25 29 22 21 26 38 34 27 32 34 36 39 49 52 55 55 51 55 57 63 62 64 67 68 72 74 77 76
42 46 48 46 46 34 27 15 10 15 14 14 13 16 26 27 31 30 27 28 20 33 41 38 40 39 42 42 44 46 47 48 53 57 60 65 63 57 59 65 66 67 70 66
40 41 44 46 42 38 26 22 11 13 17 18 20 21 19 25 33 32 32 32 32 28 28 37 40 41 43 49 46 41 40 45 38 38 46 49 52 51 53 57 59 57 57 55
40 44 45 41 42 42 28 23 18 15 17 19 22 29 28 23 20 23 30 31 30 30 29 30 30 31 31 32 33 33 32 34 36 37 40 43 49 55 51 50 52 52 53 56
41 41 43 46 40 37 31 23 23 20 19 20 22 28 28 27 29 26 25 25 27 29 30 29 30 31 32 34 33 31 31 30 29 40 41 49 47 48 50 51 51 55 58 60
41 40 40 44 40 36 34 25 21 19 20 20 23 28 19 22 26 27 24 24 25 30 31 32 31 32 33 36 35 34 33 30 27 40 42 49 45 48 49 50 54 57 56 61
41 38 42 46 44 35 37 23 22 18 18 22 24 28 26 24 26 27 29 29 30 28 29 29 30 32 32 33 35 36 35 36 38 46 48 46 49 50 52 54 57 57 61 66
39 34 40 48 40 34 36 23 21 23 21 21 24 27 29 28 30 32 31 31 31 29 32 33 34 33 31 34 35 36 37 35 37 41 44 47 48 49 51 54 56 58 64 68
37 35 36 44 39 34 36 25 24 23 23 22 23 29 31 31 33 32 35 35 34 34 36 37 37 36 36 35 34 34 35 35 33 35 40 42 45 50 51 54 55 65 68 70
38 36 37 40 41 35 34 28 22 19 26 27 28 35 28 32 34 35 38 40 40 38 40 41 39 37 35 34 33 33 31 27 28 32 38 41 41 46 50 54 63 68 69 70
40 37 37 39 40 32 31 33 26 21 24 33 36 40 30 32 36 38 38 41 43 42 42 43 38 34 35 34 33 32 29 27 34 37 40 46 51 53 59 65 69 67 70 73
42 39 40 41 41 34 37 34 29 25 20 24 32 39 35 32 34 38 39 42 43 42 36 35 34 33 35 35 34 36 33 35 36 41 46 51 56 61 64 67 67 68 73 77
45 41 39 43 43 37 37 30 29 29 27 23 28 28 32 27 26 28 31 34 37 36 33 32 35 34 32 35 37 37 36 40 41 47 51 57 60 64 66 67 71 74 78 80
40 39 39 42 44 40 37 33 33 33 32 28 26 28 33 28 29 30 33 35 37 38 36 34 33 35 36 37 40 42 43 46 49 53 56 60 64 66 68 72 76 79 81 84
42 41 40 42 46 39 41 37 31 28 29 27 23 29 32 30 29 31 31 32 35 38 38 39 41 39 39 42 43 45 47 49 53 56 61 65 67 69 72 76 79 82 84 87
45 44 44 42 43 40 44 36 31 27 26 29 29 32 32 30 32 32 30 34 37 39 42 42 42 42 41 43 46 48 51 54 57 61 65 67 70 73 76 79 81 84 86 87
46 46 43 42 43 38 44 40 38 28 28 34 34 31 28 27 25 27 30 34 35 38 40 41 41 43 45 47 49 52 55 59 63 65 67 70 72 76 79 81 83 86 89 92
49 47 46 45 45 38 45 41 36 33 34 32 31 30 28 28 28 29 29 31 33 36 39 40 43 46 49 52 54 57 60 62 64 66 69 73 77 79 80 83 85 88 92 95
48 49 45 44 43 39 44 43 39 39 38 39 35 36 36 35 36 37 36 34 33 36 40 43 46 49 52 55 58 60 61 63 66 70 74 75 77 81 83 86 89 92 95 97
47 47 46 46 45 44 47 45 44 44 43 41 37 40 40 39 40 40 39 40 40 42 43 45 47 50 53 55 58 62 64 67 71 74 76 79 81 83 86 89 93 95 97 99
47 47 48 48 45 47 48 48 46 47 43 40 38 38 42 43 43 43 42 42 45 47 48 50 52 55 58 60 62 65 67 71 73 76 79 81 84 87 91 93 97 99 99 101
47 47 47 47 47 48 49 53 51 49 49 45 43 39 41 43 44 45 45 46 47 48 50 52 55 58 61 63 66 69 71 74 77 80 83 86 89 92 96 98 99 100 103 105
49 52 48 46 49 52 52 53 52 53 47 46 46 42 41 42 43 45 46 48 49 52 54 56 59 62 65 67 70 71 74 78 81 85 88 91 93 96 97 99 101 104 107 108
50 51 51 50 54 53 54 55 55 55 54 52 46 43 43 42 42 42 44 46 50 52 55 58 61 64 67 70 72 74 76 81 84 87 89 91 94 96 99 102 105 107 110 112

GFSCGP_250_spd_036.txt.gz
Wind_Speed
39 38 43 43 50 47 38 31 22 9 8 8 5 9 14 19 23 28 15 25 29 22 32 24 27 21 23 25 38 30 36 41 46 45 50 52 49 56 56 65 60 69 68 68
40 40 41 42 48 46 40 30 31 15 10 8 8 9 11 19 24 21 17 23 23 20 28 30 26 32 19 29 35 39 40 44 46 49 51 49 60 62 56 59 62 64 64 69
40 41 42 43 44 47 38 29 28 29 11 11 8 9 13 19 19 21 16 27 24 32 32 32 33 34 34 29 33 43 36 43 51 52 52 62 60 59 65 65 66 69 76 75
41 40 40 44 44 43 35 29 23 29 18 13 10 10 15 18 18 23 20 22 21 24 37 37 38 33 32 37 39 37 38 42 53 51 52 58 59 63 65 69 69 71 73 71
39 41 39 44 45 42 45 33 21 24 23 18 15 16 13 16 21 21 23 26 24 20 22 34 41 39 42 39 38 41 42 44 43 48 54 56 61 60 61 65 63 63 66 66
46 47 40 45 45 41 45 32 24 21 23 22 21 20 18 16 16 21 26 27 29 28 26 26 26 31 38 40 42 43 44 44 47 45 41 45 44 44 46 46 50 53 57 56
59 49 44 46 45 40 42 32 27 20 21 24 23 24 22 23 25 22 25 26 26 29 28 26 28 29 31 33 33 34 30 29 29 31 34 39 39 45 47 51 52 54 54 56
59 63 52 42 44 38 41 33 30 20 20 21 23 28 24 25 26 25 25 25 24 27 32 33 31 31 32 33 33 32 33 31 26 31 35 36 38 42 48 52 55 56 57 59
55 67 55 38 40 37 38 37 32 23 21 22 23 28 25 21 23 22 24 25 25 27 28 28 31 33 33 33 32 33 33 33 34 36 41 44 42 46 51 54 57 59 60 63
54 61 49 36 37 35 38 38 30 27 23 24 26 28 28 20 25 26 25 24 28 30 33 32 32 32 33 35 34 34 33 36 36 41 48 52 55 55 54 55 56 56 61 64
50 54 49 36 35 36 35 33 30 31 24 24 27 30 30 22 25 26 28 30 30 32 32 34 34 34 35 35 35 34 35 37 37 38 47 53 52 51 50 52 54 57 62 64
47 44 52 36 35 34 35 38 36 30 29 27 29 36 33 29 28 31 30 31 31 33 35 37 38 38 38 38 39 41 39 36 38 41 43 45 53 50 47 51 57 61 63 63
46 39 43 36 35 33 37 40 37 30 28 24 28 36 36 36 35 36 35 34 36 38 39 40 40 42 41 42 42 39 38 39 39 41 42 43 42 46 50 56 61 63 67 70
45 41 41 39 36 36 39 38 37 28 26 29 28 32 33 31 36 41 41 39 39 40 40 43 42 41 40 38 39 39 41 42 43 40 39 42 47 49 55 59 64 69 71 74
50 41 43 41 37 35 36 40 39 35 30 26 30 28 34 28 28 34 39 39 37 36 33 33 34 36 37 37 38 40 45 45 42 43 45 48 51 55 60 64 69 73 75 77
54 49 45 42 39 34 34 41 36 35 31 28 30 29 33 28 28 31 33 33 36 36 37 38 40 38 39 40 42 41 40 43 48 50 52 54 58 62 65 69 73 74 76 79
53 49 47 44 37 33 38 41 38 38 33 28 28 32 33 33 32 32 32 33 35 37 39 40 41 41 41 40 41 43 43 46 51 53 55 58 62 65 68 71 73 76 80 83
55 52 48 43 35 34 43 39 42 38 34 29 27 28 31 35 36 34 34 34 34 35 39 41 44 46 46 44 44 43 42 45 50 54 58 61 64 67 70 73 76 80 83 86
54 49 46 43 37 40 43 48 41 38 40 25 28 26 27 32 37 38 35 35 35 35 34 35 38 41 42 43 44 44 45 48 52 56 60 64 68 71 73 76 80 82 84 87
51 50 46 42 40 42 47 45 46 38 42 30 30 31 31 31 34 36 36 37 36 36 35 35 36 38 40 42 45 47 50 53 57 60 64 67 70 72 74 77 80 83 86 88
52 49 46 46 42 44 47 46 47 39 44 38 37 35 35 33 33 38 41 41 41 40 40 42 42 41 41 43 46 50 54 56 59 60 63 66 69 72 75 77 80 83 86 89
53 52 49 46 43 42 50 49 44 44 40 42 42 42 42 40 38 35 40 44 45 45 45 45 44 44 45 48 50 52 54 57 59 62 64 67 70 73 76 79 81 83 85 89
53 51 51 51 49 48 48 47 45 44 43 42 47 45 43 43 43 42 39 42 45 46 48 48 48 48 49 49 51 53 56 58 61 63 66 68 70 72 74 77 80 83 89 93
55 54 53 53 48 49 47 48 45 46 45 46 49 47 48 49 50 49 45 43 47 48 48 49 50 50 51 53 54 56 57 60 62 63 66 69 73 76 77 79 82 87 94 98
55 55 52 49 49 50 46 45 45 46 49 50 50 51 52 53 53 50 50 48 49 49 48 48 48 47 48 50 53 57 60 63 65 67 70 71 72 76 79 83 88 93 98 102
50 53 54 51 55 50 47 48 47 50 52 52 54 55 56 57 56 53 52 54 53 51 51 49 48 48 50 53 55 58 61 64 67 70 71 73 79 83 87 90 92 98 104 103

GFSCGP_250_spd_039.txt.gz
Wind_Speed
43 43 41 43 40 39 42 48 40 26 20 11 8 5 11 15 23 26 23 25 23 20 19 22 19 13 15 23 24 27 32 38 38 34 47 43 47 49 56 55 54 50 61 65
44 46 49 42 46 40 41 44 45 29 19 19 7 8 13 19 25 28 21 30 28 29 27 28 23 30 20 23 26 31 29 39 46 47 38 44 53 49 50 58 58 62 62 62
46 48 46 47 46 45 46 44 48 32 20 18 13 10 10 21 26 28 22 27 33 36 35 32 26 31 28 27 29 33 41 32 34 39 52 53 56 55 52 53 62 67 67 72
47 47 47 50 55 54 55 46 46 36 24 16 17 13 11 15 26 27 25 20 32 33 35 37 37 31 39 35 32 33 36 45 44 43 45 52 53 59 62 66 64 65 69 71
46 49 48 51 52 52 57 56 44 39 28 20 15 17 14 14 19 22 30 26 23 29 37 41 37 37 39 40 42 37 34 45 46 46 46 48 53 60 65 68 72 71 74 81
51 51 51 54 53 51 54 55 41 45 36 21 18 17 16 16 16 23 27 31 29 30 28 25 30 42 42 41 41 40 40 43 45 48 52 52 54 56 52 57 61 67 70 72
51 56 56 55 54 50 52 53 41 44 36 27 18 18 18 22 23 23 24 27 32 33 33 32 30 28 30 34 37 39 42 44 45 47 49 47 48 42 53 51 57 61 61 61
56 60 45 50 53 51 50 49 37 41 38 31 23 21 17 24 25 28 29 30 31 33 34 32 33 32 31 32 35 37 37 40 41 38 40 37 42 43 47 47 51 55 58 58
61 58 57 50 40 46 43 48 40 34 40 40 30 25 21 19 24 27 31 34 33 35 31 28 28 32 36 39 39 38 37 37 39 37 40 43 43 44 48 50 51 50 53 56
62 50 56 43 41 42 43 47 46 36 37 42 36 28 26 22 20 24 28 31 34 33 31 29 31 33 33 33 33 36 36 35 37 38 41 44 50 52 57 56 58 60 62 65
61 57 46 46 43 52 39 37 39 37 35 40 39 31 26 23 23 25 27 31 32 33 32 34 36 37 37 34 35 37 38 38 39 40 41 46 50 52 56 61 66 66 66 66
65 55 50 54 53 46 40 37 37 37 36 38 37 33 26 26 23 31 29 30 34 36 37 38 39 37 37 38 38 40 43 42 42 43 42 47 49 49 59 62 62 64 66 66
72 65 53 54 49 45 42 38 38 39 34 36 35 38 29 27 24 25 30 33 34 34 36 38 39 40 41 41 44 44 43 44 46 45 44 44 45 46 49 54 62 67 68 68
78 69 54 46 51 50 42 42 41 38 36 35 35 40 33 28 25 24 26 31 34 38 40 41 41 42 44 46 48 49 48 46 43 43 43 43 45 47 51 56 59 62 64 68
82 67 55 49 56 42 42 44 44 39 35 34 37 37 37 30 26 26 23 27 30 32 33 35 39 40 41 41 40 40 43 44 42 41 43 44 46 50 53 58 61 63 68 71
85 70 50 52 55 49 43 48 45 39 35 34 38 40 39 31 23 24 27 27 31 32 34 37 37 38 39 41 42 43 45 46 41 44 46 48 50 53 57 61 65 68 72 75
87 67 55 53 59 56 46 56 45 39 37 33 39 40 35 30 26 23 27 28 31 33 36 39 41 40 40 40 41 42 42 44 47 49 52 52 52 55 58 63 66 69 73 75
78 61 55 57 56 49 52 50 46 42 37 34 40 39 36 33 28 30 28 25 31 35 38 40 41 41 40 40 41 42 43 44 44 43 43 45 48 51 55 59 63 66 70 74
63 57 53 55 53 52 49 53 51 42 36 37 39 39 41 34 30 31 30 30 32 35 36 38 36 37 37 40 41 40 40 42 43 44 45 48 52 55 58 62 66 69 72 75
62 64 56 56 55 49 55 57 49 43 44 41 37 39 41 37 34 32 34 30 32 34 38 41 41 41 43 44 45 46 46 46 46 48 51 53 56 59 62 65 67 69 72 76
68 65 55 59 56 56 61 58 51 40 49 43 35 40 42 40 38 33 35 34 36 36 36 40 45 48 48 47 47 48 49 50 51 52 54 55 57 59 62 65 66 69 72 74
73 69 62 62 62 54 62 59 51 48 49 43 44 42 44 42 43 38 40 39 41 40 41 40 42 46 50 52 53 52 53 53 54 55 56 56 57 58 61 65 67 70 74 77
71 61 65 65 60 63 61 55 53 51 47 47 48 45 46 45 46 45 44 47 46 45 46 47 47 47 48 50 52 53 53 51 51 51 52 54 58 61 64 67 71 72 74 77
74 73 65 59 56 59 57 57 55 53 50 51 50 47 49 48 48 49 50 50 50 48 50 51 53 51 53 55 54 52 51 51 50 52 54 57 59 64 70 71 73 76 78 81
66 65 64 58 56 58 58 62 59 55 56 54 54 49 48 51 52 54 55 53 55 53 55 55 58 59 56 57 54 52 56 59 59 59 60 64 69 76 78 79 78 77 81 84
61 61 64 52 58 61 61 62 59 57 58 57 53 51 48 52 53 56 60 58 60 60 62 61 60 60 60 56 57 60 61 64 66 67 68 69 70 70 72 76 81 85 86 89

GFSCGP_250_spd_042.txt.gz
Wind_Speed
28 35 36 35 39 39 47 51 55 52 45 32 18 3 18 14 13 20 12 9 13 12 13 10 6 10 10 20 23 22 21 24 28 31 25 25 47 40 37 44 48 54 57 61
29 34 35 36 39 41 47 49 55 56 44 41 22 14 11 20 24 23 22 19 20 19 16 14 16 13 12 18 23 23 30 29 31 29 30 36 31 44 48 49 55 57 58 58
30 34 36 36 39 42 46 47 49 55 48 44 25 12 13 19 22 29 22 21 27 24 25 20 22 23 23 21 27 28 28 33 37 33 43 41 44 47 49 52 50 55 60 65
33 37 35 37 40 42 42 47 49 55 47 43 31 15 10 13 27 34 32 24 35 29 32 32 30 31 32 28 29 34 37 40 35 39 43 48 47 51 53 50 53 57 60 61
42 35 39 38 39 42 43 47 40 48 46 42 41 22 13 14 19 31 36 35 35 39 37 42 40 37 35 40 34 37 37 36 38 43 42 43 46 44 54 67 68 63 64 68
48 41 40 39 38 42 39 47 44 37 48 49 40 39 22 13 20 26 36 37 35 39 42 41 40 36 40 38 43 43 41 41 40 38 42 46 54 54 54 54 59 64 69 73
54 44 44 40 41 36 38 43 34 33 47 45 40 40 35 24 17 20 27 36 36 39 39 36 39 40 41 42 49 45 46 45 45 47 42 44 51 56 59 60 64 66 68 70
53 45 44 42 41 40 34 36 31 39 45 53 42 42 36 23 24 16 23 31 35 37 42 40 40 35 33 32 33 43 45 48 48 47 46 47 51 51 56 55 56 58 61 64
50 47 48 42 44 38 34 39 32 37 36 40 33 40 37 27 23 24 21 25 30 34 37 44 39 45 44 43 39 36 37 39 41 41 42 44 46 48 51 54 55 56 60 61
56 53 51 45 36 36 41 40 38 40 35 43 35 38 36 32 30 23 26 24 27 32 31 33 16 47 48 51 51 50 47 44 46 45 45 45 43 46 51 54 57 58 59 61
58 59 60 50 46 50 44 36 46 45 34 43 38 38 37 40 34 25 27 24 25 26 30 33 37 43 44 38 40 39 43 41 41 44 42 44 45 50 51 54 57 59 59 62
64 69 67 57 52 54 46 43 47 44 40 40 40 37 38 35 34 31 32 27 24 27 27 34 37 40 40 41 43 41 43 41 40 47 46 44 48 52 51 53 55 59 63 65
70 68 67 62 59 57 49 41 49 48 39 35 41 41 39 36 37 30 31 31 27 27 28 31 33 37 42 44 43 39 40 40 45 46 47 48 51 52 54 54 52 54 58 61
81 73 69 65 62 60 60 55 40 41 43 40 38 43 41 41 40 35 28 32 33 30 27 27 32 36 38 39 40 40 41 41 37 44 43 45 42 46 49 48 51 55 58 60
87 79 78 72 64 65 63 64 43 41 44 38 42 42 39 43 36 33 30 32 33 35 31 29 27 30 30 31 33 36 37 37 35 33 39 44 47 43 46 54 56 57 59 61
91 84 84 77 71 70 69 66 49 42 46 44 39 45 40 43 38 38 34 30 29 29 33 33 32 28 33 32 33 36 36 36 37 39 41 46 49 49 53 56 57 61 62 63
98 89 87 82 77 74 71 66 44 50 49 53 47 47 42 44 42 35 34 30 29 28 27 30 33 30 34 35 35 36 37 39 39 40 42 44 46 49 51 53 54 53 53 56
99 99 95 87 83 79 65 63 52 47 50 56 48 46 44 40 43 37 35 32 29 26 25 25 27 30 32 34 37 37 37 38 39 41 43 44 45 45 46 48 50 52 55 59
106 101 97 91 87 78 76 72 52 53 52 54 51 45 41 40 44 41 36 35 31 26 26 25 25 27 29 34 39 42 44 45 47 48 48 48 49 50 52 54 56 58 61 63
112 107 100 93 92 87 76 64 57 56 46 58 52 46 45 45 45 42 42 39 33 33 29 32 31 29 30 28 31 35 42 48 51 52 53 54 55 55 56 58 59 60 62 63
113 105 103 99 95 86 79 61 60 53 54 59 51 47 48 45 47 44 44 45 43 40 38 37 36 35 35 34 38 40 45 43 45 48 51 53 55 56 57 58 59 57 57 61
114 110 104 99 94 83 60 65 59 56 65 58 55 51 50 47 47 45 45 48 47 47 44 43 42 42 43 45 47 46 48 46 48 51 53 54 56 57 56 57 58 59 62 65
87 88 91 86 70 55 64 64 62 63 59 59 59 55 54 50 53 47 49 52 50 50 50 51 50 49 50 52 53 53 54 52 52 52 54 57 59 60 59 61 64 67 70 72
73 74 70 64 53 64 62 64 66 63 57 62 58 52 52 51 53 51 53 53 53 53 55 56 57 55 55 57 58 59 59 59 58 58 59 60 65 68 70 72 71 72 73 72
69 63 61 52 64 64 65 63 67 62 56 54 59 58 58 56 56 55 58 56 56 53 56 58 61 60 60 62 63 66 62 62 65 67 68 68 67 67 67 69 68 66 72 77
59 55 56 60 72 71 64 67 68 64 60 59 58 58 61 59 59 58 60 59 59 56 60 61 63 66 68 70 67 70 70 71 72 72 72 72 71 72 71 73 73 77 80 85

GFSCGP_250_spd_045.txt.gz
Wind_Speed
34 34 22 26 30 30 33 35 36 44 41 40 39 28 16 19 10 15 14 16 13 12 13 12 14 24 46 75 68 59 68 72 73 70 68 62 64 64 60 57 55 54 48 51
35 31 23 26 29 30 34 34 37 39 44 46 38 37 16 20 25 16 23 25 12 15 6 8 17 19 21 36 48 57 66 75 71 68 62 61 59 52 50 57 63 54 57 55
38 32 31 27 27 27 32 37 37 39 41 41 45 35 24 14 18 24 30 27 22 20 18 15 11 13 10 16 25 29 36 44 47 48 41 38 40 40 37 35 40 51 59 57
42 40 39 38 32 29 29 36 35 36 39 38 46 34 28 20 12 26 36 31 32 30 29 24 23 19 16 16 18 20 22 22 27 28 31 33 35 36 37 43 43 45 46 51
49 46 48 42 41 34 26 35 35 39 34 35 41 36 33 26 17 12 26 33 23 27 30 28 30 32 29 28 28 31 37 35 32 35 35 44 45 46 47 53 52 56 60 63
54 54 50 47 44 38 27 33 33 37 31 29 39 46 33 31 23 15 13 41 37 28 33 35 34 35 34 34 32 32 31 36 38 44 42 45 38 50 58 62 58 63 64 65
58 59 55 49 50 43 36 33 32 36 32 33 36 40 33 35 32 19 19 18 29 43 39 41 38 34 37 37 36 41 40 40 41 45 48 49 50 51 51 50 54 58 60 66
56 58 60 58 47 47 38 35 33 35 34 33 38 41 42 33 34 29 19 18 22 26 32 42 41 43 39 38 44 40 44 48 51 49 51 55 58 58 63 63 62 61 63 64
60 58 63 59 57 47 38 41 41 38 36 32 39 41 38 35 33 35 26 17 18 24 30 24 41 38 44 41 40 40 36 35 37 39 42 45 46 50 52 56 58 60 60 62
58 56 61 54 53 43 39 46 42 34 32 33 39 38 37 39 36 30 30 27 25 18 18 25 24 31 41 45 44 42 45 45 42 44 50 48 48 54 59 57 56 58 61 61
61 57 55 57 51 48 47 47 47 39 32 32 40 41 31 31 38 39 32 32 29 27 21 21 22 24 28 33 31 29 30 30 25 36 42 45 42 45 45 53 55 55 56 57
63 61 58 56 53 53 51 49 51 46 37 37 36 40 28 32 34 47 41 33 28 29 27 26 24 25 28 39 39 40 44 37 35 39 45 44 39 37 33 44 49 59 62 63
70 66 61 60 56 54 53 55 56 52 44 34 28 40 34 30 35 40 42 37 30 30 26 27 28 28 30 33 36 39 41 40 43 42 48 44 34 35 48 55 61 65 66 66
77 73 65 61 64 64 59 56 56 57 47 36 36 41 37 30 33 37 42 40 37 31 26 25 27 28 31 35 33 35 38 41 38 46 47 50 52 50 59 66 69 65 64 62
88 76 69 67 70 72 67 62 56 55 51 50 34 31 38 35 36 39 40 46 41 30 29 27 23 25 30 31 32 29 33 38 40 48 49 50 52 53 53 57 62 65 65 63
88 79 74 76 75 79 74 68 60 55 51 51 46 43 37 40 42 43 38 44 41 38 31 30 27 20 26 31 32 35 33 32 33 40 45 48 46 48 52 57 61 62 63 64
90 91 89 81 81 80 79 70 65 61 59 55 53 44 40 40 39 44 40 42 40 39 34 29 28 19 19 25 27 27 28 32 35 36 38 43 44 46 48 52 53 53 55 56
96 95 95 89 88 90 70 72 69 64 61 58 52 48 40 43 45 46 40 41 42 45 38 33 29 23 19 20 23 20 18 19 22 27 32 38 43 47 50 52 54 55 58 60
106 94 92 92 90 84 78 72 74 73 65 58 56 54 47 46 46 48 43 45 48 46 42 39 33 29 24 20 19 22 24 24 25 28 29 31 36 42 47 49 51 54 56 59
108 101 100 94 94 87 78 77 78 82 69 66 64 59 58 56 48 47 48 45 47 42 45 46 40 36 32 26 24 28 30 32 31 30 30 32 36 35 40 45 48 51 53 57
106 109 107 101 95 89 86 80 80 84 68 71 72 65 56 60 63 52 51 51 52 50 44 48 47 43 40 37 38 38 38 39 39 42 42 43 41 46 48 51 53 56 59 61
102 108 109 109 100 94 87 88 87 83 79 79 78 73 69 66 56 53 49 46 52 52 49 49 48 48 47 46 48 49 49 48 49 52 51 53 52 53 55 56 59 63 66 68
98 106 107 106 102 98 96 95 92 89 86 83 79 74 70 66 50 53 54 58 61 55 53 49 51 53 52 52 54 55 54 55 57 59 60 59 57 58 62 61 64 66 64 66
86 93 95 96 94 93 87 88 87 87 87 82 75 69 62 56 50 54 56 58 55 54 52 55 55 54 55 56 58 58 57 59 61 64 65 67 68 69 66 68 70 71 69 69
77 80 84 84 87 88 84 81 77 70 68 67 67 61 62 59 53 55 59 58 57 60 58 56 57 58 60 61 61 60 60 63 66 68 70 72 74 73 74 76 78 78 79 80
71 73 78 74 75 72 70 66 59 56 62 66 63 65 59 59 56 57 56 56 58 59 60 57 60 62 65 67 67 65 64 68 71 73 75 77 79 79 79 83 84 88 88 86

GFSCGP_250_spd_051.txt.gz
Wind_Speed
33 40 39 26 28 34 32 28 24 25 25 35 36 40 40 37 36 27 18 12 17 15 17 11 16 19 30 55 68 77 76 75 76 85 80 75 76 73 74 75 77 72 68 56
31 42 39 34 37 37 40 30 27 31 31 36 38 38 40 39 42 32 19 16 20 20 20 15 12 16 20 36 49 69 78 74 81 81 81 83 76 80 76 80 76 69 67 73
40 41 33 36 40 43 40 31 27 33 33 32 30 37 40 40 38 35 24 16 20 24 19 21 16 15 17 20 29 41 59 66 75 73 75 78 77 73 77 78 75 67 70 67
41 43 41 42 39 36 37 33 27 33 30 29 33 37 40 41 37 37 28 21 15 22 24 24 22 17 18 16 17 28 35 42 57 56 56 57 56 63 68 71 67 76 74 74
50 51 49 42 43 35 45 38 36 37 32 29 31 34 39 38 34 31 30 26 21 13 27 28 28 21 20 17 12 19 23 28 31 42 52 55 55 54 62 62 59 63 66 73
55 58 50 46 46 41 45 37 43 43 37 33 32 35 33 38 33 29 31 32 26 21 19 26 30 27 24 23 21 17 19 20 22 28 40 51 57 61 56 55 56 59 57 56
59 55 53 50 50 49 46 41 38 37 38 38 34 36 35 34 33 34 32 30 30 25 19 20 23 36 33 32 28 25 23 24 26 30 38 39 36 35 33 39 41 44 46 48
57 53 54 51 49 52 46 43 42 40 39 43 35 36 38 33 28 32 32 32 34 32 28 17 20 23 36 31 36 34 34 33 33 34 35 35 38 39 38 43 44 49 44 46
61 57 57 52 47 47 46 42 47 43 37 37 35 35 36 33 30 30 33 31 31 33 30 29 17 18 23 35 40 35 42 45 40 38 43 46 48 47 49 46 46 45 49 51
70 64 60 56 51 45 46 48 47 47 44 40 40 35 37 34 30 28 30 28 31 28 33 31 29 21 14 23 30 36 40 45 46 46 45 46 47 50 48 47 45 42 43 43
72 67 65 60 51 47 50 50 50 51 46 42 43 39 42 36 34 30 31 31 31 25 27 30 29 29 23 15 24 25 29 39 44 53 50 49 47 49 52 49 49 50 44 44
74 73 69 60 58 52 50 46 48 47 48 40 42 37 44 41 37 33 33 32 25 27 22 26 29 29 31 28 19 21 24 28 31 38 44 46 50 52 51 51 49 48 40 45
73 69 63 63 63 58 53 54 53 53 51 46 42 41 46 46 38 38 35 35 34 30 28 24 28 33 31 33 28 22 21 25 27 31 35 41 41 44 49 47 49 46 39 48
76 72 67 64 67 64 58 60 58 56 52 48 44 42 51 46 42 38 34 35 33 26 24 23 25 29 37 34 36 27 24 22 21 25 31 41 43 47 51 51 54 49 48 51
81 77 75 70 69 67 65 64 60 54 51 47 45 45 51 48 43 40 34 32 30 29 34 28 26 28 30 30 33 35 29 26 26 25 27 33 43 50 49 51 52 48 49 54
88 82 78 72 73 75 71 63 62 61 55 48 55 48 46 46 43 45 43 42 35 40 39 38 30 28 32 32 32 31 33 34 31 33 32 33 36 36 39 40 43 47 53 56
95 90 84 81 81 75 70 64 68 66 61 54 55 56 55 54 53 48 49 45 43 43 43 33 31 31 30 35 33 33 32 34 32 28 32 29 31 34 35 39 41 44 47 52
95 94 94 89 88 90 78 77 76 74 67 66 57 64 61 61 62 58 54 52 49 51 46 40 34 36 33 35 36 35 32 35 35 31 32 31 28 30 34 36 40 45 48 49
100 98 99 98 97 92 87 86 85 83 78 78 72 67 65 67 65 60 61 61 55 51 48 43 37 34 28 35 38 40 39 39 37 36 36 34 35 39 40 42 44 46 45 48
87 88 92 94 92 90 89 88 92 92 84 81 77 74 67 70 63 64 68 66 60 55 51 48 42 35 35 35 41 42 45 42 42 41 41 41 40 39 41 41 45 47 50 53
82 82 82 84 84 79 89 88 95 93 79 82 79 77 77 73 71 70 71 70 65 60 52 53 41 39 43 40 41 45 47 46 45 45 46 46 44 46 48 50 48 50 52 55
72 74 75 77 80 74 87 77 84 86 87 91 85 80 82 79 76 74 76 74 70 68 62 59 59 54 52 47 48 49 52 52 52 50 48 48 53 53 55 54 53 55 58 59
66 69 72 71 69 72 83 76 76 79 83 85 86 85 84 87 85 83 79 76 75 71 70 66 64 64 62 61 59 54 55 57 54 54 56 56 58 58 58 58 58 60 62 63
63 66 66 69 65 70 76 76 75 70 73 80 83 85 87 88 89 87 87 83 78 73 74 73 69 70 64 63 61 60 61 61 59 61 60 59 59 60 61 63 64 66 69 71
60 59 58 59 64 64 74 77 73 65 71 79 81 85 88 89 90 90 89 86 82 80 80 79 77 76 70 68 65 62 60 62 63 63 61 63 63 64 64 67 70 73 74 75
54 54 52 53 58 65 72 76 75 71 76 82 77 80 85 91 92 93 91 89 86 88 88 86 81 79 69 69 71 67 65 66 66 65 64 67 69 70 71 74 77 77 78 81

GFSCGP_250_spd_054.txt.gz
Wind_Speed
46 41 41 28 27 27 30 29 29 29 23 27 27 32 31 35 42 40 34 32 25 14 11 15 12 14 34 62 69 69 75 72 71 70 64 60 63 64 59 59 59 58 59 59
41 46 43 30 29 34 32 30 32 31 27 30 26 27 29 32 37 39 37 36 28 21 18 18 15 16 14 17 40 63 76 83 80 73 69 69 65 61 66 65 64 64 66 71
44 49 42 35 35 41 38 37 29 28 24 27 29 27 28 30 31 35 35 37 32 21 21 23 20 14 15 16 17 19 47 84 84 76 73 70 73 69 62 64 60 68 70 73
41 46 46 42 37 39 37 32 32 23 24 30 30 31 27 29 30 33 31 36 33 29 19 17 22 21 18 12 9 15 22 39 62 82 72 71 75 73 65 69 64 62 60 53
43 52 50 44 45 37 49 32 33 28 25 33 34 35 36 32 27 30 30 29 37 31 25 19 18 24 24 22 17 12 15 22 27 50 60 61 80 80 74 71 65 57 55 53
48 49 44 50 47 42 44 40 40 35 31 31 29 34 38 32 27 28 27 28 33 35 29 26 18 16 24 23 24 19 13 15 19 30 38 36 57 59 59 62 58 61 57 56
53 50 48 52 50 48 50 50 44 36 35 32 29 32 34 33 30 27 25 28 29 31 33 30 26 21 16 23 28 25 28 23 21 22 24 26 32 43 47 56 56 60 61 58
54 54 53 55 56 56 56 54 46 38 36 36 33 31 37 34 31 27 26 28 27 26 31 30 30 25 21 17 21 31 30 33 31 31 30 29 30 36 41 47 55 56 62 58
52 52 54 53 55 55 53 50 48 32 29 34 34 32 35 31 28 32 28 28 29 28 28 30 27 24 24 22 21 21 31 35 36 38 37 40 36 37 35 36 40 41 42 41
52 50 51 53 51 53 56 52 43 36 32 32 33 37 41 38 29 33 34 32 30 29 27 27 22 23 23 23 20 21 25 29 39 41 44 43 43 42 42 46 47 48 48 49
58 52 60 62 59 59 58 52 48 42 39 31 35 39 44 36 33 34 38 37 34 30 28 27 29 23 22 26 26 23 19 23 29 33 43 46 47 48 48 48 48 51 54 55
67 58 57 56 61 64 61 59 54 40 36 35 36 35 44 40 35 35 37 38 36 33 31 29 24 28 22 23 26 25 22 21 20 28 30 38 44 46 49 52 51 52 51 53
70 63 64 66 66 64 63 63 53 51 44 36 38 36 51 44 39 40 40 41 38 34 34 28 17 24 29 22 25 25 26 23 19 21 24 28 32 33 37 43 48 49 50 51
76 73 73 73 74 70 61 63 62 59 50 45 42 44 54 51 41 47 45 41 39 34 38 35 31 21 24 31 27 27 27 26 25 24 22 23 29 33 34 39 42 43 45 46
71 72 71 70 72 69 65 67 67 63 55 53 47 47 52 51 43 48 44 40 41 39 40 42 30 27 28 29 29 29 31 32 30 27 26 26 24 26 32 39 44 48 50 54
76 75 72 72 70 69 67 67 65 63 60 60 51 50 56 55 47 45 40 44 45 46 41 43 38 34 37 33 28 28 31 35 34 35 34 31 30 27 24 29 38 41 45 47
79 80 80 77 76 75 76 78 77 70 67 64 58 51 56 54 52 48 46 48 48 46 45 40 40 35 38 42 36 29 29 33 36 38 38 37 36 36 32 31 33 33 37 40
82 84 86 83 86 85 78 82 75 75 71 71 67 64 59 59 59 54 48 55 53 49 49 43 46 44 41 44 38 36 30 34 39 40 41 39 37 36 35 35 35 39 41 44
87 87 86 86 88 81 80 81 81 81 75 77 71 68 61 61 59 54 56 55 59 58 57 54 51 50 52 51 45 39 39 38 35 42 45 45 43 39 39 38 38 40 43 43
95 93 89 90 91 88 83 89 91 92 81 90 79 73 69 67 64 60 65 62 62 60 64 59 58 61 61 59 53 52 48 46 45 41 44 48 50 52 50 47 46 46 48 50
98 100 99 98 99 97 96 100 102 100 92 92 88 83 77 71 71 69 72 67 65 63 64 67 64 62 63 62 59 60 56 57 52 48 50 49 52 56 57 56 56 55 56 57
86 87 89 89 91 94 100 103 104 106 100 99 99 96 90 86 83 80 79 75 74 74 71 71 71 71 69 67 67 65 64 60 61 58 54 55 58 58 62 63 62 62 61 62
80 79 80 81 82 82 84 85 84 87 87 86 85 88 89 90 87 85 83 82 76 79 81 81 79 77 73 69 71 67 66 66 67 68 59 62 61 67 66 66 67 68 69 66
71 73 75 74 77 79 78 74 77 80 77 78 78 79 81 82 83 83 85 85 81 78 78 80 85 86 82 81 78 73 74 74 72 75 76 72 69 72 73 70 70 72 72 71
67 68 69 69 70 74 71 67 70 71 69 71 82 75 71 77 81 84 88 89 85 82 82 84 84 86 88 88 85 85 84 80 80 81 82 83 79 78 78 78 74 74 72 73
62 62 61 61 64 65 67 64 65 66 67 69 73 71 69 74 77 80 81 85 88 88 88 86 84 86 87 89 88 88 88 87 87 86 82 83 84 81 81 80 80 82 82 81

GFSCGP_250_spd_057.txt.gz
Wind_Speed
44 41 48 48 30 27 26 24 29 28 24 26 24 24 25 23 24 29 31 36 43 36 22 11 8 10 19 31 50 59 62 54 52 48 45 40 48 49 50 52 48 42 45 42
46 41 56 46 34 34 31 29 31 30 25 29 24 27 25 27 26 28 28 30 34 44 31 21 11 11 10 16 27 46 66 65 59 58 56 47 45 44 57 56 55 56 52 52
48 53 52 47 36 38 37 33 27 22 24 28 29 27 28 27 28 27 27 25 30 37 39 23 16 14 13 12 15 24 25 50 68 62 68 65 57 58 56 54 57 55 60 63
47 50 51 50 40 43 41 31 25 23 22 27 28 31 27 30 30 29 28 21 25 29 34 32 21 14 18 16 12 14 13 19 40 75 68 68 69 67 62 62 58 57 58 62
49 51 53 48 49 44 44 34 31 31 27 30 27 30 28 28 32 25 27 21 22 26 28 31 31 19 13 20 19 16 14 9 18 35 56 56 64 71 70 62 63 58 57 58
56 49 44 48 46 38 42 39 36 32 27 32 27 24 32 28 30 26 26 18 18 22 22 27 32 27 16 13 19 18 18 14 9 13 23 30 42 54 72 65 64 61 62 63
53 56 45 52 46 43 44 43 41 37 32 35 28 24 36 30 30 28 28 17 17 19 22 25 27 22 25 16 12 18 21 21 19 17 16 19 23 29 42 50 50 59 58 57
56 57 49 49 54 52 50 48 40 40 40 33 35 32 40 35 29 29 26 20 22 20 20 22 23 19 22 21 17 11 14 27 28 27 27 23 20 20 23 29 34 40 44 46
61 60 59 52 55 53 49 43 45 39 36 38 39 35 38 35 31 30 28 28 27 25 22 23 22 21 16 21 19 18 11 12 23 32 36 33 30 28 28 33 34 34 38 41
62 63 62 59 56 54 52 50 49 46 40 39 37 34 40 37 31 33 31 30 28 31 26 25 25 23 19 20 16 18 17 13 11 18 27 41 39 40 40 40 38 41 40 41
56 58 62 63 61 58 56 53 51 48 44 40 38 35 41 39 32 36 32 28 29 32 30 29 26 26 22 19 15 16 18 16 15 16 16 21 31 45 51 51 51 51 50 50
59 57 57 59 63 62 56 52 49 42 37 42 39 38 42 41 37 36 34 34 34 33 32 31 30 28 25 22 15 14 14 16 16 16 15 17 22 28 32 38 49 53 54 52
71 58 60 61 58 57 57 56 48 43 47 46 48 42 47 47 41 37 36 37 34 37 35 36 37 33 32 25 17 18 18 16 17 18 17 14 14 16 24 30 38 42 44 47
73 70 64 60 62 59 56 55 55 54 55 52 50 49 41 52 49 42 33 38 40 39 39 41 44 40 36 32 23 22 22 21 20 19 21 22 18 18 18 20 25 32 35 39
70 70 69 67 67 66 62 63 58 53 52 54 52 53 53 50 54 49 42 35 40 42 43 44 48 47 42 36 28 25 30 24 28 23 25 25 26 25 23 23 24 26 28 31
76 72 71 72 70 65 66 67 64 60 65 64 62 58 57 54 57 54 50 46 43 41 43 46 48 50 46 45 38 31 28 29 32 31 29 30 28 28 29 32 30 28 30 32
82 79 77 76 77 73 71 75 75 73 69 68 67 63 62 57 57 60 55 55 50 46 44 45 46 52 46 46 47 41 36 31 30 34 35 35 38 38 37 38 39 37 36 35
73 73 74 75 75 73 70 72 74 77 74 72 70 66 61 55 55 59 61 61 56 53 48 49 50 54 50 49 46 50 47 39 37 37 35 38 39 41 44 45 45 46 45 43
80 78 75 74 77 75 75 79 78 76 75 76 72 70 68 63 62 61 63 60 60 56 57 54 51 50 58 55 55 53 52 53 47 49 41 41 42 42 46 48 49 51 53 53
81 81 84 86 84 82 81 83 85 87 85 83 79 75 72 70 67 65 65 61 65 63 62 57 60 58 56 56 59 57 59 55 55 57 52 52 53 49 52 52 54 55 52 54
86 87 84 83 83 83 86 85 84 84 81 82 82 80 74 70 68 67 67 69 69 70 68 64 65 66 64 64 59 61 61 61 61 60 60 56 60 55 57 55 52 55 57 59
90 89 88 90 91 90 90 90 91 89 89 88 86 87 85 81 78 78 74 75 77 76 74 73 71 71 68 67 67 64 65 64 64 66 66 65 62 63 61 63 64 65 63 65
83 88 95 96 96 96 95 93 96 97 96 93 91 94 91 92 90 86 84 83 83 82 82 83 77 77 75 75 74 73 70 71 72 71 69 72 72 71 70 70 71 76 74 75
77 79 83 88 92 94 95 93 95 98 102 103 102 100 97 96 98 97 96 96 94 93 91 89 88 87 84 82 81 82 79 81 81 80 78 79 81 80 80 81 83 83 86 81
72 74 77 79 82 83 82 80 80 82 85 85 88 89 87 88 94 96 95 97 101 105 107 105 102 101 98 93 90 89 86 84 84 84 83 84 83 84 85 86 89 92 89 88
68 70 71 74 76 78 77 76 73 74 77 80 81 81 79 75 77 79 83 81 84 87 91 95 98 98 96 95 91 89 90 89 89 90 89 90 89 89 91 89 90 93 92 93

GFSCGP_250_spd_060.txt.gz
Wind_Speed
51 48 42 52 48 42 33 36 34 30 30 30 32 27 24 25 24 23 21 25 26 26 30 22 11 13 10 14 22 44 52 52 47 41 45 47 45 43 45 48 45 49 49 53
53 43 54 53 45 41 40 39 38 26 28 31 34 33 26 28 27 25 23 25 24 24 23 32 21 11 14 12 13 21 37 54 54 48 42 48 43 48 46 44 46 45 48 49
51 53 54 53 47 45 44 44 37 28 31 34 37 36 28 28 28 27 26 24 20 24 21 23 28 18 11 15 15 11 17 37 61 58 52 47 47 44 45 46 49 51 52 52
48 52 55 53 46 48 45 49 37 31 30 33 39 40 29 29 26 27 26 24 19 18 20 20 23 26 15 11 17 16 10 14 32 61 67 58 52 56 55 51 50 49 47 49
47 53 53 50 55 50 53 46 38 34 35 35 38 38 27 29 25 26 24 23 19 15 17 20 23 22 26 15 10 19 17 12 10 24 45 64 67 54 58 62 64 57 52 51
51 51 52 50 56 52 48 45 40 39 38 37 40 38 36 26 26 26 24 22 20 16 16 14 19 18 21 19 13 12 20 18 15 11 22 36 55 58 57 56 57 57 56 54
52 53 51 54 55 55 46 48 45 43 42 42 37 32 42 34 27 28 28 27 19 19 19 16 13 16 19 16 17 10 11 20 21 20 19 22 27 32 45 49 53 55 57 59
55 53 54 53 51 55 50 54 51 46 43 48 37 34 43 37 32 31 30 30 24 19 23 20 16 12 15 16 18 15 10 10 23 27 22 20 19 22 24 28 41 43 46 49
58 57 56 58 57 56 49 48 50 48 44 42 40 39 47 40 37 35 33 32 27 24 21 25 21 15 12 17 16 13 12 9 9 19 28 29 27 26 23 24 27 28 30 33
59 60 58 58 60 58 54 52 51 45 42 41 40 41 49 46 40 38 36 33 27 26 25 23 26 20 18 15 16 14 10 9 8 5 12 28 33 34 34 34 32 34 35 37
59 61 61 59 56 54 54 54 53 50 49 47 45 40 48 47 41 42 38 34 30 28 27 25 26 24 24 22 19 16 9 8 9 11 6 5 16 30 43 44 41 43 43 44
66 62 62 64 59 55 55 56 50 53 52 52 52 49 44 48 47 44 38 36 35 31 28 26 26 29 26 29 28 20 17 13 13 13 12 12 7 7 13 25 35 41 49 55
63 60 60 67 59 57 58 57 58 55 56 52 56 53 51 50 50 46 44 41 38 35 35 32 29 29 30 31 33 31 24 16 15 14 16 13 14 13 13 12 14 18 23 29
65 72 62 61 58 58 60 63 62 61 61 60 56 56 54 51 52 50 49 47 43 39 40 35 35 33 33 36 37 37 35 24 23 21 19 21 19 18 16 17 17 17 17 19
71 67 65 65 62 60 62 63 63 63 62 62 65 61 61 50 52 53 53 51 46 46 43 40 39 39 35 35 42 43 40 33 25 24 25 26 25 25 22 21 24 24 25 26
71 70 73 71 72 66 63 62 63 62 63 62 62 63 65 59 58 56 55 54 46 43 46 48 46 45 41 38 38 41 42 39 36 32 33 30 28 30 28 27 28 31 31 32
79 72 78 77 77 75 71 65 66 64 63 64 65 64 68 66 60 58 56 53 52 53 52 53 52 49 49 45 42 45 46 43 41 39 42 38 35 35 36 35 34 36 34 36
82 84 81 78 77 75 74 80 76 73 71 68 68 66 63 63 60 65 66 65 63 61 56 55 56 55 51 48 49 48 51 50 49 48 47 43 40 42 43 42 45 44 44 42
89 84 87 87 82 76 75 74 75 73 73 74 71 70 68 66 71 74 71 66 62 63 60 57 54 57 56 55 52 53 51 55 52 54 56 53 52 50 48 49 49 52 56 56
87 87 85 86 88 82 80 81 83 81 83 76 74 74 71 73 77 80 76 71 68 66 65 64 64 62 63 59 59 59 59 56 54 53 58 60 59 57 56 52 53 58 60 61
94 94 90 87 86 85 88 84 83 85 86 83 82 83 80 78 76 77 76 78 73 72 71 68 65 65 63 63 63 64 63 59 62 64 60 59 61 64 61 61 58 63 65 67
90 86 84 85 82 82 81 80 81 81 81 80 79 81 81 81 82 80 79 79 82 80 76 75 72 72 67 68 69 70 68 68 68 68 68 65 69 70 68 68 67 68 69 73
86 85 84 83 82 85 86 88 89 88 87 87 88 86 85 86 87 88 86 82 83 83 82 79 74 73 75 75 73 73 75 74 75 75 75 74 73 72 73 75 74 75 76 79
84 87 86 84 85 85 86 90 92 92 93 93 93 93 94 93 91 88 86 86 85 82 84 83 82 80 81 82 82 82 82 82 82 82 81 80 80 82 82 83 83 82 84 87
76 84 89 91 90 91 94 95 96 96 96 97 97 97 97 97 97 95 95 94 94 93 92 93 91 90 91 89 90 90 88 88 89 90 91 91 90 89 89 88 91 94 95 93
72 76 81 87 89 90 91 95 97 97 98 98 98 98 97 95 96 97 95 96 93 95 99 102 99 98 100 99 104 101 100 101 102 105 102 100 102 101 102 100 102 100 104 103

GFSCGP_250_spd_063.txt.gz
Wind_Speed
40 45 42 48 47 53 51 50 41 42 37 34 33 29 30 30 24 22 21 27 26 20 21 25 25 21 16 18 20 32 42 44 50 46 36 37 40 48 45 43 45 38 38 45
45 42 47 52 55 54 52 46 45 45 38 35 31 33 31 33 24 20 24 29 25 23 17 22 24 24 16 14 17 20 40 43 50 49 43 41 46 43 45 48 46 42 42 43
34 41 47 55 54 56 52 50 53 47 38 35 32 36 33 35 30 21 22 26 25 22 15 17 20 21 22 14 15 18 20 36 48 49 54 40 44 50 46 44 41 47 47 47
49 52 51 56 53 57 54 55 51 43 38 38 33 37 37 35 33 25 24 25 22 22 16 13 17 17 17 16 12 17 18 22 35 44 53 55 48 42 50 48 48 48 46 48
47 50 54 56 49 59 57 58 49 43 40 39 37 37 38 31 33 32 25 26 19 19 17 16 13 16 15 18 13 11 17 20 20 29 44 60 57 55 42 51 52 52 54 50
48 49 52 55 54 55 62 56 49 42 43 40 43 39 36 34 36 34 28 26 23 20 20 16 18 14 13 14 17 17 13 18 23 21 31 43 57 58 55 57 58 56 55 54
46 45 51 59 54 56 55 53 50 44 39 44 50 42 38 37 33 33 31 27 25 23 23 21 17 18 14 13 14 18 18 12 17 22 19 29 42 57 59 60 60 59 63 64
48 49 54 57 53 54 53 54 53 50 46 48 51 43 45 40 37 36 35 32 29 25 24 25 22 19 18 15 14 13 17 15 11 17 24 23 28 39 59 66 62 65 64 64
56 47 57 54 53 53 54 54 55 55 46 46 49 49 46 46 43 41 38 35 34 27 24 20 22 22 17 19 15 14 11 13 13 13 17 27 28 29 37 48 56 69 67 65
56 51 54 58 54 54 54 58 52 52 52 49 52 48 53 50 47 44 44 37 35 32 26 21 20 20 20 20 19 17 16 9 8 13 12 14 25 34 33 32 38 43 47 54
59 61 59 58 52 54 55 56 54 51 56 49 54 50 53 53 48 48 45 39 38 36 31 23 20 22 22 20 22 22 19 20 14 9 10 9 12 16 28 37 38 38 39 42
59 63 62 59 59 56 54 57 58 57 53 48 53 51 50 50 49 48 47 43 37 38 37 32 28 25 24 25 24 26 27 21 22 19 15 11 11 9 12 17 26 40 47 46
64 64 66 64 61 61 59 56 57 58 58 52 53 52 52 53 50 49 48 45 42 39 40 35 33 33 31 32 27 27 29 28 25 26 24 21 16 16 15 14 15 17 22 29
71 66 66 66 66 62 61 63 58 57 56 57 55 56 60 59 58 54 53 51 46 44 43 42 41 38 33 36 34 34 32 31 33 31 30 29 26 23 20 19 19 19 18 19
74 73 71 72 67 64 61 59 61 62 59 58 60 60 61 65 61 62 60 57 55 50 45 42 42 42 42 36 38 37 37 33 33 39 40 36 32 31 28 26 24 24 23 25
79 76 78 75 70 69 66 65 64 64 64 64 62 64 62 60 64 63 63 63 57 48 45 48 47 47 44 41 41 43 44 43 40 35 42 40 39 36 35 33 29 32 34 32
81 82 77 75 75 67 64 65 61 63 64 63 66 68 65 62 65 66 66 64 57 51 52 50 47 48 48 47 48 47 49 48 47 44 39 42 44 42 40 38 37 40 38 38
79 85 80 77 70 67 68 64 69 65 66 66 67 66 65 65 67 71 65 68 66 60 57 56 55 55 54 54 54 54 54 53 52 49 52 44 44 45 48 49 47 45 44 46
80 77 80 82 78 77 69 69 69 69 71 69 66 63 62 63 67 69 64 70 70 68 60 59 62 67 66 65 64 63 61 57 55 56 55 52 50 50 49 50 54 55 55 55
90 86 81 81 81 78 84 75 77 78 78 71 69 68 69 68 69 67 64 68 70 69 70 68 67 69 71 70 68 64 66 65 60 62 60 59 56 57 58 59 56 57 59 59
93 87 84 83 85 83 80 78 83 90 88 78 81 80 78 76 74 76 73 74 76 77 77 77 76 77 78 76 74 74 69 69 70 69 67 66 65 63 61 63 61 63 64 64
96 93 88 89 83 85 85 85 84 84 85 85 83 84 86 89 88 86 84 83 83 82 81 80 78 80 80 79 79 77 76 74 73 73 72 69 68 69 69 69 67 68 68 69
94 94 94 91 90 86 87 91 92 89 88 88 86 86 86 87 88 88 88 88 89 90 89 87 85 85 82 80 80 79 79 80 80 77 75 74 73 75 76 75 76 75 75 77
87 94 92 89 94 93 92 91 94 95 93 91 92 92 91 91 93 93 91 91 91 90 88 90 88 85 86 86 84 86 87 84 83 80 78 77 77 81 83 84 85 85 85 83
78 91 95 90 87 93 95 93 92 91 92 94 98 98 94 87 87 87 87 90 91 91 91 93 92 91 89 90 93 88 83 85 87 89 88 86 85 87 88 89 89 90 90 92
73 82 92 97 95 94 95 97 98 97 97 96 95 95 95 97 99 99 100 101 101 101 101 101 101 98 96 94 92 93 91 94 96 95 95 96 100 97 96 97 100 100 101 103

GFSCGP_250_spd_066.txt.gz
Wind_Speed
48 38 36 43 46 47 44 38 33 32 36 37 41 40 35 31 31 30 29 29 23 25 25 22 18 19 23 24 15 18 34 48 41 55 60 57 50 42 55 56 51 43 41 46
37 33 40 48 48 41 41 41 40 40 37 37 43 41 33 28 33 33 30 25 24 27 24 21 20 16 20 24 20 15 18 26 48 46 50 62 43 40 48 55 48 51 40 39
35 40 49 46 45 40 36 40 40 39 42 43 45 41 34 31 35 33 33 26 20 24 23 21 19 17 17 20 22 18 18 20 32 46 45 48 52 43 40 47 50 51 49 47
38 44 40 35 44 43 42 43 45 48 50 43 47 41 36 34 34 34 35 34 25 26 20 20 19 18 15 16 20 18 17 17 21 39 48 50 50 46 43 44 50 49 51 51
43 43 43 42 43 46 50 51 51 51 49 47 44 41 40 35 32 37 35 35 29 26 22 18 19 19 18 14 16 20 19 16 16 23 33 52 51 56 46 48 46 51 50 51
42 50 48 40 43 46 52 48 51 53 49 46 43 45 44 38 35 34 37 37 34 30 24 21 21 19 19 20 15 16 19 19 16 19 23 27 49 59 57 58 48 52 57 54
49 46 44 46 42 45 47 48 52 51 49 45 46 45 49 40 36 32 35 40 35 30 24 22 22 19 21 19 20 19 14 20 19 11 19 21 26 44 56 59 58 56 52 56
49 51 50 52 51 48 47 39 42 50 53 53 46 38 49 42 37 35 38 38 35 30 25 24 25 17 20 19 22 20 15 15 17 13 11 20 22 22 37 58 59 63 60 59
53 55 50 42 47 50 51 43 48 55 58 53 47 40 42 44 41 38 39 41 37 33 30 30 26 21 19 17 18 22 21 15 13 13 13 12 17 24 24 33 59 61 61 63
54 53 47 44 46 47 54 48 54 55 51 50 52 48 46 43 46 42 41 42 41 40 35 31 26 24 20 19 18 20 23 20 17 14 12 12 11 13 26 28 33 54 66 64
60 60 48 50 43 51 58 56 51 50 52 50 49 51 56 51 45 46 43 42 42 42 42 37 32 29 30 24 18 20 22 24 26 20 17 16 13 11 11 19 35 34 41 50
63 63 63 51 57 52 57 58 54 51 52 50 50 51 51 54 48 49 50 46 43 42 43 39 37 31 33 30 25 26 25 21 22 27 26 23 19 16 14 12 13 19 35 43
68 61 65 65 58 51 56 59 52 49 53 52 54 48 49 50 48 52 48 47 47 45 47 42 38 34 32 31 32 31 25 25 27 26 27 31 27 23 20 20 19 16 17 18
72 63 60 67 63 60 56 54 57 55 56 54 54 54 56 51 48 48 48 48 48 48 48 45 43 42 40 38 34 35 31 31 30 31 30 31 35 31 30 28 27 25 24 23
77 70 56 64 64 62 60 59 58 58 55 53 54 55 56 58 55 49 50 50 50 47 50 50 47 47 46 44 38 36 36 36 36 34 35 34 32 39 43 39 36 33 30 31
82 76 66 62 66 67 64 64 61 59 59 57 56 58 60 62 60 53 51 53 56 55 56 54 52 51 49 47 46 46 45 43 41 40 40 41 40 38 40 44 42 39 39 38
84 85 79 74 67 64 66 67 67 61 61 63 66 66 60 62 60 55 53 56 54 57 59 59 58 55 50 50 41 45 43 44 45 43 44 45 44 44 46 46 44 50 45 42
92 92 88 84 80 70 66 72 72 65 64 64 65 65 65 65 64 63 55 58 57 57 61 63 62 59 57 57 58 55 55 51 49 51 52 53 53 54 52 52 50 48 52 53
89 98 95 88 86 83 76 70 73 73 69 66 70 74 68 65 69 66 63 62 62 61 63 64 64 64 63 61 58 60 57 58 60 60 61 60 58 60 59 58 60 58 55 54
88 89 100 96 89 86 84 81 76 76 77 74 77 67 63 69 68 64 65 65 67 66 66 66 66 67 68 69 68 69 68 64 65 68 65 66 69 69 62 63 62 61 61 62
88 90 88 94 97 88 86 84 85 84 81 76 78 71 70 71 68 63 60 66 66 66 69 70 69 69 70 70 71 71 69 69 70 72 72 72 73 70 72 70 69 71 72 70
86 91 89 84 88 92 92 82 82 80 73 74 72 74 77 71 72 71 68 67 69 71 72 72 71 72 73 73 73 74 76 76 79 78 79 78 79 78 75 76 73 75 75 75
79 88 93 95 88 87 85 83 80 82 84 81 76 75 75 76 77 75 75 77 79 77 77 79 79 81 80 80 82 84 84 85 84 85 85 84 84 83 81 80 81 83 85 82
78 83 91 91 88 88 84 84 82 80 85 84 81 84 89 87 86 85 87 88 90 92 91 92 92 93 93 94 94 93 91 92 93 89 88 87 87 86 88 89 89 90 87 82
69 76 83 95 95 92 95 94 89 82 81 80 86 86 85 89 92 93 95 93 96 99 98 97 96 96 94 94 94 96 94 93 92 87 88 89 88 91 95 95 95 94 92 91
66 67 79 83 93 102 103 103 97 93 91 91 89 89 93 94 93 94 95 95 96 97 98 100 103 104 102 104 97 93 92 91 92 93 93 92 94 101 102 102 98 101 98 97

GFSCGP_250_spd_069.txt.gz
Wind_Speed
84 71 62 62 54 48 35 41 46 46 49 46 41 31 31 29 31 30 29 30 28 26 23 20 19 19 16 18 18 20 15 27 42 45 52 54 56 66 64 60 65 62 58 53
74 54 57 57 48 41 38 49 43 49 50 45 39 31 34 29 31 30 29 31 29 26 20 24 19 20 17 18 15 18 15 18 38 46 44 55 55 65 67 71 66 65 65 53
61 52 54 45 37 39 47 55 52 52 51 43 36 32 35 35 34 31 28 31 31 20 18 14 17 20 15 14 15 14 18 17 21 42 49 46 60 64 64 56 63 61 63 57
49 49 42 29 36 43 50 53 53 49 49 37 33 33 31 34 33 27 27 29 33 26 23 16 16 17 15 11 14 15 15 17 14 19 33 52 47 64 66 60 57 54 57 67
40 40 28 30 42 47 47 53 49 45 39 34 27 27 31 35 34 32 29 30 36 31 29 24 18 18 17 14 15 16 16 16 16 15 18 33 53 49 56 63 60 49 49 44
37 32 33 40 42 47 48 50 43 41 40 34 36 34 36 36 41 36 29 30 36 33 28 29 23 22 17 17 15 16 18 16 18 17 13 21 38 52 50 54 55 50 44 48
33 41 39 41 41 51 49 48 50 41 39 34 37 39 38 36 40 39 33 29 38 35 30 30 27 25 22 18 15 14 18 17 14 17 14 12 22 32 56 57 57 54 50 49
39 45 45 49 44 50 44 45 42 41 47 38 39 36 38 38 34 38 36 35 33 31 31 31 30 27 23 21 19 13 14 19 17 13 14 14 12 20 26 41 61 61 59 60
49 52 49 51 49 48 47 41 45 43 48 40 36 37 42 37 33 37 40 39 34 31 32 30 32 31 28 25 22 15 16 17 18 18 15 15 13 12 17 22 30 47 64 63
57 53 49 47 53 49 50 50 48 48 52 40 34 40 42 40 36 37 40 39 36 35 35 32 33 33 31 26 25 22 18 16 16 18 19 20 18 14 14 15 25 27 28 56
61 62 58 52 55 53 53 51 48 47 49 44 37 38 44 45 47 39 30 34 40 38 36 36 36 37 37 30 26 26 25 19 19 22 21 19 24 20 16 15 17 22 29 30
70 69 61 62 60 57 56 53 54 53 44 40 39 40 43 43 48 48 44 37 34 41 40 38 38 41 41 39 36 28 30 28 24 20 22 22 20 25 25 25 22 17 19 25
69 68 69 62 62 61 52 49 54 52 48 45 45 44 46 48 48 48 47 47 38 39 45 42 39 40 40 36 35 28 25 28 34 32 26 27 26 23 23 30 30 27 24 22
73 72 69 68 61 59 56 51 53 60 52 46 47 49 46 46 48 51 49 47 47 44 44 47 44 42 36 32 36 38 32 31 29 33 37 36 32 29 28 27 28 35 35 35
75 75 66 71 69 62 52 59 54 54 59 52 51 50 49 47 49 53 48 43 39 46 46 47 44 44 43 43 41 39 34 35 35 34 36 40 40 38 37 36 35 32 31 34
79 79 65 77 70 73 61 56 56 54 59 59 57 55 54 51 54 58 51 47 47 46 48 47 51 48 47 47 46 46 46 46 44 43 44 43 45 47 45 43 39 37 39 41
87 78 76 78 74 69 65 64 64 63 62 60 62 57 57 60 60 60 50 47 46 46 46 46 46 47 48 49 50 51 51 49 46 46 45 45 42 44 48 45 43 46 48 46
88 88 79 76 78 71 69 64 65 65 65 61 62 63 60 61 65 62 53 51 51 50 49 51 51 51 50 50 50 52 54 53 52 51 53 54 52 49 50 51 54 55 56 55
85 92 85 80 78 80 69 69 71 72 69 66 68 64 62 67 69 60 55 56 55 54 53 53 53 55 55 54 54 52 52 55 56 57 55 58 59 56 59 60 61 65 62 58
78 95 95 82 80 82 78 70 74 74 74 73 67 67 70 69 69 63 63 63 63 61 59 60 59 58 59 59 59 59 60 60 61 60 60 59 61 63 63 65 64 61 63 68
75 91 98 94 86 77 81 75 66 69 70 69 70 72 75 72 71 67 65 65 65 65 63 65 64 62 63 63 63 64 63 62 63 63 62 61 62 64 65 64 65 68 70 71
72 76 94 99 92 88 80 82 78 74 70 69 73 74 74 74 73 72 71 72 72 74 72 68 66 63 62 64 65 66 66 66 66 64 64 66 66 66 67 68 71 74 77 77
67 74 80 97 99 96 90 87 86 84 81 79 77 74 74 72 69 75 77 78 77 77 76 72 74 78 73 70 68 67 71 72 71 71 73 73 75 78 80 82 82 82 83 86
60 66 74 82 93 98 95 92 91 88 87 88 87 85 85 81 81 83 83 81 81 82 82 79 78 71 72 73 72 76 77 79 77 78 83 88 87 88 90 92 92 92 92 88
59 63 69 76 81 88 96 94 94 97 95 94 91 89 89 91 90 88 88 89 82 77 77 76 78 79 79 77 80 82 82 84 88 95 96 95 94 96 95 95 93 95 95 92
54 59 61 67 76 79 86 89 90 89 94 99 99 97 94 93 90 87 88 89 85 85 86 84 85 86 88 90 93 94 96 98 101 99 98 98 97 98 100 101 100 96 94 96

GFSCGP_250_spd_072.txt.gz
Wind_Speed
71 72 76 75 77 68 63 57 49 45 50 38 43 53 43 41 38 34 30 28 31 29 30 28 23 18 18 18 21 16 15 10 17 37 41 43 48 50 45 47 55 56 57 54
71 70 75 74 73 63 52 49 47 45 44 40 44 51 45 43 38 32 30 28 32 29 30 28 22 19 18 16 18 14 12 11 11 17 37 43 46 50 51 50 50 52 52 56
70 76 76 71 61 53 48 49 48 42 42 41 47 51 42 43 33 33 31 30 30 32 31 25 18 15 14 12 14 15 14 14 13 13 17 45 48 53 53 50 54 54 54 56
74 74 71 63 51 42 46 50 40 41 44 45 50 48 44 43 30 32 30 27 27 32 31 25 19 13 12 11 10 13 16 17 17 14 13 21 51 53 51 54 56 54 46 50
78 75 65 47 44 39 41 37 35 43 45 51 50 45 43 44 24 35 35 30 29 33 35 28 23 17 13 15 13 12 13 15 18 18 16 15 24 52 54 50 58 60 57 53
76 67 44 38 37 29 29 29 39 43 45 49 47 42 44 42 34 35 39 32 29 31 36 33 31 27 20 18 15 14 14 13 16 18 20 18 12 26 43 57 51 62 61 60
62 48 36 34 32 31 34 37 45 49 49 51 53 44 41 38 40 37 39 38 31 32 37 35 31 28 28 21 20 18 14 10 13 15 17 21 17 14 23 36 52 50 61 61
54 35 36 32 31 34 34 42 47 51 52 52 53 40 30 44 41 36 37 42 40 31 33 35 33 29 27 25 23 21 16 13 12 13 15 18 18 18 15 24 36 51 50 64
50 36 38 34 39 43 46 44 46 51 57 49 53 42 38 46 42 37 35 42 41 35 27 29 28 31 31 27 29 24 21 16 13 10 10 13 18 18 18 16 20 33 47 60
47 40 40 38 46 50 50 51 49 52 57 50 49 49 46 45 43 45 34 29 36 33 31 31 32 32 32 30 32 27 22 22 17 14 14 13 15 18 20 19 19 18 24 31
45 40 41 44 51 53 50 56 52 51 59 50 44 48 43 44 46 45 35 29 30 38 38 39 35 33 33 33 34 30 22 23 23 19 16 16 14 15 17 21 22 22 22 21
48 44 46 50 54 54 56 56 53 56 59 53 46 47 41 42 42 43 37 29 31 34 41 41 38 37 36 35 36 36 32 29 28 28 25 20 19 19 18 18 18 24 25 26
55 46 50 55 61 57 62 60 56 53 54 55 48 42 42 40 40 43 44 40 38 37 30 37 39 39 38 34 35 38 36 34 31 29 30 31 29 25 24 24 23 22 25 23
51 50 56 58 67 60 65 65 59 61 53 50 53 48 35 43 39 39 42 44 42 42 42 38 36 39 39 39 38 36 37 37 37 34 32 29 26 27 29 31 32 30 28 27
49 54 61 60 71 67 59 67 66 55 61 52 53 59 41 47 47 45 42 45 49 44 43 41 40 41 41 43 43 44 42 43 42 41 37 30 31 33 34 34 37 35 39 36
54 59 65 63 74 73 66 63 68 60 60 59 60 56 55 51 49 48 43 44 50 49 46 45 42 44 44 45 47 47 47 43 43 43 43 42 44 39 39 38 40 41 40 43
57 61 64 65 76 79 73 72 69 67 67 60 58 59 62 59 53 51 51 56 47 48 46 47 48 43 43 46 49 49 48 48 48 47 46 47 48 47 44 45 45 46 45 44
56 63 65 68 74 78 78 73 73 67 66 60 63 65 64 55 54 57 54 53 50 49 51 53 52 51 49 48 50 51 51 52 50 50 52 52 52 53 52 51 53 54 53 52
56 62 66 72 78 77 79 76 71 69 74 66 69 71 69 59 63 65 62 57 56 54 53 52 50 49 50 52 53 52 51 52 52 52 53 55 57 58 56 56 57 60 63 63
55 61 66 74 78 79 79 73 76 73 66 64 69 64 68 69 64 67 71 66 63 60 56 55 54 53 55 56 57 59 59 59 59 60 60 60 60 58 58 60 62 64 63 67
56 62 67 75 82 79 80 77 77 79 74 68 66 67 68 66 69 72 73 69 68 65 63 60 57 58 59 59 60 62 63 62 63 63 62 62 62 63 63 65 67 66 67 70
55 59 68 70 83 78 82 80 78 80 79 72 71 72 73 73 74 74 73 71 70 70 68 65 64 64 64 65 66 66 65 65 67 66 66 66 65 65 65 65 66 66 67 67
52 60 64 70 84 86 85 83 79 79 79 77 76 78 78 78 78 75 74 73 71 71 68 70 71 70 68 68 67 67 70 72 71 71 71 70 72 70 68 67 66 67 69 72
50 53 56 64 70 87 82 77 79 84 77 84 81 76 81 79 78 76 77 76 75 74 75 77 77 76 76 74 75 77 79 77 75 76 81 78 74 75 73 73 74 76 77 77
47 54 57 61 68 71 90 84 77 78 84 84 84 82 78 80 80 75 76 79 80 82 81 79 76 75 76 80 80 80 81 82 85 82 78 77 77 76 80 82 83 83 87 93
48 50 51 56 60 72 77 95 89 86 83 81 84 84 88 83 79 80 81 82 83 83 83 82 81 82 84 86 87 89 90 92 88 83 83 82 83 82 82 88 92 95 99 102

GFSCGP_250_spd_075.txt.gz
Wind_Speed
72 73 78 78 79 77 71 69 69 65 66 53 47 35 40 42 29 45 49 49 45 40 33 31 28 29 30 23 20 20 19 15 16 12 20 30 31 33 40 39 34 40 53 55
77 76 74 69 75 70 68 67 63 58 57 49 36 31 42 32 42 50 52 48 43 40 31 30 29 29 28 24 18 17 16 14 14 12 11 15 34 35 36 42 36 38 46 59
80 76 74 70 70 65 64 68 62 61 49 41 33 30 39 33 51 53 51 45 43 37 33 31 31 31 27 25 18 14 12 12 13 12 12 14 15 39 35 38 34 41 40 50
73 77 72 69 71 73 69 64 58 49 44 36 28 33 36 42 52 51 47 41 40 34 31 29 30 29 25 24 16 13 10 12 11 11 10 13 13 17 41 39 40 40 42 49
74 75 75 73 73 73 65 54 51 42 39 32 29 41 43 48 51 49 47 43 38 38 28 29 31 27 24 20 17 16 14 12 10 10 9 9 12 10 20 40 43 46 46 48
75 72 71 72 69 67 56 49 42 36 32 23 40 47 46 54 51 52 45 44 39 40 34 33 31 31 23 21 18 17 17 14 11 11 10 9 9 10 11 22 37 47 51 47
73 72 74 70 69 64 45 43 37 27 13 38 48 50 52 59 54 50 48 43 39 40 39 32 36 36 32 30 25 21 21 18 13 10 9 10 9 7 7 9 22 32 45 51
75 73 73 73 73 49 43 37 32 20 25 43 50 51 60 63 58 53 48 44 40 40 40 37 34 37 34 30 30 27 23 22 18 13 7 5 8 9 7 5 6 15 25 42
78 77 75 73 53 39 39 35 34 28 33 46 51 56 62 66 61 54 49 47 44 40 40 38 32 34 37 34 31 29 27 24 22 21 13 8 8 9 10 11 8 6 8 17
82 79 73 62 45 38 38 37 32 32 39 49 56 54 55 61 62 52 49 48 45 43 40 35 33 32 34 34 32 32 31 28 25 25 20 14 11 12 11 10 9 10 10 9
88 73 60 53 40 37 40 40 36 38 42 52 57 51 43 59 60 52 45 43 46 47 48 46 39 32 31 33 34 34 34 31 28 23 23 19 18 15 14 13 11 8 12 14
73 60 51 49 37 40 41 47 46 42 45 57 61 56 47 58 60 54 45 40 42 49 50 44 42 38 35 33 32 33 34 32 32 31 26 26 25 23 20 19 18 16 16 17
64 59 54 49 40 45 46 54 54 51 49 55 60 60 52 55 57 56 49 43 36 39 45 47 46 44 40 37 34 34 34 34 37 37 35 31 30 32 29 26 25 24 23 21
61 60 58 52 48 50 51 57 59 55 54 55 56 55 57 53 59 56 54 51 44 35 38 45 45 46 43 39 36 37 35 36 36 35 36 36 33 35 33 29 30 31 31 29
60 64 62 55 51 55 57 58 62 60 58 55 60 56 54 52 55 57 58 55 51 42 39 36 36 36 37 39 39 40 41 41 40 40 41 36 35 36 35 34 31 32 34 35
56 60 57 55 53 61 61 60 67 62 60 60 63 55 53 53 54 51 59 57 56 49 47 41 39 40 39 41 43 45 45 44 44 44 42 41 38 36 36 37 39 42 40 40
54 56 57 57 56 64 64 62 64 65 62 62 63 63 56 50 50 53 57 51 61 56 54 50 48 46 41 43 44 44 44 46 45 45 46 47 46 46 46 46 46 47 48 48
56 54 51 55 57 62 68 62 67 67 68 64 66 64 64 61 53 53 56 54 59 55 54 54 55 52 51 49 48 47 49 52 51 50 50 51 51 52 52 51 51 51 54 55
53 52 51 54 56 64 66 63 67 70 71 70 70 65 61 61 59 54 58 60 55 52 57 61 60 58 57 55 53 51 48 47 50 53 56 58 58 58 58 57 56 57 57 58
50 53 53 54 58 62 63 65 66 71 69 74 74 72 69 68 62 62 68 67 60 55 63 66 64 61 59 59 58 56 56 56 57 58 59 60 60 61 59 59 61 62 63 63
45 49 54 57 58 62 63 65 64 73 70 71 74 70 72 74 69 74 78 77 74 70 72 71 72 69 62 61 60 61 61 61 62 63 62 62 63 65 65 64 66 66 67 69
44 48 55 58 59 65 62 67 66 74 74 74 76 76 76 74 76 78 77 78 82 83 81 75 73 72 68 65 63 63 65 66 68 68 66 65 65 66 68 70 68 70 73 74
45 45 48 54 60 61 60 66 67 73 80 77 78 74 75 79 81 81 80 82 84 82 81 76 73 71 71 72 70 68 67 68 69 69 69 70 71 73 73 72 72 72 75 73
45 47 48 49 51 57 61 67 73 73 80 79 80 84 86 90 88 92 86 84 82 87 90 83 77 78 79 81 78 75 75 75 73 72 73 74 74 74 76 78 79 80 78 77
43 43 45 45 49 57 62 64 77 76 77 81 83 90 93 90 89 89 90 81 79 79 81 82 83 82 80 79 78 77 76 77 76 78 79 80 82 83 83 85 84 84 85 87
43 46 47 47 50 57 59 63 81 84 82 84 89 90 88 92 90 89 85 82 82 82 82 86 90 91 88 86 86 85 82 81 82 85 86 85 84 85 87 89 91 93 96 96

GFSCGP_250_spd_078.txt.gz
Wind_Speed
70 70 65 70 66 66 69 65 64 71 70 71 68 48 56 59 52 48 39 31 28 34 45 45 42 37 30 28 27 26 22 21 20 19 16 14 18 26 22 26 29 39 29 29
69 67 71 68 69 71 70 68 69 69 70 67 65 61 59 54 48 42 36 31 33 46 47 48 41 34 30 31 27 26 20 19 19 18 14 14 12 22 28 24 34 35 32 31
72 72 69 65 67 68 70 69 72 72 73 71 66 47 53 47 42 35 33 37 47 52 49 47 41 34 33 30 29 25 19 15 14 15 15 14 11 13 28 27 32 37 29 30
79 77 74 67 70 71 70 73 71 70 68 66 63 35 44 42 40 33 42 48 52 53 51 48 40 35 35 31 28 25 21 14 11 11 12 13 12 11 17 34 29 34 37 43
73 71 71 74 75 72 70 71 73 70 66 59 59 31 42 42 33 44 51 53 54 54 52 48 41 37 35 30 28 25 23 15 12 9 9 11 7 8 11 33 34 37 39 47
80 79 78 78 74 74 68 70 72 65 55 57 48 34 44 37 44 55 55 57 55 55 53 47 40 37 34 31 28 27 24 19 13 11 9 8 4 5 4 21 40 42 40 46
83 81 78 76 75 74 71 74 71 57 58 53 39 33 41 40 52 58 57 56 55 55 52 43 39 39 37 32 31 27 23 21 17 13 8 5 2 1 3 2 22 39 46 51
78 78 76 76 76 73 72 70 61 53 54 40 31 36 43 49 54 53 55 56 53 50 48 45 45 44 38 35 35 32 27 23 20 17 13 8 3 3 3 3 1 10 33 43
78 80 79 77 75 73 72 66 56 50 45 30 30 46 44 53 53 52 55 57 51 50 48 48 46 42 40 37 38 34 31 25 22 17 18 14 9 6 4 3 7 5 4 9
79 79 77 73 73 72 66 60 52 51 40 30 35 48 46 55 55 51 55 57 53 50 49 47 41 36 36 36 37 36 34 31 29 25 22 22 19 13 8 5 2 6 7 5
82 79 75 75 74 72 66 59 56 50 39 33 41 51 50 60 55 52 53 56 54 50 47 44 41 39 35 34 36 35 36 34 31 31 28 24 24 21 18 14 10 9 8 7
77 76 74 74 72 71 67 60 60 49 37 36 47 55 54 60 53 54 54 57 56 53 49 46 40 36 33 32 34 34 38 37 37 36 33 30 26 25 24 22 19 16 14 15
76 78 78 76 75 72 67 63 52 46 36 42 50 55 54 59 53 55 53 55 55 55 53 50 45 40 38 36 35 32 32 33 34 34 35 33 32 30 28 29 29 27 25 24
67 73 82 84 81 79 74 54 45 45 39 48 49 61 51 61 56 57 53 55 53 50 53 52 49 48 45 43 42 38 36 36 33 32 34 35 37 38 37 35 33 34 34 33
58 64 68 70 72 70 58 49 45 48 45 49 49 57 58 53 54 58 57 55 52 46 42 47 50 50 48 46 46 44 43 40 39 37 37 37 39 41 39 35 35 36 36 35
56 58 59 60 61 60 54 52 50 50 50 51 49 56 63 61 52 52 57 58 54 46 44 44 44 47 49 50 48 46 45 45 43 46 44 41 43 41 38 38 37 38 40 41
50 52 52 55 53 52 55 53 52 55 58 59 53 53 60 62 58 54 56 60 60 54 47 46 46 46 47 47 45 46 46 44 48 51 49 45 44 44 45 45 43 43 44 46
47 51 51 49 46 51 55 53 54 59 61 63 60 55 56 63 61 60 60 60 60 58 56 52 46 50 48 45 46 47 46 46 49 49 46 46 46 48 48 47 46 46 48 50
51 51 49 47 46 47 50 51 59 63 64 68 63 60 59 58 62 61 57 59 65 67 66 61 55 52 52 51 49 48 50 50 51 52 51 51 51 54 55 55 55 55 56 56
48 49 46 49 45 48 51 53 59 65 63 69 67 63 61 53 58 59 60 62 64 64 66 67 63 60 60 60 61 61 58 54 56 58 58 59 61 63 65 64 63 64 64 64
47 46 46 48 46 50 51 54 60 65 62 68 68 63 60 58 57 61 60 63 61 62 66 64 68 66 69 66 68 61 61 62 62 62 63 63 63 63 63 65 68 68 69 68
48 46 45 44 49 54 51 55 64 66 64 68 71 66 66 71 71 64 65 66 62 62 63 65 67 67 69 71 68 68 68 65 66 67 66 67 67 67 69 70 72 70 71 72
47 45 44 43 47 53 52 57 65 68 65 69 74 75 74 73 76 78 78 76 72 70 67 72 71 72 69 66 69 72 70 67 72 72 71 73 75 76 78 77 78 77 77 78
43 42 41 43 48 54 53 58 64 66 67 73 76 81 78 78 81 84 84 82 83 81 77 76 73 71 73 74 77 74 76 78 79 79 78 78 79 80 77 79 83 84 84 83
43 42 40 40 44 52 55 56 62 65 66 70 84 84 85 83 85 88 89 86 90 88 86 86 86 84 85 84 85 86 83 85 90 87 84 82 81 82 85 86 86 86 87 89
45 44 42 42 47 54 55 55 61 66 68 70 80 88 88 88 90 94 95 96 96 93 92 92 92 91 90 89 89 90 90 91 92 93 93 91 90 91 89 86 87 90 90 91

GFSCGP_250_spd_081.txt.gz
Wind_Speed
74 68 73 81 75 73 65 61 58 64 66 64 59 58 63 67 68 68 68 64 61 48 47 35 37 38 35 40 42 37 31 24 23 19 20 18 18 14 19 22 30 34 38 30
67 68 67 66 76 77 63 62 64 67 66 65 60 60 67 69 69 66 69 66 58 46 39 35 36 35 40 42 41 35 26 26 21 18 21 19 18 13 11 24 28 30 30 34
69 64 67 67 61 65 72 66 67 66 62 62 63 60 66 68 70 71 71 63 52 43 37 37 40 41 45 44 40 32 27 25 18 16 16 19 19 14 15 26 30 33 33 35
70 63 67 67 63 63 65 69 67 67 62 62 64 63 68 73 76 68 65 52 44 40 39 45 40 46 47 46 37 31 29 26 17 14 11 13 18 19 16 21 33 36 36 33
72 69 69 73 73 67 69 63 64 65 67 64 67 70 69 73 72 62 52 44 44 39 44 43 49 49 45 41 37 33 31 25 18 16 12 10 13 16 16 14 34 36 38 38
71 71 70 70 72 74 71 73 74 70 66 66 70 74 72 73 64 48 41 38 40 42 46 47 49 47 44 40 37 35 30 24 21 17 11 8 8 9 8 12 35 37 42 43
72 73 70 72 72 69 67 66 67 67 68 72 73 70 70 65 54 35 35 38 40 47 47 52 51 49 47 45 40 37 31 26 22 18 12 8 6 6 2 7 23 39 40 47
68 76 75 74 75 72 72 71 71 72 72 71 70 68 61 51 34 31 37 40 43 49 51 55 53 51 50 47 41 37 33 28 23 20 17 13 8 5 8 7 11 33 44 44
65 67 69 71 72 76 75 74 75 75 73 69 66 56 44 40 31 29 37 42 51 54 56 55 54 51 50 43 38 36 34 29 25 23 20 18 14 10 8 9 13 15 32 49
69 68 67 67 68 69 71 72 73 68 67 65 57 43 32 38 28 36 44 51 54 57 58 56 54 50 49 45 40 37 37 33 29 27 26 23 21 16 13 9 10 18 19 28
67 71 71 69 66 66 69 72 71 66 61 56 45 36 28 41 28 45 53 56 57 59 59 57 52 50 49 46 43 41 41 37 32 31 31 29 25 21 20 18 11 10 14 17
64 72 74 74 69 65 64 65 65 62 57 49 42 39 30 39 37 55 58 58 59 59 59 56 53 51 49 47 44 43 42 39 37 36 35 34 30 28 25 24 23 19 17 19
60 67 75 76 74 73 70 66 61 58 56 52 45 33 31 40 48 60 58 58 60 58 57 56 55 52 49 46 46 43 43 42 41 40 39 37 35 33 31 28 29 29 26 24
60 64 70 74 74 74 73 71 68 62 55 45 42 37 37 45 58 63 59 57 58 59 56 55 54 54 50 49 47 44 42 42 40 38 39 39 39 37 36 36 34 34 33 34
60 63 66 69 72 70 67 66 63 58 49 45 38 37 42 49 61 62 56 52 54 58 55 54 56 53 51 48 46 45 44 43 41 37 36 36 36 36 37 39 41 41 40 38
58 64 63 60 60 63 67 65 64 60 55 54 36 45 44 53 59 61 56 51 50 52 52 56 54 54 53 50 48 49 48 47 46 43 41 42 42 42 43 42 39 38 36 38
58 56 53 49 49 53 56 56 60 66 64 60 45 50 48 54 60 62 56 51 48 51 51 51 53 56 53 54 52 52 51 50 49 47 48 50 50 48 46 46 44 42 43 45
52 42 39 44 51 50 51 54 55 59 57 44 53 58 52 52 59 66 59 54 49 47 50 52 51 51 56 59 58 57 55 54 54 53 51 52 54 54 53 51 50 49 49 49
45 44 45 46 49 50 51 51 50 55 51 50 56 62 54 55 63 65 59 61 55 58 55 52 53 53 53 55 55 57 58 59 58 55 58 49 49 60 52 50 50 53 53 53
47 46 46 48 46 52 51 49 49 55 55 55 59 66 59 57 60 65 64 60 56 54 60 58 54 52 53 52 54 56 56 55 54 55 56 55 57 56 56 54 55 58 60 60
48 52 49 49 48 53 52 51 53 55 58 59 63 67 61 58 62 59 64 63 63 58 59 60 61 56 53 52 54 57 58 59 57 57 59 60 59 60 64 65 64 64 65 66
51 52 52 51 50 54 51 52 53 56 60 61 64 68 66 59 57 57 60 60 63 64 64 64 65 65 66 65 63 59 61 63 65 65 66 66 66 67 69 71 72 72 73 73
50 47 47 46 48 51 48 50 52 56 60 62 67 67 70 66 65 62 63 66 64 65 65 66 68 68 69 69 69 69 69 72 72 72 76 75 75 76 76 77 77 78 76 76
47 45 45 46 48 48 47 49 52 57 60 60 67 68 75 75 72 71 71 72 72 70 71 69 71 71 71 73 74 79 75 75 75 76 79 81 85 81 83 80 78 78 78 80
43 44 45 46 48 48 46 49 51 57 61 60 68 71 82 79 78 80 76 77 75 76 76 75 75 75 75 76 77 79 79 80 80 77 79 83 79 80 76 81 84 83 87 89
41 42 44 47 47 47 46 48 51 53 60 63 70 74 82 87 85 83 83 82 80 83 81 80 79 78 79 80 81 79 80 80 80 82 84 87 86 84 87 90 90 91 93 95

GFSCGP_250_spd_084.txt.gz
Wind_Speed
60 57 61 67 70 72 70 71 72 75 76 69 60 57 63 64 66 65 67 64 63 66 71 74 68 62 53 45 39 37 36 34 35 36 29 23 23 21 13 18 29 34 34 42
60 57 63 65 68 72 75 72 74 77 78 69 64 57 57 57 58 61 61 62 66 70 74 70 69 60 45 41 37 37 39 38 37 33 24 23 22 21 16 13 23 35 40 42
61 61 63 65 71 76 79 75 78 72 76 78 66 61 59 60 65 66 63 65 70 75 72 68 60 51 38 38 35 43 40 39 36 30 23 24 19 21 19 15 21 27 35 40
58 64 65 65 70 78 78 75 71 66 70 72 70 63 57 67 65 60 62 66 72 70 68 60 55 42 37 37 44 45 42 39 34 25 24 17 12 15 22 19 17 25 36 41
58 63 65 68 72 73 75 73 72 65 64 60 68 69 71 71 68 67 69 75 76 67 61 60 47 39 37 42 48 46 42 37 33 25 23 13 8 12 19 21 19 28 35 34
59 61 64 67 70 72 72 67 59 57 60 55 60 65 72 65 67 68 75 73 68 70 56 49 41 35 41 50 49 47 43 38 32 26 23 13 8 13 16 17 22 31 37 40
60 62 63 65 68 68 72 63 63 63 62 59 61 63 68 64 67 72 76 69 63 51 44 42 37 39 52 54 53 50 44 37 30 29 25 15 12 11 13 15 20 33 38 40
60 63 64 64 63 68 68 69 66 64 64 62 61 63 69 69 69 76 68 66 48 40 40 37 38 48 57 55 54 50 43 37 31 31 27 19 16 12 14 11 18 34 43 40
57 61 63 62 63 63 64 71 69 66 65 64 65 70 67 67 64 66 65 50 38 37 37 37 43 54 57 56 54 49 44 38 34 32 30 22 20 16 12 13 13 25 43 44
55 59 63 63 63 64 63 66 68 71 65 61 61 61 62 63 64 62 60 40 36 38 37 41 52 58 59 56 53 50 44 40 36 36 32 26 23 20 16 12 12 16 35 44
58 57 61 64 66 65 64 64 64 65 62 63 64 65 66 63 59 48 44 31 32 39 40 48 57 60 59 55 53 50 46 43 36 39 38 32 29 24 22 18 15 13 21 28
58 57 59 64 66 66 62 59 62 65 64 61 59 61 61 57 46 34 32 26 31 40 47 54 57 59 56 54 53 51 47 44 41 42 42 37 31 26 25 24 24 21 17 23
56 56 59 59 61 68 66 62 59 56 54 51 50 52 54 43 36 28 30 28 36 50 54 55 57 57 56 53 52 51 47 46 45 44 43 39 34 32 32 30 29 29 28 24
51 56 60 60 61 68 69 67 61 57 52 49 48 48 43 34 30 27 29 33 45 56 57 56 54 54 57 54 53 52 50 50 48 46 44 42 38 38 35 36 36 36 35 33
51 54 60 60 60 64 69 67 63 60 55 50 47 48 36 35 31 32 32 36 52 59 60 59 56 54 56 54 54 54 52 49 49 48 45 41 40 42 42 42 42 40 41 39
51 52 55 61 62 64 66 68 66 63 62 62 58 54 43 39 28 36 36 44 59 59 60 60 58 55 59 56 55 55 56 54 50 46 43 43 43 43 44 47 46 45 45 44
48 50 53 57 61 61 61 66 69 66 61 59 55 49 41 33 28 38 37 47 61 57 59 60 59 57 58 59 56 57 56 54 53 49 48 47 45 44 44 45 45 44 43 45
49 50 53 52 57 60 58 61 66 64 59 56 53 45 38 29 36 37 40 46 59 54 58 59 58 58 59 60 57 56 57 56 55 54 53 51 49 49 50 51 49 49 50 50
45 48 49 49 48 50 54 57 62 59 60 58 54 48 40 29 45 45 45 41 56 53 53 54 53 57 57 58 60 58 56 55 53 54 55 56 56 53 52 57 59 58 58 57
40 47 47 45 46 46 53 56 57 55 56 56 56 52 46 38 51 51 52 53 54 56 50 51 52 49 54 55 57 59 61 58 59 58 57 56 57 45 48 56 62 65 67 66
42 46 47 46 47 48 50 54 55 53 52 56 58 55 48 48 58 53 57 56 57 52 52 52 51 40 54 58 57 55 56 60 62 61 44 53 61 59 64 66 70 64 68 67
43 46 49 50 49 51 51 51 52 51 51 53 56 57 53 59 66 59 60 64 65 60 57 58 58 56 42 55 55 59 59 59 59 60 65 73 74 71 69 73 76 74 71 71
44 49 52 54 53 52 52 52 52 52 52 52 56 58 62 65 72 66 64 68 72 77 76 71 68 64 63 61 62 61 62 60 54 62 64 66 69 71 72 75 77 76 77 75
44 51 54 52 53 52 53 51 51 52 52 54 56 61 67 70 77 74 68 67 72 78 83 81 73 68 64 70 66 65 64 67 66 69 71 71 71 68 73 78 77 80 83 82
44 50 51 47 49 49 47 47 48 52 51 54 57 63 70 73 79 80 72 72 70 72 78 82 79 74 72 72 75 77 76 74 73 75 77 76 78 81 85 88 87 88 90 88
38 43 44 43 43 44 42 42 47 50 52 54 57 64 69 78 80 85 79 75 75 75 76 80 83 80 80 81 81 80 81 83 84 85 86 86 86 90 90 91 93 93 95 97

GFSCGP_250_spd_090.txt.gz
Wind_Speed
90 84 83 89 85 80 83 80 75 71 72 76 65 66 68 77 74 68 57 64 58 48 52 54 53 61 62 64 67 68 69 71 64 64 68 64 51 35 29 28 26 25 28 34
89 81 85 82 77 76 75 73 73 67 66 65 63 63 65 73 73 70 68 69 66 60 50 51 55 58 58 59 62 60 62 64 64 70 69 62 38 30 30 28 26 26 32 33
90 85 80 80 76 76 72 71 69 64 60 58 59 57 62 66 73 75 73 71 66 62 59 60 55 58 60 59 61 61 67 67 69 70 62 50 32 33 32 28 26 29 32 31
79 82 81 76 71 73 72 70 64 58 53 52 57 52 56 63 66 67 75 70 63 60 55 56 55 58 64 59 62 70 66 65 67 66 52 40 32 37 31 30 29 33 33 34
81 81 79 72 72 72 68 66 59 52 51 49 53 51 53 60 61 64 66 61 58 55 59 54 66 61 67 59 66 70 68 68 68 59 46 36 39 36 32 31 32 31 30 33
81 81 78 73 69 69 61 61 57 50 49 45 50 52 50 55 55 55 56 57 56 56 59 62 61 61 61 68 66 70 70 75 73 67 42 40 43 35 32 28 29 24 27 30
82 78 75 71 63 63 57 57 55 47 45 45 51 48 47 47 47 49 53 57 54 57 57 60 62 59 62 67 65 68 76 77 76 63 42 46 42 34 30 28 24 22 24 28
78 71 70 63 58 57 50 53 49 47 44 44 46 42 46 41 43 46 48 46 48 52 57 62 65 67 68 75 73 76 81 76 76 53 47 50 41 36 30 28 21 23 21 26
68 66 62 59 50 49 48 46 51 45 42 41 43 43 43 42 44 49 40 42 45 47 49 52 59 63 70 75 74 73 65 60 52 42 51 48 41 36 32 26 22 21 19 21
64 55 58 50 42 43 43 46 44 45 42 41 43 45 37 36 49 53 53 50 45 50 56 59 62 64 68 72 60 57 50 40 37 47 53 45 42 35 32 25 23 22 17 14
56 53 53 42 39 43 42 41 44 46 42 42 44 44 39 47 51 49 50 49 50 54 57 59 61 63 63 62 54 44 33 36 42 54 51 45 42 37 32 25 23 20 21 16
52 50 47 43 43 42 41 42 45 44 46 47 44 44 40 50 68 62 51 53 52 53 55 58 62 66 64 57 41 34 42 45 50 53 48 45 42 39 33 27 26 22 18 17
50 47 45 45 41 40 41 45 47 49 51 53 55 55 60 61 63 60 56 55 58 57 56 55 63 66 52 41 36 38 42 49 57 53 49 47 44 39 34 28 28 26 22 20
49 46 43 43 38 39 41 44 49 53 54 58 61 63 73 67 65 58 61 57 49 54 57 60 60 55 40 34 41 40 47 55 55 54 50 51 45 40 36 32 30 28 28 26
44 41 38 43 40 40 44 47 53 56 60 61 64 71 71 68 62 62 59 58 53 55 59 60 52 39 34 37 43 44 54 58 57 57 56 54 49 44 39 36 34 32 32 31
42 40 40 42 40 45 46 48 55 59 66 65 65 64 61 62 62 62 61 54 52 56 52 45 37 34 37 41 45 51 59 63 62 62 60 57 53 48 43 40 38 37 35 35
37 37 40 43 42 48 48 46 59 62 61 61 55 52 61 61 62 61 52 54 55 45 33 34 34 35 34 39 48 58 62 63 64 64 61 59 55 50 45 43 40 40 40 40
33 33 39 44 49 51 43 48 52 56 54 51 53 56 55 55 59 55 55 53 39 36 29 35 34 36 35 43 51 60 60 61 62 62 61 59 55 51 49 48 46 44 44 45
28 32 40 46 49 43 43 48 48 47 49 48 54 57 54 50 53 56 48 41 39 42 35 36 37 40 39 42 52 57 58 56 58 58 60 58 55 53 51 51 51 50 50 49
26 30 35 39 37 35 39 39 46 44 47 53 53 57 55 49 45 44 42 39 45 47 37 37 39 42 43 45 54 54 54 55 55 56 56 57 57 56 56 55 54 57 56 54
24 25 31 34 34 40 41 47 46 43 48 54 53 53 58 56 49 43 42 46 48 46 36 41 42 42 44 44 47 49 53 51 51 51 49 51 55 55 58 59 59 61 62 60
23 25 32 36 40 44 44 44 45 44 47 51 52 51 55 59 56 52 53 54 52 48 38 47 44 45 45 45 47 49 48 47 45 46 44 51 54 56 55 55 58 60 62 64
27 30 36 42 45 45 44 46 46 45 42 45 50 53 56 58 58 57 55 52 50 44 46 50 50 49 48 46 49 53 55 49 47 49 60 56 52 52 55 53 48 50 57 57
27 30 36 41 43 43 44 45 43 44 44 48 52 54 57 58 58 51 46 44 45 49 53 51 52 49 51 52 54 54 54 57 59 59 60 60 56 57 60 61 57 63 69 57
26 30 34 38 40 41 40 42 42 45 47 48 52 56 57 59 57 52 49 47 47 57 57 57 57 55 56 62 63 61 60 60 62 62 64 68 70 67 67 68 71 77 88 82
26 29 31 37 38 40 41 43 43 45 49 49 51 56 59 62 62 60 58 53 52 59 61 65 63 66 67 65 67 69 71 72 74 72 71 69 67 69 71 72 73 79 86 90

GFSCGP_250_spd_093.txt.gz
Wind_Speed
91 85 92 94 92 86 86 89 86 80 80 81 75 72 71 72 72 71 74 77 75 70 77 73 58 57 46 48 46 39 48 58 58 51 58 60 53 59 63 67 62 42 30 27
89 91 96 97 91 90 91 90 83 76 79 80 77 70 68 68 67 67 69 65 66 64 69 64 59 54 48 49 49 41 46 55 61 53 57 53 56 62 64 60 52 35 28 28
97 101 93 95 100 102 93 85 80 76 78 79 76 66 65 63 61 60 60 57 58 58 61 67 64 55 60 49 43 33 45 54 55 53 57 57 60 61 57 57 42 32 32 30
99 93 99 105 93 92 84 88 83 78 76 73 73 60 60 58 55 54 55 50 51 52 57 62 65 62 59 51 46 42 46 55 60 62 59 57 59 58 61 53 37 35 32 29
104 103 98 96 92 88 78 81 82 79 73 66 62 59 51 54 49 47 44 46 48 53 60 62 65 61 57 58 58 49 47 48 55 57 61 57 58 62 60 51 38 37 32 33
97 93 91 90 85 81 80 82 76 69 64 54 62 49 46 49 41 36 38 39 46 50 59 65 65 62 60 54 41 48 56 60 60 61 58 60 61 62 63 45 42 38 34 32
91 86 87 87 81 79 81 75 69 58 59 49 50 40 42 38 31 32 33 37 41 49 53 57 62 62 59 54 49 43 47 53 58 60 59 61 66 66 50 45 43 38 34 31
81 75 86 80 79 77 73 71 62 56 51 46 42 35 38 31 31 32 33 34 33 44 46 52 54 55 52 44 46 51 55 54 59 60 58 60 61 59 44 39 43 36 32 30
78 69 77 80 74 66 62 55 55 46 44 37 36 34 33 27 26 27 33 41 41 39 42 46 45 47 44 45 47 48 51 56 61 68 66 53 54 51 43 44 41 36 29 26
77 67 71 71 63 59 55 52 47 41 36 32 33 34 24 19 28 39 42 40 40 37 36 42 38 40 44 48 49 42 31 31 43 46 51 58 46 38 40 45 38 33 29 25
67 62 51 64 55 57 51 44 41 36 33 33 33 32 43 42 36 40 40 45 45 45 43 41 36 37 40 40 43 42 44 45 53 48 50 43 40 38 46 43 39 33 27 25
59 48 45 53 55 52 47 39 36 33 33 35 35 34 48 55 54 50 54 46 45 47 47 43 38 41 42 46 49 51 51 50 38 47 50 44 38 43 47 42 38 33 27 26
52 44 40 49 51 45 40 37 37 37 35 38 39 43 47 56 60 54 57 45 47 50 49 43 43 44 48 51 54 56 58 59 60 60 54 38 45 46 45 41 38 33 29 25
46 42 38 47 44 41 39 37 38 40 37 42 45 51 57 61 64 67 62 53 47 49 49 48 47 46 45 46 52 58 53 46 43 42 44 46 49 50 47 44 41 36 33 28
42 41 35 39 37 39 38 37 37 39 44 46 52 60 62 62 64 68 63 58 52 47 50 50 50 50 52 55 56 47 36 37 37 41 41 56 52 51 49 48 43 38 35 32
39 35 35 34 34 36 34 39 43 46 48 53 62 68 67 64 63 61 59 50 44 49 52 48 46 51 50 49 49 45 31 29 39 45 54 55 56 54 52 50 45 43 40 36
33 32 35 32 31 34 37 46 45 43 50 57 66 66 65 70 65 60 57 53 49 46 46 50 52 53 52 49 43 35 35 38 40 53 59 60 59 59 56 53 48 45 43 41
29 31 32 29 34 38 42 46 44 46 50 59 60 58 59 63 64 64 60 54 48 47 50 50 49 51 48 45 36 35 38 43 49 57 68 63 59 61 59 54 50 46 42 42
26 28 27 32 35 43 49 45 34 41 47 51 53 53 54 57 62 68 67 64 59 54 49 50 48 48 41 39 35 37 39 46 52 58 68 70 68 64 60 53 50 49 47 45
23 25 29 35 41 48 46 40 36 41 43 42 46 50 49 52 58 58 68 68 62 58 56 51 50 41 39 35 37 39 40 49 56 58 61 67 68 66 59 54 52 52 52 52
22 25 28 32 38 37 31 40 40 42 47 43 41 47 47 50 55 55 56 64 63 60 54 51 46 40 39 40 39 43 43 40 56 54 57 58 61 61 58 57 56 57 57 57
24 27 28 30 36 32 30 28 31 39 45 44 41 46 50 51 51 51 53 51 52 57 50 49 44 43 39 46 45 48 50 48 52 48 48 54 56 61 60 60 61 60 61 61
27 30 32 34 36 34 35 35 34 38 43 44 41 46 50 51 51 51 51 47 47 50 50 49 45 44 42 50 47 48 49 48 52 53 53 52 52 55 59 59 56 55 59 59
21 27 35 36 36 38 40 41 43 46 47 45 41 42 49 52 53 54 55 53 48 51 52 47 52 48 45 51 53 51 53 52 58 57 57 56 55 53 55 57 60 62 63 62
20 25 31 34 37 37 39 40 42 47 48 46 46 46 49 54 56 55 56 56 56 54 54 53 55 53 50 56 57 57 55 55 56 57 61 64 65 62 60 62 66 67 62 59
19 22 28 32 37 38 39 39 40 43 45 44 44 46 48 53 57 57 57 58 61 60 59 60 59 56 56 59 62 62 62 61 62 63 62 65 70 71 71 66 72 74 70 67

GFSCGP_250_spd_096.txt.gz
Wind_Speed
80 78 83 86 86 85 84 86 85 84 86 99 88 87 82 81 77 72 69 67 70 76 79 82 85 86 82 81 77 70 62 57 57 51 47 46 42 46 43 49 53 51 53 53
85 84 89 86 89 88 90 91 92 89 96 98 97 91 87 79 75 75 70 67 66 67 66 69 70 70 68 66 66 67 59 53 58 54 52 46 47 43 46 52 50 51 55 55
87 91 91 91 92 92 95 98 97 95 97 101 96 85 78 76 73 72 69 65 64 61 57 62 63 62 60 58 59 63 60 52 47 50 49 42 45 49 46 49 53 51 52 52
89 96 96 96 96 102 96 103 101 102 99 90 86 75 72 76 76 75 62 59 57 55 53 54 52 49 51 51 51 58 60 57 48 43 45 43 45 45 50 56 49 52 51 55
100 98 101 101 102 104 100 103 102 100 89 83 72 81 57 69 75 66 51 51 49 45 48 46 45 46 49 44 56 51 44 46 54 45 49 47 46 46 46 48 50 53 52 52
102 108 107 109 107 107 103 101 95 88 83 80 72 77 56 64 57 52 47 42 39 41 43 42 44 42 44 48 58 59 53 50 54 53 53 50 48 43 52 53 48 49 55 44
106 107 108 109 106 106 103 97 88 82 84 73 69 65 54 58 47 42 38 35 36 39 41 41 40 40 47 52 55 61 57 53 54 55 52 50 51 51 53 52 50 47 52 38
109 108 110 111 101 96 93 86 82 84 75 64 61 49 50 40 38 35 31 32 33 36 39 38 42 47 48 49 53 57 59 54 38 40 43 47 43 44 44 48 56 51 40 33
105 104 104 104 93 83 79 79 81 79 66 48 49 43 36 32 32 28 33 37 34 36 33 37 41 41 49 55 54 56 53 45 49 46 40 43 45 49 52 51 42 44 37 34
81 73 73 74 77 80 75 75 75 70 52 39 43 34 32 28 26 29 27 26 34 37 36 39 38 40 44 49 53 49 48 48 35 32 31 36 40 42 38 42 45 39 35 35
72 69 60 66 75 75 73 65 64 58 42 37 34 32 31 33 32 40 35 39 41 40 38 35 35 38 39 42 44 48 38 39 28 21 40 46 43 46 47 43 38 39 37 40
66 60 52 57 65 68 63 60 53 45 35 36 32 30 33 43 42 37 49 49 44 39 39 36 38 40 42 42 47 49 47 41 35 35 59 57 47 51 54 48 42 37 39 42
58 52 46 48 58 59 57 49 48 38 30 36 34 34 50 47 46 50 54 53 49 42 42 39 37 38 39 45 48 47 47 49 48 44 55 58 51 60 58 53 44 40 41 41
53 50 44 44 50 45 45 45 41 32 31 35 39 41 59 57 52 49 60 56 51 40 41 39 36 39 42 37 36 40 43 48 52 55 43 50 58 58 57 62 45 46 44 42
47 44 43 39 41 38 42 43 37 31 38 38 45 50 69 66 65 60 61 65 54 45 35 40 39 41 43 39 35 40 42 45 49 52 52 55 61 58 57 59 47 49 46 43
42 41 36 38 31 33 37 40 37 34 38 42 50 57 69 75 73 71 66 64 58 52 41 39 41 43 43 40 43 44 44 47 51 53 59 51 51 52 50 50 51 51 48 45
38 34 30 28 28 31 36 36 32 33 42 48 57 61 60 73 75 71 67 64 53 50 47 45 41 38 42 44 46 48 50 52 52 48 40 36 36 41 47 54 55 53 51 47
32 30 25 27 30 31 34 34 35 36 42 50 57 66 66 66 69 70 68 65 61 54 53 50 47 45 44 45 47 48 51 54 49 39 41 36 41 49 53 58 58 57 55 53
29 25 25 27 29 34 38 39 41 43 47 51 57 64 66 65 64 63 63 61 55 51 48 52 54 51 47 49 48 48 50 51 44 38 41 30 50 57 58 63 50 60 59 55
25 22 22 26 33 38 41 46 42 46 46 46 53 60 62 63 62 62 61 61 55 52 52 54 56 53 54 51 50 49 49 44 36 27 49 55 61 65 61 62 68 64 59 58
21 21 25 31 35 35 43 44 47 45 43 47 51 54 50 55 53 53 62 63 61 58 54 50 47 50 49 49 50 48 45 43 43 44 52 57 57 68 66 68 71 67 64 62
22 26 32 34 35 37 40 42 39 36 41 42 43 46 49 45 48 50 57 66 65 64 62 59 57 54 55 52 54 48 45 43 45 44 50 47 53 72 72 69 66 63 69 68
23 28 30 32 35 36 36 29 27 38 40 40 40 43 43 45 47 48 54 61 68 70 67 63 62 59 55 54 54 51 50 41 47 46 50 60 62 64 71 66 68 72 67 70
22 26 30 31 34 34 33 29 27 32 36 43 43 40 42 44 47 48 50 55 60 61 66 68 66 64 61 57 55 52 50 47 52 49 52 58 67 64 67 68 72 75 75 76
15 23 27 29 31 33 33 35 36 37 37 40 43 43 44 43 46 50 53 55 57 60 61 61 59 59 61 62 58 57 52 49 52 59 58 62 58 66 66 67 68 71 74 77
19 20 23 28 30 32 34 38 39 43 43 44 47 51 51 49 47 50 55 57 58 58 57 58 56 57 58 59 60 58 56 51 56 62 59 62 65 71 69 69 68 70 72 73

GFSCGP_250_spd_099.txt.gz
Wind_Speed
88 88 92 91 89 88 89 91 90 88 93 93 90 75 78 80 83 85 87 88 88 81 75 76 76 74 70 73 72 76 79 78 76 78 71 60 55 56 53 51 41 39 43 38
88 89 96 91 92 93 94 93 91 91 95 93 92 78 82 88 88 91 92 92 89 77 74 71 72 72 69 71 71 71 73 80 78 76 76 72 59 56 54 50 42 46 40 38
89 94 96 93 90 90 91 92 92 91 96 94 95 86 88 91 94 92 97 90 77 71 69 68 69 71 69 66 69 69 69 72 76 84 80 79 64 57 55 49 46 49 43 41
84 88 87 87 89 93 90 97 95 95 98 97 101 101 93 97 92 95 89 77 70 68 66 68 68 66 63 59 62 63 62 62 66 68 68 63 57 56 57 50 50 45 45 43
90 92 93 93 97 98 98 103 106 108 109 110 102 104 82 97 86 83 79 74 67 63 62 59 55 55 54 53 56 57 57 56 56 54 56 56 56 56 57 49 44 44 42 44
95 98 100 101 103 107 109 110 110 111 111 108 104 98 87 96 83 71 72 70 65 62 56 51 50 47 49 45 44 46 46 49 52 55 54 51 56 55 53 53 50 45 41 44
100 103 106 106 110 112 110 110 111 112 111 109 107 95 91 81 70 68 66 64 56 52 49 46 46 38 37 36 38 38 41 46 46 54 56 56 57 57 57 50 46 45 48 45
106 106 109 110 111 109 112 111 112 110 104 103 99 79 70 66 63 63 58 48 44 45 44 42 39 30 33 33 34 33 37 42 46 49 56 54 49 49 46 41 43 45 40 38
106 108 111 111 108 105 105 108 109 103 92 81 67 67 61 59 56 50 41 40 39 38 39 38 31 32 33 35 40 39 41 48 46 48 47 49 38 39 33 36 37 36 42 42
94 97 98 98 102 104 100 94 92 86 75 67 56 57 56 50 46 40 37 35 36 36 37 33 32 36 37 40 49 47 40 48 48 43 42 40 41 32 29 32 32 39 39 34
82 87 86 86 90 89 86 82 80 78 74 64 51 41 43 41 38 35 35 37 40 41 39 35 39 38 37 41 50 49 44 48 46 40 35 37 36 35 31 33 36 43 45 45
75 76 74 76 79 77 78 78 74 65 62 55 39 35 35 36 34 38 41 45 45 46 41 40 39 38 37 40 48 52 49 50 48 41 41 36 35 35 38 42 47 53 53 50
71 71 68 68 70 71 71 70 69 62 50 45 35 39 34 36 42 45 47 46 44 45 40 38 40 41 38 41 44 49 50 54 48 48 50 47 34 20 43 52 55 49 50 50
63 62 59 54 60 58 57 53 55 52 42 41 36 39 36 42 50 52 55 52 47 43 38 39 45 45 44 44 43 42 44 48 54 52 53 52 49 49 49 53 54 56 53 51
53 51 52 53 50 45 42 47 48 39 39 33 41 37 42 51 56 57 61 58 53 45 43 37 43 45 47 46 45 46 51 53 55 53 56 52 50 51 55 55 56 58 56 56
48 49 48 47 42 35 44 46 41 38 33 41 39 41 52 63 65 63 62 65 61 58 50 41 41 48 49 48 48 51 54 56 57 57 55 56 58 58 54 56 59 65 66 57
42 40 41 44 36 42 44 38 38 36 40 42 40 44 58 66 67 66 67 62 61 54 53 42 42 45 43 43 43 47 46 51 53 56 57 62 63 61 62 65 61 67 64 60
41 36 36 39 40 39 36 35 35 38 43 42 44 49 62 67 70 70 69 63 60 54 52 46 38 39 42 41 42 45 47 42 49 48 52 55 59 59 63 65 65 65 59 49
35 36 35 36 36 33 32 30 32 36 43 45 48 53 61 71 75 69 70 67 60 54 57 52 45 41 43 47 47 46 47 47 51 54 56 54 55 55 54 54 55 55 55 47
33 34 33 32 30 28 28 32 34 40 44 47 49 57 62 68 77 75 69 74 65 59 55 54 58 53 50 46 51 47 49 52 53 54 57 54 51 43 32 43 50 53 53 52
30 31 30 29 26 26 29 35 41 47 49 49 51 59 63 65 66 71 74 72 70 65 58 48 51 52 54 55 50 49 52 52 53 55 55 51 49 49 41 47 55 54 54 50
27 27 25 22 21 28 32 36 40 45 49 48 51 57 57 56 54 55 61 65 68 70 67 56 50 50 53 55 55 55 56 56 57 54 56 51 47 61 57 56 57 62 58 61
22 21 19 20 22 29 32 35 35 39 41 46 45 45 48 49 49 49 53 52 55 63 68 68 63 55 58 57 55 55 57 57 54 54 53 51 47 57 68 71 64 65 73 73
15 16 16 18 21 29 32 32 29 33 35 38 39 44 49 50 48 46 48 49 55 58 61 64 62 62 63 62 60 58 58 57 56 56 58 53 54 55 63 74 78 73 71 78
16 15 15 21 24 29 31 30 29 31 31 30 36 39 43 43 45 46 48 51 50 54 64 69 68 67 67 66 64 63 64 64 64 63 60 59 56 55 56 55 69 77 78 76
20 18 17 20 25 28 31 31 30 32 32 28 32 37 41 43 44 47 47 48 51 57 62 68 74 75 74 73 70 69 69 69 68 68 65 63 60 60 59 62 61 76 77 78

GFSCGP_250_spd_102.txt.gz
Wind_Speed
84 82 84 89 86 85 84 86 89 91 92 88 87 81 86 88 90 92 93 92 89 86 81 82 84 85 80 82 80 78 70 65 65 62 68 70 66 67 64 64 60 53 51 48
89 84 88 88 86 87 85 85 88 90 94 89 89 84 87 91 92 93 93 90 89 85 85 88 90 88 86 86 82 73 66 65 64 61 65 72 73 71 65 63 62 54 52 51
91 91 90 88 89 88 89 89 90 90 95 95 94 87 91 91 91 93 93 90 92 93 91 89 84 84 85 83 75 74 69 63 61 61 65 69 73 73 70 63 59 60 54 53
93 95 92 92 89 93 92 95 93 91 92 91 96 87 87 93 97 99 96 95 91 87 81 80 83 82 79 72 71 68 66 63 63 63 63 64 68 72 71 70 66 61 51 53
97 97 96 94 92 93 90 95 97 97 99 95 97 101 86 95 103 102 95 91 88 86 84 79 75 71 69 67 71 66 66 63 66 63 63 64 67 68 70 71 61 54 54 58
98 99 100 98 97 96 97 97 100 102 103 99 100 105 93 101 101 101 96 93 93 85 78 69 63 62 63 66 65 64 60 59 61 59 58 57 58 59 62 62 59 59 54 55
97 98 98 98 98 100 103 106 107 106 104 101 104 103 98 102 102 94 92 90 79 74 67 62 59 58 57 56 52 51 47 49 49 51 52 52 52 49 54 53 49 52 52 53
94 96 96 97 101 104 104 105 105 104 103 103 104 102 99 100 95 92 83 68 61 59 60 58 56 52 47 41 40 39 40 40 40 44 46 48 48 46 47 46 49 50 53 49
91 93 95 98 99 100 100 99 98 101 101 101 97 95 91 89 85 75 62 59 56 56 53 49 47 39 35 35 36 32 30 30 29 34 39 38 39 42 44 44 45 44 45 34
87 90 92 91 93 93 92 93 97 99 98 94 85 80 76 73 69 64 57 57 51 46 41 40 37 29 31 31 29 28 30 28 24 28 33 35 34 38 39 36 31 33 30 29
79 81 78 80 83 83 86 87 88 88 87 77 70 65 65 63 56 53 55 48 43 38 35 37 33 27 29 31 29 32 35 32 27 30 28 29 32 31 33 28 31 32 28 28
62 62 64 71 76 80 82 85 83 79 78 76 69 57 58 53 49 51 47 43 38 34 35 34 34 29 34 34 37 39 41 40 39 39 34 32 36 38 39 36 37 33 31 36
57 61 68 72 73 78 79 80 78 79 74 67 64 54 52 43 45 44 44 40 37 37 37 36 37 36 43 40 42 50 50 48 44 46 43 41 39 40 44 42 43 37 39 39
61 65 69 71 74 74 74 75 74 69 65 62 53 51 42 42 44 44 42 36 39 41 42 40 37 38 45 42 40 47 53 50 48 47 47 46 47 42 41 38 39 37 38 42
63 67 70 69 68 64 60 59 69 60 51 52 52 42 41 44 46 48 43 41 43 44 46 44 37 42 46 42 40 46 53 54 50 52 50 51 49 44 37 34 38 40 50 50
64 64 61 55 58 53 46 59 56 50 43 46 44 39 40 42 47 50 46 46 50 50 49 42 42 46 46 43 42 42 46 54 52 51 47 46 47 46 48 41 45 45 43 46
57 54 47 46 51 45 49 44 43 41 36 38 37 39 37 42 46 49 49 51 50 49 50 45 45 50 49 47 46 45 43 48 53 54 55 52 47 51 55 56 51 48 49 53
49 43 38 42 43 44 41 40 39 36 34 34 36 35 38 45 44 50 51 51 49 49 53 47 46 50 52 50 50 48 46 46 51 55 54 52 55 55 57 58 58 57 59 60
41 39 39 40 39 36 34 34 33 33 31 30 33 34 44 42 46 51 51 52 50 56 57 51 49 48 46 51 52 52 51 48 52 54 54 57 59 56 56 57 59 66 65 66
41 40 37 35 32 30 31 29 30 32 33 36 38 38 45 43 50 54 53 52 54 54 57 58 52 48 43 45 49 56 55 51 50 58 59 60 64 62 60 56 54 63 64 67
36 33 32 28 27 27 27 28 28 32 36 38 38 39 48 52 55 56 60 59 60 59 58 54 55 53 47 47 50 51 58 54 52 53 56 56 56 57 50 52 41 48 55 59
32 30 26 24 24 24 24 26 30 34 37 37 38 44 50 57 58 59 64 62 62 62 62 58 58 53 56 52 51 51 52 54 54 54 54 56 57 60 60 60 60 59 58 59
26 22 21 20 21 20 21 24 29 34 35 35 40 46 51 56 59 59 62 64 64 64 63 64 62 53 60 60 57 52 52 55 58 60 60 59 60 63 65 66 68 70 70 71
18 19 16 16 17 17 19 21 25 27 31 37 44 48 51 52 55 58 55 54 58 59 60 62 66 64 61 60 61 62 61 61 62 62 65 66 66 68 69 71 71 70 71 72
17 18 15 15 16 16 18 20 21 25 29 32 38 41 49 49 50 48 44 39 45 50 58 61 65 67 67 67 62 58 57 59 63 64 66 67 69 72 74 73 73 67 63 67
18 18 18 17 18 19 19 19 19 23 25 29 32 37 41 45 46 45 44 41 39 45 51 55 56 63 66 64 67 64 65 66 69 69 72 72 74 74 72 71 71 71 68 66

GFSCGP_250_spd_105.txt.gz
Wind_Speed
92 88 85 87 88 87 85 83 82 82 82 77 80 80 82 83 83 86 87 87 85 86 87 88 87 86 85 85 84 85 86 85 82 81 74 68 72 74 64 62 61 58 58 54
97 92 90 91 88 87 88 86 84 83 85 81 82 80 83 86 85 83 83 86 86 85 89 93 93 93 89 88 88 90 88 87 85 80 74 72 72 71 67 65 64 63 57 55
102 96 94 94 94 91 88 87 86 86 88 87 84 79 85 90 91 91 91 90 90 91 92 92 93 92 93 90 92 89 86 85 82 79 78 72 66 62 64 66 65 66 62 58
101 98 99 98 96 98 95 93 90 91 90 89 87 80 82 90 95 97 95 92 90 91 92 91 93 95 96 95 94 88 86 86 83 80 75 65 59 58 59 66 68 68 65 59
98 99 100 100 100 101 100 99 98 94 92 91 87 87 79 88 94 97 96 94 93 92 90 92 93 95 94 93 82 80 78 79 79 73 66 60 57 56 63 65 67 65 61 61
86 92 96 102 102 101 101 101 101 100 95 90 91 93 82 89 91 96 99 101 99 97 93 91 91 90 86 80 78 79 77 74 70 64 60 59 59 58 60 63 63 63 60 60
84 87 87 91 95 102 104 101 99 99 97 93 93 92 89 93 97 97 96 97 95 92 91 88 84 82 78 71 68 64 64 63 61 61 60 58 58 59 60 62 62 60 55 56
79 81 84 86 90 91 93 95 96 94 97 98 98 92 92 95 96 94 94 92 89 87 81 76 78 75 62 55 52 52 54 55 53 53 53 52 50 50 54 57 53 57 52 56
75 79 80 80 83 85 86 87 90 94 93 93 93 93 94 93 92 89 87 85 82 75 66 65 64 58 54 49 48 46 44 42 41 40 40 39 39 40 42 42 43 45 48 49
68 72 74 77 80 80 82 85 86 89 90 90 88 90 88 84 82 79 79 75 66 58 57 57 53 51 46 41 36 33 31 31 30 29 28 28 30 30 31 30 32 37 41 42
61 63 65 69 71 73 76 80 82 85 86 86 83 80 76 73 70 70 65 59 57 56 51 46 44 40 34 31 30 27 27 26 27 29 24 19 22 24 28 26 30 27 34 38
50 52 56 59 63 69 71 73 75 77 77 78 77 66 64 62 62 58 54 51 50 49 46 41 37 32 29 28 27 28 30 29 33 32 31 29 28 20 20 26 33 33 34 37
44 45 51 54 57 60 63 68 71 71 68 68 68 59 58 60 56 52 45 46 48 45 40 34 33 31 29 29 32 33 35 38 37 38 34 31 33 36 36 33 33 39 36 40
42 44 49 51 54 58 61 64 68 66 63 64 57 59 57 48 45 46 39 43 41 39 36 32 33 33 31 34 35 37 44 45 43 40 39 37 38 39 41 39 41 45 48 49
41 45 49 52 56 58 61 64 68 64 61 48 53 52 56 39 41 38 38 38 37 37 35 32 33 34 30 36 38 41 46 45 47 46 43 42 44 48 47 44 46 44 39 47
46 50 54 58 61 60 59 63 63 58 55 46 42 47 40 36 38 36 36 36 37 37 35 35 36 37 33 41 39 40 47 49 47 48 47 47 48 49 47 43 42 47 41 43
50 54 56 57 59 55 56 60 53 50 49 41 39 42 33 35 32 35 32 36 40 40 40 37 36 37 38 41 46 43 42 53 50 49 49 49 49 48 44 42 36 37 45 43
56 56 50 51 51 50 51 45 47 44 38 35 33 33 31 30 34 31 32 35 33 38 37 37 38 40 42 44 45 43 41 51 57 52 48 49 50 47 44 47 44 40 38 37
50 48 45 43 42 39 42 42 44 38 35 33 30 28 30 33 32 31 31 31 34 38 41 40 42 41 44 44 46 44 41 43 58 59 55 51 49 47 45 49 49 52 49 49
41 39 38 37 34 33 37 39 37 33 30 30 29 29 30 31 28 31 28 31 34 39 41 42 43 40 45 44 46 48 48 45 46 57 61 59 56 54 50 51 48 49 51 46
35 35 36 35 33 33 33 32 30 28 27 27 27 27 30 30 29 32 33 34 36 40 40 43 45 44 46 46 47 51 50 48 48 48 52 55 59 60 59 50 55 44 49 48
32 31 31 30 28 28 26 26 25 23 24 26 26 29 32 32 33 35 33 38 38 43 43 42 46 46 49 49 48 50 53 50 50 51 51 48 53 59 65 67 64 70 61 62
27 26 27 26 23 23 22 20 19 21 22 24 27 31 35 34 37 38 40 42 42 45 46 45 47 52 51 53 52 47 47 51 57 54 56 54 54 57 62 67 69 71 68 71
25 23 22 21 20 19 18 17 17 20 22 26 30 34 35 35 38 41 42 45 46 47 48 48 49 49 52 54 55 54 52 54 55 60 61 61 61 58 59 62 66 69 72 70
21 20 20 19 18 17 16 17 17 19 20 27 33 33 38 40 42 45 47 48 47 48 50 50 51 49 50 48 50 54 60 61 60 63 65 67 67 66 66 67 69 71 68 74
19 19 20 20 18 18 18 19 19 20 21 25 31 34 37 40 41 45 49 48 44 42 43 47 48 52 50 53 54 53 53 62 67 67 70 71 73 74 74 74 75 78 79 81

GFSCGP_250_spd_108.txt.gz
Wind_Speed
103 104 101 100 99 99 94 91 84 82 85 84 82 80 81 82 80 81 81 79 80 82 83 81 81 81 80 81 81 82 83 82 82 83 81 80 79 78 77 74 74 72 70 67
112 108 105 100 98 99 98 93 88 85 86 84 84 83 85 85 85 82 82 82 82 83 84 85 85 84 84 83 83 85 87 89 89 87 84 83 81 81 80 77 75 71 69 70
120 114 109 104 100 98 98 94 94 92 89 86 86 84 85 86 86 86 84 83 83 83 85 86 87 88 89 90 90 91 93 93 92 91 89 89 89 87 82 77 74 70 73 72
118 115 108 107 99 97 96 100 99 97 97 91 86 86 85 88 89 89 88 87 86 85 85 86 88 91 92 93 93 93 92 93 94 95 94 92 90 86 82 77 80 76 75 74
112 111 108 100 96 94 91 91 96 96 97 93 89 89 91 90 93 94 93 93 90 89 88 88 89 90 91 93 93 93 95 95 96 94 91 89 87 83 77 76 75 76 74 68
101 95 91 87 90 93 94 93 92 92 93 91 94 93 92 92 94 96 95 97 95 93 92 92 93 92 92 92 94 95 94 94 94 92 90 88 83 78 77 73 72 68 66 63
82 82 82 82 85 90 92 90 90 90 92 91 90 95 99 93 94 95 93 95 96 97 99 97 94 93 93 94 94 92 88 87 90 89 85 84 84 78 73 65 62 62 60 59
69 68 68 69 74 79 82 83 86 87 88 86 83 86 92 94 96 96 98 94 94 97 98 98 96 95 93 93 91 89 88 84 81 72 66 64 66 61 56 55 56 56 57 57
58 59 58 61 67 69 73 78 79 80 80 82 82 85 87 88 90 91 94 95 96 96 94 93 92 91 88 84 82 76 66 61 57 52 49 49 50 50 50 52 55 51 53 58
51 49 51 55 59 63 66 69 72 77 79 80 79 82 86 84 88 90 92 93 92 91 91 89 83 77 72 70 64 56 52 48 47 47 46 46 46 44 42 42 44 48 53 53
45 45 47 50 51 55 59 62 65 71 73 76 78 79 78 82 85 88 89 87 85 82 79 76 67 61 61 54 47 44 40 38 38 35 35 34 23 16 20 28 29 34 39 44
38 39 41 42 43 45 48 52 59 63 66 71 73 74 74 77 81 81 78 74 71 70 68 63 53 54 45 41 39 34 31 28 27 28 31 32 30 26 21 25 28 29 33 36
34 34 36 37 39 44 47 50 54 58 63 65 69 70 69 71 72 66 65 66 64 61 57 49 50 43 37 35 32 30 27 28 29 31 31 31 32 33 32 29 27 27 29 31
31 33 35 36 38 43 47 50 55 58 59 61 59 62 63 63 64 57 62 56 54 49 45 42 39 36 32 31 31 30 32 36 36 36 34 31 32 35 33 31 32 33 32 33
33 35 35 36 40 44 46 49 53 55 58 54 57 52 65 56 48 46 40 42 41 37 38 35 33 29 30 28 29 31 36 41 40 39 35 33 36 36 34 37 38 40 40 37
33 34 35 39 43 46 47 51 53 54 55 51 53 54 47 49 46 32 35 36 35 34 32 31 29 29 30 28 32 36 44 44 41 41 37 35 37 41 44 45 42 41 43 45
31 35 40 43 49 49 49 56 55 52 53 50 46 41 39 43 35 35 31 32 31 32 31 30 27 29 30 32 34 39 44 47 47 47 42 39 43 48 47 47 39 39 43 42
39 43 45 48 53 50 51 52 51 47 46 41 35 36 33 34 33 32 29 28 31 30 30 29 28 32 33 36 38 40 43 51 52 49 48 45 45 45 49 47 41 41 39 40
46 48 50 50 50 46 43 45 43 42 39 36 33 31 29 29 31 29 27 28 26 28 30 29 31 35 35 40 40 43 40 54 55 53 52 49 44 46 46 46 42 41 38 40
47 46 45 44 42 41 39 40 40 39 38 33 29 27 26 27 27 27 28 26 24 27 29 30 33 37 37 40 41 45 44 49 55 56 55 54 48 47 47 48 49 46 45 44
42 42 41 38 38 37 36 34 33 34 33 29 26 24 24 24 25 26 25 24 25 27 27 30 34 39 40 41 44 43 46 47 48 45 58 57 55 52 51 51 52 53 54 48
37 35 34 34 35 35 34 32 31 29 28 23 22 21 23 22 23 25 25 24 25 28 29 31 35 42 41 43 46 45 47 46 45 45 52 61 60 58 56 53 56 55 55 57
32 32 32 32 30 29 26 25 24 24 22 20 20 21 23 23 26 26 27 26 28 28 31 34 38 41 46 45 46 51 46 48 50 49 49 55 66 64 61 59 58 59 61 58
26 25 25 24 22 21 20 18 19 20 18 19 20 24 25 26 27 28 30 31 32 32 35 40 39 39 44 48 46 49 51 50 51 52 52 53 55 60 69 71 66 65 64 63
23 22 20 18 18 17 16 16 18 18 20 21 23 26 28 29 31 32 35 35 35 37 37 39 38 39 41 42 49 53 56 55 54 57 57 56 58 60 61 65 70 72 74 74
21 19 17 17 16 16 16 17 20 20 21 24 27 32 32 32 33 35 39 41 41 41 40 40 40 40 42 43 44 51 59 60 60 61 64 63 62 64 68 68 69 70 74 76

GFSCGP_250_spd_114.txt.gz
Wind_Speed
99 97 93 97 97 97 100 101 97 92 97 110 110 109 103 101 102 101 99 95 91 90 87 72 70 73 78 76 74 74 72 71 73 76 77 75 76 75 73 70 71 71 72 75
102 95 96 101 103 109 107 108 108 111 111 117 119 121 106 104 101 96 102 103 97 97 92 74 71 78 80 79 78 77 74 75 75 75 76 77 77 76 74 71 70 73 73 74
109 101 108 109 111 118 115 117 118 123 118 116 112 116 112 95 91 96 98 100 103 99 93 88 85 80 78 79 81 81 80 79 79 78 77 77 76 76 76 77 77 77 78 77
113 113 118 118 120 125 128 129 130 125 120 108 107 109 107 92 96 97 99 109 98 95 93 90 88 84 82 79 83 83 83 82 81 81 79 78 78 76 78 78 79 80 82 82
117 125 129 133 129 128 133 127 111 111 107 104 93 99 99 95 94 95 102 94 93 91 92 89 89 88 86 82 85 84 84 86 84 83 82 82 81 81 80 82 82 83 84 86
134 135 131 131 129 129 122 114 101 91 92 98 83 93 86 87 92 95 97 87 86 90 93 88 88 91 88 85 85 86 87 87 86 86 87 87 87 87 87 87 88 88 89 86
134 128 127 119 118 116 97 91 86 81 76 76 75 82 78 83 87 94 91 91 78 91 90 90 90 93 91 90 87 85 89 90 90 91 91 92 89 90 90 90 90 91 91 87
114 112 105 97 92 89 81 81 77 73 64 60 61 65 69 68 73 83 88 85 91 85 87 86 88 92 92 90 89 89 90 92 93 93 92 93 92 91 91 92 94 91 91 87
102 88 82 84 82 75 71 67 65 63 58 53 53 54 60 64 67 74 78 80 86 85 81 85 87 89 88 86 87 87 88 89 91 91 91 92 90 89 87 88 86 85 85 82
86 79 75 71 66 66 61 57 56 56 49 47 47 51 59 58 65 62 67 70 77 80 77 78 82 85 86 87 88 87 87 87 88 86 86 85 82 85 83 81 80 77 72 70
76 65 65 65 58 56 46 47 49 50 46 41 43 49 51 54 57 59 60 62 65 68 70 73 77 80 83 85 85 84 84 84 84 82 79 81 82 82 79 68 57 51 45 40
60 60 56 55 48 43 44 36 42 43 41 39 38 39 43 48 49 49 49 52 57 63 68 71 75 77 78 79 80 80 80 81 81 79 78 76 77 67 54 46 40 34 31 28
53 50 47 46 43 38 33 33 35 37 35 33 35 35 39 42 42 44 44 42 46 58 63 66 70 72 74 76 78 79 78 78 76 71 69 62 54 44 41 32 28 33 34 35
45 44 38 35 32 27 28 29 30 30 31 36 36 40 41 43 43 43 42 43 52 58 61 64 67 70 72 73 72 70 70 67 62 54 52 45 37 32 32 33 39 39 36 33
36 31 27 27 25 24 24 25 28 30 33 35 43 43 46 46 44 45 48 54 54 57 62 64 65 64 63 62 64 61 57 50 44 42 40 36 31 34 36 44 44 42 36 24
28 28 27 29 29 27 28 31 34 36 38 39 42 44 48 49 48 51 52 56 56 59 58 58 56 55 52 52 48 45 41 36 30 37 38 33 38 38 43 45 40 37 36 37
28 31 32 30 32 33 33 36 38 41 43 46 49 51 51 53 53 52 53 51 51 52 55 55 53 50 47 45 41 36 32 28 34 37 37 39 42 37 43 39 34 32 32 33
29 32 32 34 36 35 38 35 40 42 45 48 51 49 54 55 52 52 50 50 50 47 45 43 41 38 39 36 31 28 26 28 37 38 41 43 44 34 37 35 32 30 33 33
29 30 31 32 36 40 42 42 47 47 50 51 54 52 52 51 46 46 43 41 41 40 35 35 33 33 31 28 26 27 31 36 42 42 45 44 39 40 41 37 35 34 35 35
33 35 37 40 43 43 44 44 46 46 51 51 47 44 42 39 36 33 35 35 34 32 31 29 27 25 25 27 29 34 39 46 47 44 47 42 42 41 38 40 33 38 37 37
38 41 43 44 45 44 48 47 45 44 43 39 37 36 35 33 29 30 29 28 29 28 25 24 24 24 27 30 33 38 41 49 50 46 49 48 47 44 37 38 41 40 41 37
42 44 44 46 46 45 43 40 37 37 34 32 30 30 31 27 26 24 23 24 25 24 24 24 23 27 30 33 37 40 43 45 50 50 54 51 49 47 42 42 46 41 44 40
44 44 46 43 41 37 35 33 33 32 30 28 27 25 23 24 23 22 23 22 22 24 24 25 27 30 32 34 37 41 43 44 47 55 58 57 55 52 48 44 45 52 50 48
44 43 42 39 35 32 32 33 32 30 28 26 23 20 20 22 22 23 22 21 22 24 27 28 30 30 30 30 35 37 41 46 46 52 53 61 60 59 53 53 51 51 55 53
43 40 38 35 33 33 33 32 28 27 24 21 18 17 20 21 22 22 22 23 24 27 30 31 34 36 38 36 37 42 45 46 51 54 57 58 63 64 64 60 58 60 61 63
39 36 35 35 33 31 29 27 24 23 19 18 18 20 23 24 24 24 25 25 28 29 32 35 36 37 38 41 42 43 44 49 50 55 59 61 62 66 66 69 66 66 67 67

GFSCGP_250_spd_117.txt.gz
Wind_Speed
83 83 81 87 91 92 93 93 92 90 88 98 93 94 96 96 100 97 96 99 103 112 114 105 94 88 83 79 84 73 64 69 74 71 70 69 71 73 74 74 73 76 74 68
90 86 92 92 92 94 97 97 97 97 99 106 104 105 101 111 110 108 106 106 108 119 112 107 96 86 81 81 87 82 76 71 74 75 74 74 75 76 76 77 78 78 77 74
90 89 94 96 96 101 103 107 107 108 110 110 118 117 111 109 110 117 118 114 114 119 103 99 87 87 88 87 89 84 82 77 73 75 79 78 78 80 81 79 77 78 75 74
91 96 100 101 102 111 110 112 117 119 122 123 123 112 109 105 106 107 111 120 114 98 96 94 86 89 88 93 90 86 83 80 78 78 78 81 81 80 81 82 81 79 79 77
91 101 104 105 107 111 113 118 122 127 132 127 108 115 93 91 97 100 103 102 98 94 90 87 87 84 87 91 91 88 83 84 83 81 82 80 83 85 83 82 81 82 81 79
101 106 109 110 113 113 117 121 123 124 113 100 90 98 75 82 77 78 85 86 84 81 85 86 87 81 84 88 91 90 89 87 85 85 85 84 83 87 87 86 83 83 83 81
110 107 111 115 116 118 123 122 115 107 101 88 81 75 74 65 61 66 68 69 69 73 76 81 81 79 79 80 83 86 89 87 85 85 87 86 85 86 87 88 87 85 85 85
114 113 119 122 122 124 122 110 99 88 80 72 68 60 54 52 50 59 58 62 59 64 67 76 79 76 75 77 80 82 85 86 86 86 88 88 87 85 85 85 86 88 88 88
119 120 122 125 126 118 102 94 87 78 70 60 56 52 44 49 39 46 42 49 52 56 59 64 69 69 70 76 80 82 81 82 84 86 88 88 87 85 84 85 84 86 86 86
119 118 118 113 104 96 83 78 72 66 57 53 50 47 39 49 53 48 44 49 38 50 56 58 61 60 58 64 76 81 82 83 83 84 85 86 85 82 81 80 81 80 80 82
119 110 96 91 87 77 72 68 62 59 52 52 46 42 42 45 49 54 51 55 52 51 45 49 50 51 47 48 57 69 75 77 79 80 80 81 80 78 77 75 75 76 77 74
98 89 84 74 67 61 61 55 55 51 49 48 43 36 41 43 44 44 43 40 33 33 39 46 39 40 43 44 47 53 61 67 71 74 75 76 75 69 66 70 74 73 69 69
87 77 65 62 57 55 52 51 49 45 40 39 38 31 39 36 35 29 29 27 25 32 40 39 35 40 41 42 45 49 53 58 63 68 69 67 65 65 67 68 68 64 61 51
70 61 57 53 50 47 45 39 34 28 28 32 28 30 36 33 28 28 25 22 29 39 42 39 39 38 39 43 47 50 53 57 58 57 58 60 61 61 61 58 53 48 41 35
56 50 47 47 44 39 30 26 26 26 27 25 29 29 36 30 30 32 33 38 40 41 42 43 44 45 47 49 51 54 56 55 53 53 53 50 50 49 44 41 40 35 37 42
45 41 42 39 34 29 25 24 27 28 30 29 30 35 35 35 35 39 43 44 45 46 46 46 48 51 53 52 49 50 51 49 48 45 40 40 38 34 34 35 34 38 45 44
38 40 34 30 30 31 28 27 28 34 37 35 35 39 44 45 45 45 45 47 48 47 48 49 50 50 50 48 48 44 41 39 34 28 28 29 29 33 33 34 36 43 47 42
35 38 31 30 30 28 30 31 36 40 40 41 40 40 42 46 49 46 46 47 44 42 42 44 47 48 46 45 41 36 36 29 24 23 30 33 34 34 35 37 38 44 40 40
35 32 31 29 28 29 29 34 37 41 43 48 51 44 47 48 50 51 50 48 47 44 42 42 41 35 34 31 29 30 28 26 26 34 39 38 34 36 37 35 36 40 38 38
31 32 31 32 32 33 40 39 41 44 50 51 52 50 50 50 47 46 42 40 39 37 36 34 29 28 27 26 27 30 30 31 34 45 48 42 39 41 38 35 37 36 36 36
34 35 35 35 38 40 41 42 45 45 50 51 47 44 40 38 38 36 33 31 32 32 30 27 26 26 26 27 28 31 30 34 42 47 47 42 41 44 41 41 42 42 37 37
36 36 38 40 42 42 43 45 43 42 41 39 37 36 36 33 32 31 29 29 28 27 27 27 26 25 26 27 28 30 33 36 44 49 46 43 45 47 44 44 45 43 40 38
38 39 41 43 43 43 44 41 38 34 33 32 32 31 29 28 28 28 27 24 24 26 26 25 26 27 28 29 32 34 35 37 44 49 50 45 48 48 48 47 48 49 44 44
38 40 42 42 42 42 38 35 32 29 28 27 25 24 22 21 22 22 22 22 23 23 24 25 25 27 29 31 34 35 37 39 44 46 49 50 49 53 53 51 51 50 50 47
38 40 41 40 40 36 33 31 30 28 28 25 23 21 18 18 17 19 19 21 23 23 23 23 25 28 30 31 32 37 38 41 44 45 52 53 53 56 57 57 56 52 52 55
39 40 41 40 36 32 31 31 30 28 25 23 20 19 17 17 18 20 21 22 23 23 25 27 28 28 30 32 33 31 39 44 49 49 51 54 58 60 63 62 62 60 60 58